<?xml version="1.0" encoding="UTF-8" standalone="no" ?>
<gpx xmlns="http://www.topografix.com/GPX/1/1" xmlns:xsi="http://www.w3.org/2001/XMLSchema-instance" xsi:schemaLocation="http://www.topografix.com/GPX/1/1 http://www.topografix.com/GPX/1/1/gpx.xsd" version="1.1" creator="VisuGPX - https://www.visugpx.com">
  <metadata>
    <name>entrainement du 28/04/17</name>
    <desc><![CDATA[sortie de 41km avec 16km de route]]></desc>
  </metadata>
  <trk>
    <name><![CDATA[Tracé actuel: 28 AVR 2017 07:58]]></name>
    <trkseg>
      <trkpt lat="43.40094" lon="-0.57994">
        <ele>110.21</ele>
        <time>2017-04-28T05:58:49Z</time>
      </trkpt>
      <trkpt lat="43.40093" lon="-0.57997">
        <ele>108.77</ele>
        <time>2017-04-28T05:59:11Z</time>
      </trkpt>
      <trkpt lat="43.40092" lon="-0.57998">
        <ele>108.29</ele>
        <time>2017-04-28T05:59:20Z</time>
      </trkpt>
      <trkpt lat="43.4008" lon="-0.58014">
        <ele>111.17</ele>
        <time>2017-04-28T05:59:28Z</time>
      </trkpt>
      <trkpt lat="43.40079" lon="-0.58018">
        <ele>111.17</ele>
        <time>2017-04-28T05:59:29Z</time>
      </trkpt>
      <trkpt lat="43.40079" lon="-0.58022">
        <ele>111.17</ele>
        <time>2017-04-28T05:59:30Z</time>
      </trkpt>
      <trkpt lat="43.40079" lon="-0.58028">
        <ele>110.69</ele>
        <time>2017-04-28T05:59:31Z</time>
      </trkpt>
      <trkpt lat="43.4008" lon="-0.58033">
        <ele>110.21</ele>
        <time>2017-04-28T05:59:32Z</time>
      </trkpt>
      <trkpt lat="43.40081" lon="-0.58038">
        <ele>109.73</ele>
        <time>2017-04-28T05:59:33Z</time>
      </trkpt>
      <trkpt lat="43.40082" lon="-0.58044">
        <ele>109.25</ele>
        <time>2017-04-28T05:59:34Z</time>
      </trkpt>
      <trkpt lat="43.40089" lon="-0.58083">
        <ele>106.84</ele>
        <time>2017-04-28T05:59:42Z</time>
      </trkpt>
      <trkpt lat="43.40089" lon="-0.58085">
        <ele>106.84</ele>
        <time>2017-04-28T05:59:43Z</time>
      </trkpt>
      <trkpt lat="43.40089" lon="-0.58086">
        <ele>106.36</ele>
        <time>2017-04-28T05:59:44Z</time>
      </trkpt>
      <trkpt lat="43.40088" lon="-0.58088">
        <ele>106.36</ele>
        <time>2017-04-28T05:59:45Z</time>
      </trkpt>
      <trkpt lat="43.40086" lon="-0.5809">
        <ele>106.36</ele>
        <time>2017-04-28T05:59:46Z</time>
      </trkpt>
      <trkpt lat="43.40084" lon="-0.58092">
        <ele>106.36</ele>
        <time>2017-04-28T05:59:47Z</time>
      </trkpt>
      <trkpt lat="43.40041" lon="-0.58116">
        <ele>106.84</ele>
        <time>2017-04-28T05:59:59Z</time>
      </trkpt>
      <trkpt lat="43.40004" lon="-0.5814">
        <ele>107.32</ele>
        <time>2017-04-28T06:00:12Z</time>
      </trkpt>
      <trkpt lat="43.39987" lon="-0.58124">
        <ele>107.81</ele>
        <time>2017-04-28T06:00:20Z</time>
      </trkpt>
      <trkpt lat="43.39955" lon="-0.58037">
        <ele>109.25</ele>
        <time>2017-04-28T06:00:36Z</time>
      </trkpt>
      <trkpt lat="43.39908" lon="-0.57915">
        <ele>108.77</ele>
        <time>2017-04-28T06:00:57Z</time>
      </trkpt>
      <trkpt lat="43.39869" lon="-0.57848">
        <ele>108.77</ele>
        <time>2017-04-28T06:01:10Z</time>
      </trkpt>
      <trkpt lat="43.39865" lon="-0.57845">
        <ele>108.77</ele>
        <time>2017-04-28T06:01:11Z</time>
      </trkpt>
      <trkpt lat="43.3986" lon="-0.57841">
        <ele>108.77</ele>
        <time>2017-04-28T06:01:12Z</time>
      </trkpt>
      <trkpt lat="43.39846" lon="-0.57832">
        <ele>108.29</ele>
        <time>2017-04-28T06:01:15Z</time>
      </trkpt>
      <trkpt lat="43.39842" lon="-0.57829">
        <ele>108.29</ele>
        <time>2017-04-28T06:01:16Z</time>
      </trkpt>
      <trkpt lat="43.39837" lon="-0.57825">
        <ele>108.29</ele>
        <time>2017-04-28T06:01:17Z</time>
      </trkpt>
      <trkpt lat="43.39833" lon="-0.5782">
        <ele>108.29</ele>
        <time>2017-04-28T06:01:18Z</time>
      </trkpt>
      <trkpt lat="43.39829" lon="-0.57814">
        <ele>108.29</ele>
        <time>2017-04-28T06:01:19Z</time>
      </trkpt>
      <trkpt lat="43.39768" lon="-0.57732">
        <ele>106.84</ele>
        <time>2017-04-28T06:01:37Z</time>
      </trkpt>
      <trkpt lat="43.39708" lon="-0.57653">
        <ele>106.84</ele>
        <time>2017-04-28T06:01:54Z</time>
      </trkpt>
      <trkpt lat="43.39663" lon="-0.57604">
        <ele>108.29</ele>
        <time>2017-04-28T06:02:07Z</time>
      </trkpt>
      <trkpt lat="43.39658" lon="-0.57604">
        <ele>108.77</ele>
        <time>2017-04-28T06:02:08Z</time>
      </trkpt>
      <trkpt lat="43.39653" lon="-0.57604">
        <ele>108.77</ele>
        <time>2017-04-28T06:02:09Z</time>
      </trkpt>
      <trkpt lat="43.39649" lon="-0.57603">
        <ele>109.25</ele>
        <time>2017-04-28T06:02:10Z</time>
      </trkpt>
      <trkpt lat="43.39644" lon="-0.57601">
        <ele>109.25</ele>
        <time>2017-04-28T06:02:11Z</time>
      </trkpt>
      <trkpt lat="43.39639" lon="-0.57598">
        <ele>109.25</ele>
        <time>2017-04-28T06:02:12Z</time>
      </trkpt>
      <trkpt lat="43.39635" lon="-0.57594">
        <ele>109.25</ele>
        <time>2017-04-28T06:02:13Z</time>
      </trkpt>
      <trkpt lat="43.3963" lon="-0.57589">
        <ele>109.25</ele>
        <time>2017-04-28T06:02:14Z</time>
      </trkpt>
      <trkpt lat="43.39625" lon="-0.57587">
        <ele>109.25</ele>
        <time>2017-04-28T06:02:15Z</time>
      </trkpt>
      <trkpt lat="43.3962" lon="-0.57587">
        <ele>109.25</ele>
        <time>2017-04-28T06:02:16Z</time>
      </trkpt>
      <trkpt lat="43.39614" lon="-0.57588">
        <ele>109.73</ele>
        <time>2017-04-28T06:02:17Z</time>
      </trkpt>
      <trkpt lat="43.3961" lon="-0.57591">
        <ele>109.73</ele>
        <time>2017-04-28T06:02:18Z</time>
      </trkpt>
      <trkpt lat="43.39605" lon="-0.57595">
        <ele>109.73</ele>
        <time>2017-04-28T06:02:19Z</time>
      </trkpt>
      <trkpt lat="43.39601" lon="-0.57599">
        <ele>109.73</ele>
        <time>2017-04-28T06:02:20Z</time>
      </trkpt>
      <trkpt lat="43.39537" lon="-0.5766">
        <ele>108.29</ele>
        <time>2017-04-28T06:02:36Z</time>
      </trkpt>
      <trkpt lat="43.39455" lon="-0.5774">
        <ele>105.4</ele>
        <time>2017-04-28T06:02:51Z</time>
      </trkpt>
      <trkpt lat="43.39365" lon="-0.57825">
        <ele>105.4</ele>
        <time>2017-04-28T06:03:07Z</time>
      </trkpt>
      <trkpt lat="43.39273" lon="-0.57905">
        <ele>106.36</ele>
        <time>2017-04-28T06:03:24Z</time>
      </trkpt>
      <trkpt lat="43.39171" lon="-0.57943">
        <ele>105.88</ele>
        <time>2017-04-28T06:03:40Z</time>
      </trkpt>
      <trkpt lat="43.39087" lon="-0.57965">
        <ele>106.84</ele>
        <time>2017-04-28T06:03:53Z</time>
      </trkpt>
      <trkpt lat="43.39018" lon="-0.58014">
        <ele>108.29</ele>
        <time>2017-04-28T06:04:05Z</time>
      </trkpt>
      <trkpt lat="43.38912" lon="-0.5813">
        <ele>107.81</ele>
        <time>2017-04-28T06:04:26Z</time>
      </trkpt>
      <trkpt lat="43.38805" lon="-0.58248">
        <ele>106.84</ele>
        <time>2017-04-28T06:04:48Z</time>
      </trkpt>
      <trkpt lat="43.38715" lon="-0.58348">
        <ele>105.88</ele>
        <time>2017-04-28T06:05:07Z</time>
      </trkpt>
      <trkpt lat="43.38622" lon="-0.58459">
        <ele>105.88</ele>
        <time>2017-04-28T06:05:27Z</time>
      </trkpt>
      <trkpt lat="43.38572" lon="-0.58583">
        <ele>109.73</ele>
        <time>2017-04-28T06:05:45Z</time>
      </trkpt>
      <trkpt lat="43.38522" lon="-0.58715">
        <ele>109.73</ele>
        <time>2017-04-28T06:06:05Z</time>
      </trkpt>
      <trkpt lat="43.38518" lon="-0.58719">
        <ele>109.25</ele>
        <time>2017-04-28T06:06:06Z</time>
      </trkpt>
      <trkpt lat="43.38512" lon="-0.58721">
        <ele>108.77</ele>
        <time>2017-04-28T06:06:07Z</time>
      </trkpt>
      <trkpt lat="43.38502" lon="-0.58726">
        <ele>108.77</ele>
        <time>2017-04-28T06:06:09Z</time>
      </trkpt>
      <trkpt lat="43.38497" lon="-0.5873">
        <ele>108.77</ele>
        <time>2017-04-28T06:06:10Z</time>
      </trkpt>
      <trkpt lat="43.38493" lon="-0.58735">
        <ele>108.77</ele>
        <time>2017-04-28T06:06:11Z</time>
      </trkpt>
      <trkpt lat="43.38489" lon="-0.5874">
        <ele>108.77</ele>
        <time>2017-04-28T06:06:12Z</time>
      </trkpt>
      <trkpt lat="43.38485" lon="-0.58746">
        <ele>108.77</ele>
        <time>2017-04-28T06:06:13Z</time>
      </trkpt>
      <trkpt lat="43.38455" lon="-0.58779">
        <ele>108.29</ele>
        <time>2017-04-28T06:06:20Z</time>
      </trkpt>
      <trkpt lat="43.3845" lon="-0.58782">
        <ele>108.29</ele>
        <time>2017-04-28T06:06:21Z</time>
      </trkpt>
      <trkpt lat="43.38444" lon="-0.58784">
        <ele>108.29</ele>
        <time>2017-04-28T06:06:22Z</time>
      </trkpt>
      <trkpt lat="43.38439" lon="-0.58786">
        <ele>108.29</ele>
        <time>2017-04-28T06:06:23Z</time>
      </trkpt>
      <trkpt lat="43.38433" lon="-0.58787">
        <ele>108.29</ele>
        <time>2017-04-28T06:06:24Z</time>
      </trkpt>
      <trkpt lat="43.38428" lon="-0.58787">
        <ele>108.29</ele>
        <time>2017-04-28T06:06:25Z</time>
      </trkpt>
      <trkpt lat="43.38422" lon="-0.58787">
        <ele>108.29</ele>
        <time>2017-04-28T06:06:26Z</time>
      </trkpt>
      <trkpt lat="43.38416" lon="-0.58787">
        <ele>108.29</ele>
        <time>2017-04-28T06:06:27Z</time>
      </trkpt>
      <trkpt lat="43.38411" lon="-0.58786">
        <ele>108.29</ele>
        <time>2017-04-28T06:06:28Z</time>
      </trkpt>
      <trkpt lat="43.38405" lon="-0.58784">
        <ele>108.29</ele>
        <time>2017-04-28T06:06:29Z</time>
      </trkpt>
      <trkpt lat="43.38389" lon="-0.58777">
        <ele>107.81</ele>
        <time>2017-04-28T06:06:32Z</time>
      </trkpt>
      <trkpt lat="43.38384" lon="-0.58773">
        <ele>107.81</ele>
        <time>2017-04-28T06:06:33Z</time>
      </trkpt>
      <trkpt lat="43.38379" lon="-0.58769">
        <ele>107.32</ele>
        <time>2017-04-28T06:06:34Z</time>
      </trkpt>
      <trkpt lat="43.38317" lon="-0.58686">
        <ele>108.29</ele>
        <time>2017-04-28T06:06:49Z</time>
      </trkpt>
      <trkpt lat="43.38241" lon="-0.58577">
        <ele>108.29</ele>
        <time>2017-04-28T06:07:08Z</time>
      </trkpt>
      <trkpt lat="43.38162" lon="-0.58482">
        <ele>108.29</ele>
        <time>2017-04-28T06:07:25Z</time>
      </trkpt>
      <trkpt lat="43.38092" lon="-0.58396">
        <ele>108.77</ele>
        <time>2017-04-28T06:07:40Z</time>
      </trkpt>
      <trkpt lat="43.38023" lon="-0.58347">
        <ele>108.77</ele>
        <time>2017-04-28T06:07:53Z</time>
      </trkpt>
      <trkpt lat="43.37964" lon="-0.58315">
        <ele>108.77</ele>
        <time>2017-04-28T06:08:04Z</time>
      </trkpt>
      <trkpt lat="43.3796" lon="-0.5831">
        <ele>108.77</ele>
        <time>2017-04-28T06:08:05Z</time>
      </trkpt>
      <trkpt lat="43.37956" lon="-0.58304">
        <ele>108.77</ele>
        <time>2017-04-28T06:08:06Z</time>
      </trkpt>
      <trkpt lat="43.37952" lon="-0.58297">
        <ele>108.77</ele>
        <time>2017-04-28T06:08:07Z</time>
      </trkpt>
      <trkpt lat="43.37949" lon="-0.5829">
        <ele>108.77</ele>
        <time>2017-04-28T06:08:08Z</time>
      </trkpt>
      <trkpt lat="43.37911" lon="-0.5818">
        <ele>108.77</ele>
        <time>2017-04-28T06:08:23Z</time>
      </trkpt>
      <trkpt lat="43.37872" lon="-0.58065">
        <ele>109.25</ele>
        <time>2017-04-28T06:08:39Z</time>
      </trkpt>
      <trkpt lat="43.37828" lon="-0.57935">
        <ele>109.25</ele>
        <time>2017-04-28T06:08:57Z</time>
      </trkpt>
      <trkpt lat="43.37777" lon="-0.5778">
        <ele>109.25</ele>
        <time>2017-04-28T06:09:18Z</time>
      </trkpt>
      <trkpt lat="43.37724" lon="-0.57652">
        <ele>109.73</ele>
        <time>2017-04-28T06:09:36Z</time>
      </trkpt>
      <trkpt lat="43.37653" lon="-0.57533">
        <ele>109.73</ele>
        <time>2017-04-28T06:09:55Z</time>
      </trkpt>
      <trkpt lat="43.37585" lon="-0.57422">
        <ele>110.21</ele>
        <time>2017-04-28T06:10:12Z</time>
      </trkpt>
      <trkpt lat="43.37519" lon="-0.57313">
        <ele>110.21</ele>
        <time>2017-04-28T06:10:29Z</time>
      </trkpt>
      <trkpt lat="43.37442" lon="-0.57205">
        <ele>110.69</ele>
        <time>2017-04-28T06:10:47Z</time>
      </trkpt>
      <trkpt lat="43.3734" lon="-0.57095">
        <ele>110.69</ele>
        <time>2017-04-28T06:11:08Z</time>
      </trkpt>
      <trkpt lat="43.37304" lon="-0.57025">
        <ele>111.17</ele>
        <time>2017-04-28T06:11:19Z</time>
      </trkpt>
      <trkpt lat="43.37301" lon="-0.5702">
        <ele>111.65</ele>
        <time>2017-04-28T06:11:20Z</time>
      </trkpt>
      <trkpt lat="43.37296" lon="-0.57017">
        <ele>111.65</ele>
        <time>2017-04-28T06:11:21Z</time>
      </trkpt>
      <trkpt lat="43.37291" lon="-0.57014">
        <ele>112.13</ele>
        <time>2017-04-28T06:11:22Z</time>
      </trkpt>
      <trkpt lat="43.37286" lon="-0.57012">
        <ele>112.13</ele>
        <time>2017-04-28T06:11:23Z</time>
      </trkpt>
      <trkpt lat="43.37281" lon="-0.57012">
        <ele>112.61</ele>
        <time>2017-04-28T06:11:24Z</time>
      </trkpt>
      <trkpt lat="43.37276" lon="-0.57012">
        <ele>112.61</ele>
        <time>2017-04-28T06:11:25Z</time>
      </trkpt>
      <trkpt lat="43.37271" lon="-0.57014">
        <ele>112.61</ele>
        <time>2017-04-28T06:11:26Z</time>
      </trkpt>
      <trkpt lat="43.37265" lon="-0.57018">
        <ele>112.61</ele>
        <time>2017-04-28T06:11:27Z</time>
      </trkpt>
      <trkpt lat="43.3726" lon="-0.57021">
        <ele>112.61</ele>
        <time>2017-04-28T06:11:28Z</time>
      </trkpt>
      <trkpt lat="43.37174" lon="-0.57072">
        <ele>113.57</ele>
        <time>2017-04-28T06:11:45Z</time>
      </trkpt>
      <trkpt lat="43.37135" lon="-0.57079">
        <ele>114.05</ele>
        <time>2017-04-28T06:11:52Z</time>
      </trkpt>
      <trkpt lat="43.3713" lon="-0.57081">
        <ele>114.05</ele>
        <time>2017-04-28T06:11:53Z</time>
      </trkpt>
      <trkpt lat="43.37125" lon="-0.57084">
        <ele>114.05</ele>
        <time>2017-04-28T06:11:54Z</time>
      </trkpt>
      <trkpt lat="43.3712" lon="-0.57088">
        <ele>114.05</ele>
        <time>2017-04-28T06:11:55Z</time>
      </trkpt>
      <trkpt lat="43.37115" lon="-0.57093">
        <ele>114.05</ele>
        <time>2017-04-28T06:11:56Z</time>
      </trkpt>
      <trkpt lat="43.37111" lon="-0.57097">
        <ele>114.05</ele>
        <time>2017-04-28T06:11:57Z</time>
      </trkpt>
      <trkpt lat="43.37045" lon="-0.57176">
        <ele>113.57</ele>
        <time>2017-04-28T06:12:12Z</time>
      </trkpt>
      <trkpt lat="43.36961" lon="-0.57279">
        <ele>113.09</ele>
        <time>2017-04-28T06:12:31Z</time>
      </trkpt>
      <trkpt lat="43.3688" lon="-0.57382">
        <ele>112.13</ele>
        <time>2017-04-28T06:12:49Z</time>
      </trkpt>
      <trkpt lat="43.36795" lon="-0.57451">
        <ele>112.61</ele>
        <time>2017-04-28T06:13:06Z</time>
      </trkpt>
      <trkpt lat="43.36689" lon="-0.57509">
        <ele>114.05</ele>
        <time>2017-04-28T06:13:26Z</time>
      </trkpt>
      <trkpt lat="43.36598" lon="-0.57595">
        <ele>114.05</ele>
        <time>2017-04-28T06:13:45Z</time>
      </trkpt>
      <trkpt lat="43.36509" lon="-0.5768">
        <ele>113.57</ele>
        <time>2017-04-28T06:14:04Z</time>
      </trkpt>
      <trkpt lat="43.36504" lon="-0.57682">
        <ele>113.57</ele>
        <time>2017-04-28T06:14:05Z</time>
      </trkpt>
      <trkpt lat="43.365" lon="-0.57683">
        <ele>113.57</ele>
        <time>2017-04-28T06:14:06Z</time>
      </trkpt>
      <trkpt lat="43.36494" lon="-0.57684">
        <ele>113.57</ele>
        <time>2017-04-28T06:14:07Z</time>
      </trkpt>
      <trkpt lat="43.3649" lon="-0.57683">
        <ele>113.57</ele>
        <time>2017-04-28T06:14:08Z</time>
      </trkpt>
      <trkpt lat="43.36485" lon="-0.57681">
        <ele>113.57</ele>
        <time>2017-04-28T06:14:09Z</time>
      </trkpt>
      <trkpt lat="43.36477" lon="-0.57644">
        <ele>113.09</ele>
        <time>2017-04-28T06:14:15Z</time>
      </trkpt>
      <trkpt lat="43.36471" lon="-0.57632">
        <ele>113.09</ele>
        <time>2017-04-28T06:14:17Z</time>
      </trkpt>
      <trkpt lat="43.36467" lon="-0.57625">
        <ele>113.09</ele>
        <time>2017-04-28T06:14:18Z</time>
      </trkpt>
      <trkpt lat="43.36438" lon="-0.57578">
        <ele>113.57</ele>
        <time>2017-04-28T06:14:27Z</time>
      </trkpt>
      <trkpt lat="43.36435" lon="-0.57571">
        <ele>113.57</ele>
        <time>2017-04-28T06:14:28Z</time>
      </trkpt>
      <trkpt lat="43.36434" lon="-0.57564">
        <ele>113.09</ele>
        <time>2017-04-28T06:14:29Z</time>
      </trkpt>
      <trkpt lat="43.36426" lon="-0.57473">
        <ele>112.61</ele>
        <time>2017-04-28T06:14:41Z</time>
      </trkpt>
      <trkpt lat="43.3641" lon="-0.57314">
        <ele>112.61</ele>
        <time>2017-04-28T06:15:02Z</time>
      </trkpt>
      <trkpt lat="43.36388" lon="-0.57186">
        <ele>113.09</ele>
        <time>2017-04-28T06:15:19Z</time>
      </trkpt>
      <trkpt lat="43.36348" lon="-0.57058">
        <ele>113.57</ele>
        <time>2017-04-28T06:15:37Z</time>
      </trkpt>
      <trkpt lat="43.36313" lon="-0.56948">
        <ele>114.53</ele>
        <time>2017-04-28T06:15:53Z</time>
      </trkpt>
      <trkpt lat="43.36303" lon="-0.56919">
        <ele>115.01</ele>
        <time>2017-04-28T06:15:57Z</time>
      </trkpt>
      <trkpt lat="43.36299" lon="-0.56913">
        <ele>115.01</ele>
        <time>2017-04-28T06:15:58Z</time>
      </trkpt>
      <trkpt lat="43.36242" lon="-0.56823">
        <ele>116.46</ele>
        <time>2017-04-28T06:16:13Z</time>
      </trkpt>
      <trkpt lat="43.36223" lon="-0.56795">
        <ele>116.94</ele>
        <time>2017-04-28T06:16:19Z</time>
      </trkpt>
      <trkpt lat="43.36219" lon="-0.56792">
        <ele>116.94</ele>
        <time>2017-04-28T06:16:20Z</time>
      </trkpt>
      <trkpt lat="43.36193" lon="-0.56777">
        <ele>117.42</ele>
        <time>2017-04-28T06:16:30Z</time>
      </trkpt>
      <trkpt lat="43.36191" lon="-0.56771">
        <ele>117.42</ele>
        <time>2017-04-28T06:16:31Z</time>
      </trkpt>
      <trkpt lat="43.36189" lon="-0.56765">
        <ele>117.42</ele>
        <time>2017-04-28T06:16:32Z</time>
      </trkpt>
      <trkpt lat="43.36189" lon="-0.56759">
        <ele>117.42</ele>
        <time>2017-04-28T06:16:33Z</time>
      </trkpt>
      <trkpt lat="43.36189" lon="-0.56753">
        <ele>117.42</ele>
        <time>2017-04-28T06:16:34Z</time>
      </trkpt>
      <trkpt lat="43.36189" lon="-0.56746">
        <ele>116.94</ele>
        <time>2017-04-28T06:16:35Z</time>
      </trkpt>
      <trkpt lat="43.36188" lon="-0.5674">
        <ele>116.94</ele>
        <time>2017-04-28T06:16:36Z</time>
      </trkpt>
      <trkpt lat="43.36186" lon="-0.56733">
        <ele>116.94</ele>
        <time>2017-04-28T06:16:37Z</time>
      </trkpt>
      <trkpt lat="43.36184" lon="-0.56727">
        <ele>116.46</ele>
        <time>2017-04-28T06:16:38Z</time>
      </trkpt>
      <trkpt lat="43.36181" lon="-0.56722">
        <ele>116.46</ele>
        <time>2017-04-28T06:16:39Z</time>
      </trkpt>
      <trkpt lat="43.3615" lon="-0.56676">
        <ele>116.46</ele>
        <time>2017-04-28T06:16:48Z</time>
      </trkpt>
      <trkpt lat="43.36146" lon="-0.56672">
        <ele>116.46</ele>
        <time>2017-04-28T06:16:49Z</time>
      </trkpt>
      <trkpt lat="43.36094" lon="-0.56627">
        <ele>116.46</ele>
        <time>2017-04-28T06:17:00Z</time>
      </trkpt>
      <trkpt lat="43.36088" lon="-0.56623">
        <ele>116.46</ele>
        <time>2017-04-28T06:17:01Z</time>
      </trkpt>
      <trkpt lat="43.3605" lon="-0.56592">
        <ele>116.94</ele>
        <time>2017-04-28T06:17:09Z</time>
      </trkpt>
      <trkpt lat="43.35998" lon="-0.56504">
        <ele>116.94</ele>
        <time>2017-04-28T06:17:24Z</time>
      </trkpt>
      <trkpt lat="43.35975" lon="-0.56408">
        <ele>116.94</ele>
        <time>2017-04-28T06:17:37Z</time>
      </trkpt>
      <trkpt lat="43.35957" lon="-0.5635">
        <ele>117.42</ele>
        <time>2017-04-28T06:17:45Z</time>
      </trkpt>
      <trkpt lat="43.3593" lon="-0.56294">
        <ele>117.9</ele>
        <time>2017-04-28T06:17:54Z</time>
      </trkpt>
      <trkpt lat="43.35926" lon="-0.56289">
        <ele>117.9</ele>
        <time>2017-04-28T06:17:55Z</time>
      </trkpt>
      <trkpt lat="43.35922" lon="-0.56285">
        <ele>117.9</ele>
        <time>2017-04-28T06:17:56Z</time>
      </trkpt>
      <trkpt lat="43.35917" lon="-0.56282">
        <ele>117.9</ele>
        <time>2017-04-28T06:17:57Z</time>
      </trkpt>
      <trkpt lat="43.35912" lon="-0.56278">
        <ele>117.9</ele>
        <time>2017-04-28T06:17:58Z</time>
      </trkpt>
      <trkpt lat="43.35898" lon="-0.5627">
        <ele>118.38</ele>
        <time>2017-04-28T06:18:01Z</time>
      </trkpt>
      <trkpt lat="43.35893" lon="-0.56267">
        <ele>118.38</ele>
        <time>2017-04-28T06:18:02Z</time>
      </trkpt>
      <trkpt lat="43.35888" lon="-0.56265">
        <ele>118.38</ele>
        <time>2017-04-28T06:18:03Z</time>
      </trkpt>
      <trkpt lat="43.35879" lon="-0.5626">
        <ele>118.86</ele>
        <time>2017-04-28T06:18:05Z</time>
      </trkpt>
      <trkpt lat="43.35851" lon="-0.56227">
        <ele>119.34</ele>
        <time>2017-04-28T06:18:14Z</time>
      </trkpt>
      <trkpt lat="43.3585" lon="-0.56222">
        <ele>119.34</ele>
        <time>2017-04-28T06:18:15Z</time>
      </trkpt>
      <trkpt lat="43.35848" lon="-0.56211">
        <ele>119.34</ele>
        <time>2017-04-28T06:18:17Z</time>
      </trkpt>
      <trkpt lat="43.35824" lon="-0.56105">
        <ele>119.82</ele>
        <time>2017-04-28T06:18:33Z</time>
      </trkpt>
      <trkpt lat="43.35822" lon="-0.56099">
        <ele>119.82</ele>
        <time>2017-04-28T06:18:34Z</time>
      </trkpt>
      <trkpt lat="43.35818" lon="-0.56092">
        <ele>119.82</ele>
        <time>2017-04-28T06:18:35Z</time>
      </trkpt>
      <trkpt lat="43.35792" lon="-0.56061">
        <ele>119.82</ele>
        <time>2017-04-28T06:18:42Z</time>
      </trkpt>
      <trkpt lat="43.35787" lon="-0.56059">
        <ele>119.82</ele>
        <time>2017-04-28T06:18:43Z</time>
      </trkpt>
      <trkpt lat="43.35782" lon="-0.56057">
        <ele>119.82</ele>
        <time>2017-04-28T06:18:44Z</time>
      </trkpt>
      <trkpt lat="43.35777" lon="-0.56057">
        <ele>119.82</ele>
        <time>2017-04-28T06:18:45Z</time>
      </trkpt>
      <trkpt lat="43.35772" lon="-0.56057">
        <ele>120.3</ele>
        <time>2017-04-28T06:18:46Z</time>
      </trkpt>
      <trkpt lat="43.35767" lon="-0.56059">
        <ele>120.3</ele>
        <time>2017-04-28T06:18:47Z</time>
      </trkpt>
      <trkpt lat="43.35763" lon="-0.56061">
        <ele>120.3</ele>
        <time>2017-04-28T06:18:48Z</time>
      </trkpt>
      <trkpt lat="43.35732" lon="-0.5607">
        <ele>119.82</ele>
        <time>2017-04-28T06:18:54Z</time>
      </trkpt>
      <trkpt lat="43.35726" lon="-0.5607">
        <ele>119.82</ele>
        <time>2017-04-28T06:18:55Z</time>
      </trkpt>
      <trkpt lat="43.3572" lon="-0.56068">
        <ele>119.82</ele>
        <time>2017-04-28T06:18:56Z</time>
      </trkpt>
      <trkpt lat="43.35716" lon="-0.56064">
        <ele>119.82</ele>
        <time>2017-04-28T06:18:57Z</time>
      </trkpt>
      <trkpt lat="43.35712" lon="-0.5606">
        <ele>119.82</ele>
        <time>2017-04-28T06:18:58Z</time>
      </trkpt>
      <trkpt lat="43.35707" lon="-0.56055">
        <ele>119.82</ele>
        <time>2017-04-28T06:18:59Z</time>
      </trkpt>
      <trkpt lat="43.35694" lon="-0.56043">
        <ele>119.82</ele>
        <time>2017-04-28T06:19:02Z</time>
      </trkpt>
      <trkpt lat="43.35689" lon="-0.56039">
        <ele>120.3</ele>
        <time>2017-04-28T06:19:03Z</time>
      </trkpt>
      <trkpt lat="43.3568" lon="-0.56034">
        <ele>120.3</ele>
        <time>2017-04-28T06:19:05Z</time>
      </trkpt>
      <trkpt lat="43.35675" lon="-0.56033">
        <ele>120.3</ele>
        <time>2017-04-28T06:19:06Z</time>
      </trkpt>
      <trkpt lat="43.3567" lon="-0.56031">
        <ele>120.3</ele>
        <time>2017-04-28T06:19:07Z</time>
      </trkpt>
      <trkpt lat="43.35648" lon="-0.56029">
        <ele>119.82</ele>
        <time>2017-04-28T06:19:11Z</time>
      </trkpt>
      <trkpt lat="43.35643" lon="-0.56027">
        <ele>119.82</ele>
        <time>2017-04-28T06:19:12Z</time>
      </trkpt>
      <trkpt lat="43.35638" lon="-0.56024">
        <ele>119.82</ele>
        <time>2017-04-28T06:19:13Z</time>
      </trkpt>
      <trkpt lat="43.35633" lon="-0.5602">
        <ele>119.82</ele>
        <time>2017-04-28T06:19:14Z</time>
      </trkpt>
      <trkpt lat="43.35629" lon="-0.56015">
        <ele>119.82</ele>
        <time>2017-04-28T06:19:15Z</time>
      </trkpt>
      <trkpt lat="43.35624" lon="-0.5601">
        <ele>119.82</ele>
        <time>2017-04-28T06:19:16Z</time>
      </trkpt>
      <trkpt lat="43.3562" lon="-0.56004">
        <ele>119.82</ele>
        <time>2017-04-28T06:19:17Z</time>
      </trkpt>
      <trkpt lat="43.35616" lon="-0.55997">
        <ele>119.82</ele>
        <time>2017-04-28T06:19:18Z</time>
      </trkpt>
      <trkpt lat="43.35613" lon="-0.55991">
        <ele>119.82</ele>
        <time>2017-04-28T06:19:19Z</time>
      </trkpt>
      <trkpt lat="43.35611" lon="-0.55984">
        <ele>119.82</ele>
        <time>2017-04-28T06:19:20Z</time>
      </trkpt>
      <trkpt lat="43.35577" lon="-0.55866">
        <ele>120.78</ele>
        <time>2017-04-28T06:19:36Z</time>
      </trkpt>
      <trkpt lat="43.35534" lon="-0.55787">
        <ele>122.22</ele>
        <time>2017-04-28T06:19:49Z</time>
      </trkpt>
      <trkpt lat="43.35495" lon="-0.55723">
        <ele>122.71</ele>
        <time>2017-04-28T06:20:00Z</time>
      </trkpt>
      <trkpt lat="43.35449" lon="-0.55654">
        <ele>124.63</ele>
        <time>2017-04-28T06:20:15Z</time>
      </trkpt>
      <trkpt lat="43.3542" lon="-0.55575">
        <ele>123.67</ele>
        <time>2017-04-28T06:20:27Z</time>
      </trkpt>
      <trkpt lat="43.35415" lon="-0.55562">
        <ele>123.67</ele>
        <time>2017-04-28T06:20:29Z</time>
      </trkpt>
      <trkpt lat="43.35411" lon="-0.55556">
        <ele>123.67</ele>
        <time>2017-04-28T06:20:30Z</time>
      </trkpt>
      <trkpt lat="43.35404" lon="-0.55546">
        <ele>123.67</ele>
        <time>2017-04-28T06:20:32Z</time>
      </trkpt>
      <trkpt lat="43.35396" lon="-0.55538">
        <ele>123.67</ele>
        <time>2017-04-28T06:20:34Z</time>
      </trkpt>
      <trkpt lat="43.35381" lon="-0.55526">
        <ele>123.19</ele>
        <time>2017-04-28T06:20:37Z</time>
      </trkpt>
      <trkpt lat="43.35376" lon="-0.55523">
        <ele>122.71</ele>
        <time>2017-04-28T06:20:38Z</time>
      </trkpt>
      <trkpt lat="43.35322" lon="-0.55502">
        <ele>120.3</ele>
        <time>2017-04-28T06:20:46Z</time>
      </trkpt>
      <trkpt lat="43.35317" lon="-0.55496">
        <ele>120.3</ele>
        <time>2017-04-28T06:20:47Z</time>
      </trkpt>
      <trkpt lat="43.35312" lon="-0.5549">
        <ele>120.3</ele>
        <time>2017-04-28T06:20:48Z</time>
      </trkpt>
      <trkpt lat="43.35308" lon="-0.55484">
        <ele>120.78</ele>
        <time>2017-04-28T06:20:49Z</time>
      </trkpt>
      <trkpt lat="43.35304" lon="-0.55478">
        <ele>120.78</ele>
        <time>2017-04-28T06:20:50Z</time>
      </trkpt>
      <trkpt lat="43.35258" lon="-0.554">
        <ele>122.22</ele>
        <time>2017-04-28T06:21:05Z</time>
      </trkpt>
      <trkpt lat="43.35238" lon="-0.55369">
        <ele>122.22</ele>
        <time>2017-04-28T06:21:11Z</time>
      </trkpt>
      <trkpt lat="43.35226" lon="-0.55339">
        <ele>121.74</ele>
        <time>2017-04-28T06:21:16Z</time>
      </trkpt>
      <trkpt lat="43.35224" lon="-0.55334">
        <ele>121.74</ele>
        <time>2017-04-28T06:21:17Z</time>
      </trkpt>
      <trkpt lat="43.35223" lon="-0.55328">
        <ele>121.74</ele>
        <time>2017-04-28T06:21:18Z</time>
      </trkpt>
      <trkpt lat="43.35221" lon="-0.5531">
        <ele>122.22</ele>
        <time>2017-04-28T06:21:21Z</time>
      </trkpt>
      <trkpt lat="43.35219" lon="-0.5525">
        <ele>123.19</ele>
        <time>2017-04-28T06:21:32Z</time>
      </trkpt>
      <trkpt lat="43.35218" lon="-0.55245">
        <ele>123.19</ele>
        <time>2017-04-28T06:21:33Z</time>
      </trkpt>
      <trkpt lat="43.35217" lon="-0.55239">
        <ele>123.19</ele>
        <time>2017-04-28T06:21:34Z</time>
      </trkpt>
      <trkpt lat="43.35215" lon="-0.55233">
        <ele>123.19</ele>
        <time>2017-04-28T06:21:35Z</time>
      </trkpt>
      <trkpt lat="43.35213" lon="-0.55228">
        <ele>123.19</ele>
        <time>2017-04-28T06:21:36Z</time>
      </trkpt>
      <trkpt lat="43.35211" lon="-0.55222">
        <ele>123.67</ele>
        <time>2017-04-28T06:21:37Z</time>
      </trkpt>
      <trkpt lat="43.35206" lon="-0.55212">
        <ele>123.67</ele>
        <time>2017-04-28T06:21:39Z</time>
      </trkpt>
      <trkpt lat="43.35172" lon="-0.55155">
        <ele>125.59</ele>
        <time>2017-04-28T06:21:52Z</time>
      </trkpt>
      <trkpt lat="43.35152" lon="-0.55132">
        <ele>127.51</ele>
        <time>2017-04-28T06:21:58Z</time>
      </trkpt>
      <trkpt lat="43.35127" lon="-0.55118">
        <ele>128.47</ele>
        <time>2017-04-28T06:22:04Z</time>
      </trkpt>
      <trkpt lat="43.35123" lon="-0.55117">
        <ele>128.47</ele>
        <time>2017-04-28T06:22:05Z</time>
      </trkpt>
      <trkpt lat="43.35118" lon="-0.55115">
        <ele>128.95</ele>
        <time>2017-04-28T06:22:06Z</time>
      </trkpt>
      <trkpt lat="43.35114" lon="-0.55113">
        <ele>128.95</ele>
        <time>2017-04-28T06:22:07Z</time>
      </trkpt>
      <trkpt lat="43.3511" lon="-0.55111">
        <ele>128.95</ele>
        <time>2017-04-28T06:22:08Z</time>
      </trkpt>
      <trkpt lat="43.35106" lon="-0.55109">
        <ele>128.47</ele>
        <time>2017-04-28T06:22:09Z</time>
      </trkpt>
      <trkpt lat="43.35068" lon="-0.55086">
        <ele>127.03</ele>
        <time>2017-04-28T06:22:17Z</time>
      </trkpt>
      <trkpt lat="43.35063" lon="-0.55084">
        <ele>126.55</ele>
        <time>2017-04-28T06:22:18Z</time>
      </trkpt>
      <trkpt lat="43.35048" lon="-0.55077">
        <ele>125.59</ele>
        <time>2017-04-28T06:22:21Z</time>
      </trkpt>
      <trkpt lat="43.35029" lon="-0.55063">
        <ele>125.59</ele>
        <time>2017-04-28T06:22:25Z</time>
      </trkpt>
      <trkpt lat="43.34998" lon="-0.55024">
        <ele>125.11</ele>
        <time>2017-04-28T06:22:33Z</time>
      </trkpt>
      <trkpt lat="43.34987" lon="-0.5501">
        <ele>125.59</ele>
        <time>2017-04-28T06:22:36Z</time>
      </trkpt>
      <trkpt lat="43.34984" lon="-0.55006">
        <ele>125.59</ele>
        <time>2017-04-28T06:22:37Z</time>
      </trkpt>
      <trkpt lat="43.34962" lon="-0.54969">
        <ele>126.07</ele>
        <time>2017-04-28T06:22:44Z</time>
      </trkpt>
      <trkpt lat="43.34937" lon="-0.54924">
        <ele>128.95</ele>
        <time>2017-04-28T06:22:56Z</time>
      </trkpt>
      <trkpt lat="43.34911" lon="-0.54906">
        <ele>129.92</ele>
        <time>2017-04-28T06:23:06Z</time>
      </trkpt>
      <trkpt lat="43.34883" lon="-0.54895">
        <ele>129.92</ele>
        <time>2017-04-28T06:23:17Z</time>
      </trkpt>
      <trkpt lat="43.34853" lon="-0.54887">
        <ele>130.88</ele>
        <time>2017-04-28T06:23:28Z</time>
      </trkpt>
      <trkpt lat="43.34831" lon="-0.5486">
        <ele>128.95</ele>
        <time>2017-04-28T06:23:36Z</time>
      </trkpt>
      <trkpt lat="43.34829" lon="-0.54854">
        <ele>128.95</ele>
        <time>2017-04-28T06:23:37Z</time>
      </trkpt>
      <trkpt lat="43.34828" lon="-0.54849">
        <ele>128.95</ele>
        <time>2017-04-28T06:23:38Z</time>
      </trkpt>
      <trkpt lat="43.34828" lon="-0.54842">
        <ele>128.47</ele>
        <time>2017-04-28T06:23:39Z</time>
      </trkpt>
      <trkpt lat="43.34828" lon="-0.54838">
        <ele>127.99</ele>
        <time>2017-04-28T06:23:40Z</time>
      </trkpt>
      <trkpt lat="43.34829" lon="-0.54833">
        <ele>127.99</ele>
        <time>2017-04-28T06:23:41Z</time>
      </trkpt>
      <trkpt lat="43.34841" lon="-0.54798">
        <ele>128.47</ele>
        <time>2017-04-28T06:23:52Z</time>
      </trkpt>
      <trkpt lat="43.34849" lon="-0.5479">
        <ele>130.4</ele>
        <time>2017-04-28T06:23:57Z</time>
      </trkpt>
      <trkpt lat="43.3485" lon="-0.54789">
        <ele>130.88</ele>
        <time>2017-04-28T06:23:58Z</time>
      </trkpt>
      <trkpt lat="43.34851" lon="-0.54788">
        <ele>131.36</ele>
        <time>2017-04-28T06:23:59Z</time>
      </trkpt>
      <trkpt lat="43.34853" lon="-0.54786">
        <ele>131.84</ele>
        <time>2017-04-28T06:24:00Z</time>
      </trkpt>
      <trkpt lat="43.34854" lon="-0.54785">
        <ele>132.32</ele>
        <time>2017-04-28T06:24:01Z</time>
      </trkpt>
      <trkpt lat="43.34879" lon="-0.54764">
        <ele>138.57</ele>
        <time>2017-04-28T06:24:15Z</time>
      </trkpt>
      <trkpt lat="43.349" lon="-0.54737">
        <ele>140.49</ele>
        <time>2017-04-28T06:24:29Z</time>
      </trkpt>
      <trkpt lat="43.34915" lon="-0.54699">
        <ele>141.93</ele>
        <time>2017-04-28T06:24:45Z</time>
      </trkpt>
      <trkpt lat="43.34928" lon="-0.5466">
        <ele>142.41</ele>
        <time>2017-04-28T06:25:00Z</time>
      </trkpt>
      <trkpt lat="43.34929" lon="-0.54656">
        <ele>142.41</ele>
        <time>2017-04-28T06:25:02Z</time>
      </trkpt>
      <trkpt lat="43.3493" lon="-0.54654">
        <ele>142.41</ele>
        <time>2017-04-28T06:25:03Z</time>
      </trkpt>
      <trkpt lat="43.34931" lon="-0.54652">
        <ele>142.41</ele>
        <time>2017-04-28T06:25:04Z</time>
      </trkpt>
      <trkpt lat="43.34932" lon="-0.5465">
        <ele>142.41</ele>
        <time>2017-04-28T06:25:05Z</time>
      </trkpt>
      <trkpt lat="43.34933" lon="-0.54648">
        <ele>142.89</ele>
        <time>2017-04-28T06:25:06Z</time>
      </trkpt>
      <trkpt lat="43.34954" lon="-0.54635">
        <ele>145.3</ele>
        <time>2017-04-28T06:25:21Z</time>
      </trkpt>
      <trkpt lat="43.34976" lon="-0.54636">
        <ele>148.18</ele>
        <time>2017-04-28T06:25:36Z</time>
      </trkpt>
      <trkpt lat="43.34999" lon="-0.5464">
        <ele>151.06</ele>
        <time>2017-04-28T06:25:50Z</time>
      </trkpt>
      <trkpt lat="43.35023" lon="-0.54646">
        <ele>152.99</ele>
        <time>2017-04-28T06:26:06Z</time>
      </trkpt>
      <trkpt lat="43.35057" lon="-0.54649">
        <ele>157.79</ele>
        <time>2017-04-28T06:26:25Z</time>
      </trkpt>
      <trkpt lat="43.35081" lon="-0.54658">
        <ele>160.68</ele>
        <time>2017-04-28T06:26:41Z</time>
      </trkpt>
      <trkpt lat="43.35086" lon="-0.5466">
        <ele>161.64</ele>
        <time>2017-04-28T06:26:45Z</time>
      </trkpt>
      <trkpt lat="43.35088" lon="-0.5466">
        <ele>162.12</ele>
        <time>2017-04-28T06:26:46Z</time>
      </trkpt>
      <trkpt lat="43.3509" lon="-0.5466">
        <ele>162.6</ele>
        <time>2017-04-28T06:26:47Z</time>
      </trkpt>
      <trkpt lat="43.35092" lon="-0.54661">
        <ele>162.6</ele>
        <time>2017-04-28T06:26:48Z</time>
      </trkpt>
      <trkpt lat="43.35094" lon="-0.5466">
        <ele>163.08</ele>
        <time>2017-04-28T06:26:49Z</time>
      </trkpt>
      <trkpt lat="43.35095" lon="-0.5466">
        <ele>163.08</ele>
        <time>2017-04-28T06:26:50Z</time>
      </trkpt>
      <trkpt lat="43.35097" lon="-0.54658">
        <ele>163.08</ele>
        <time>2017-04-28T06:26:51Z</time>
      </trkpt>
      <trkpt lat="43.35099" lon="-0.54657">
        <ele>163.56</ele>
        <time>2017-04-28T06:26:52Z</time>
      </trkpt>
      <trkpt lat="43.35101" lon="-0.54655">
        <ele>164.04</ele>
        <time>2017-04-28T06:26:53Z</time>
      </trkpt>
      <trkpt lat="43.35103" lon="-0.54654">
        <ele>164.52</ele>
        <time>2017-04-28T06:26:54Z</time>
      </trkpt>
      <trkpt lat="43.35104" lon="-0.54652">
        <ele>164.52</ele>
        <time>2017-04-28T06:26:55Z</time>
      </trkpt>
      <trkpt lat="43.3511" lon="-0.54643">
        <ele>166.45</ele>
        <time>2017-04-28T06:26:59Z</time>
      </trkpt>
      <trkpt lat="43.35112" lon="-0.54641">
        <ele>166.93</ele>
        <time>2017-04-28T06:27:00Z</time>
      </trkpt>
      <trkpt lat="43.35114" lon="-0.54639">
        <ele>166.93</ele>
        <time>2017-04-28T06:27:01Z</time>
      </trkpt>
      <trkpt lat="43.35116" lon="-0.54637">
        <ele>167.41</ele>
        <time>2017-04-28T06:27:02Z</time>
      </trkpt>
      <trkpt lat="43.35118" lon="-0.54635">
        <ele>167.89</ele>
        <time>2017-04-28T06:27:03Z</time>
      </trkpt>
      <trkpt lat="43.3512" lon="-0.54634">
        <ele>167.89</ele>
        <time>2017-04-28T06:27:04Z</time>
      </trkpt>
      <trkpt lat="43.35121" lon="-0.54633">
        <ele>167.89</ele>
        <time>2017-04-28T06:27:05Z</time>
      </trkpt>
      <trkpt lat="43.35123" lon="-0.54633">
        <ele>167.89</ele>
        <time>2017-04-28T06:27:06Z</time>
      </trkpt>
      <trkpt lat="43.35125" lon="-0.54632">
        <ele>168.37</ele>
        <time>2017-04-28T06:27:07Z</time>
      </trkpt>
      <trkpt lat="43.35127" lon="-0.54631">
        <ele>168.37</ele>
        <time>2017-04-28T06:27:08Z</time>
      </trkpt>
      <trkpt lat="43.35129" lon="-0.5463">
        <ele>168.85</ele>
        <time>2017-04-28T06:27:09Z</time>
      </trkpt>
      <trkpt lat="43.3513" lon="-0.54629">
        <ele>168.85</ele>
        <time>2017-04-28T06:27:10Z</time>
      </trkpt>
      <trkpt lat="43.35132" lon="-0.54628">
        <ele>168.85</ele>
        <time>2017-04-28T06:27:11Z</time>
      </trkpt>
      <trkpt lat="43.35134" lon="-0.54628">
        <ele>168.85</ele>
        <time>2017-04-28T06:27:12Z</time>
      </trkpt>
      <trkpt lat="43.35136" lon="-0.54627">
        <ele>168.85</ele>
        <time>2017-04-28T06:27:13Z</time>
      </trkpt>
      <trkpt lat="43.35143" lon="-0.54622">
        <ele>169.33</ele>
        <time>2017-04-28T06:27:17Z</time>
      </trkpt>
      <trkpt lat="43.35144" lon="-0.54621">
        <ele>169.33</ele>
        <time>2017-04-28T06:27:18Z</time>
      </trkpt>
      <trkpt lat="43.35146" lon="-0.54619">
        <ele>169.33</ele>
        <time>2017-04-28T06:27:19Z</time>
      </trkpt>
      <trkpt lat="43.35147" lon="-0.54618">
        <ele>169.33</ele>
        <time>2017-04-28T06:27:20Z</time>
      </trkpt>
      <trkpt lat="43.35149" lon="-0.54616">
        <ele>169.33</ele>
        <time>2017-04-28T06:27:21Z</time>
      </trkpt>
      <trkpt lat="43.35158" lon="-0.54607">
        <ele>169.33</ele>
        <time>2017-04-28T06:27:26Z</time>
      </trkpt>
      <trkpt lat="43.35158" lon="-0.54605">
        <ele>169.81</ele>
        <time>2017-04-28T06:27:27Z</time>
      </trkpt>
      <trkpt lat="43.35158" lon="-0.54603">
        <ele>170.29</ele>
        <time>2017-04-28T06:27:28Z</time>
      </trkpt>
      <trkpt lat="43.35158" lon="-0.54601">
        <ele>170.29</ele>
        <time>2017-04-28T06:27:29Z</time>
      </trkpt>
      <trkpt lat="43.35159" lon="-0.54599">
        <ele>170.77</ele>
        <time>2017-04-28T06:27:30Z</time>
      </trkpt>
      <trkpt lat="43.35159" lon="-0.54597">
        <ele>171.25</ele>
        <time>2017-04-28T06:27:31Z</time>
      </trkpt>
      <trkpt lat="43.3516" lon="-0.54595">
        <ele>171.73</ele>
        <time>2017-04-28T06:27:32Z</time>
      </trkpt>
      <trkpt lat="43.3516" lon="-0.54592">
        <ele>172.21</ele>
        <time>2017-04-28T06:27:33Z</time>
      </trkpt>
      <trkpt lat="43.3516" lon="-0.5459">
        <ele>172.69</ele>
        <time>2017-04-28T06:27:34Z</time>
      </trkpt>
      <trkpt lat="43.35161" lon="-0.54587">
        <ele>172.69</ele>
        <time>2017-04-28T06:27:35Z</time>
      </trkpt>
      <trkpt lat="43.35161" lon="-0.54584">
        <ele>173.17</ele>
        <time>2017-04-28T06:27:36Z</time>
      </trkpt>
      <trkpt lat="43.35161" lon="-0.54582">
        <ele>173.66</ele>
        <time>2017-04-28T06:27:37Z</time>
      </trkpt>
      <trkpt lat="43.35161" lon="-0.54577">
        <ele>174.62</ele>
        <time>2017-04-28T06:27:39Z</time>
      </trkpt>
      <trkpt lat="43.3516" lon="-0.54574">
        <ele>174.62</ele>
        <time>2017-04-28T06:27:40Z</time>
      </trkpt>
      <trkpt lat="43.3516" lon="-0.54571">
        <ele>175.1</ele>
        <time>2017-04-28T06:27:41Z</time>
      </trkpt>
      <trkpt lat="43.35161" lon="-0.54567">
        <ele>175.1</ele>
        <time>2017-04-28T06:27:42Z</time>
      </trkpt>
      <trkpt lat="43.35161" lon="-0.54564">
        <ele>175.1</ele>
        <time>2017-04-28T06:27:43Z</time>
      </trkpt>
      <trkpt lat="43.35161" lon="-0.54561">
        <ele>175.1</ele>
        <time>2017-04-28T06:27:44Z</time>
      </trkpt>
      <trkpt lat="43.35161" lon="-0.54557">
        <ele>174.62</ele>
        <time>2017-04-28T06:27:45Z</time>
      </trkpt>
      <trkpt lat="43.35161" lon="-0.54553">
        <ele>174.14</ele>
        <time>2017-04-28T06:27:46Z</time>
      </trkpt>
      <trkpt lat="43.35162" lon="-0.54549">
        <ele>173.66</ele>
        <time>2017-04-28T06:27:47Z</time>
      </trkpt>
      <trkpt lat="43.35165" lon="-0.54506">
        <ele>174.14</ele>
        <time>2017-04-28T06:28:00Z</time>
      </trkpt>
      <trkpt lat="43.35169" lon="-0.54469">
        <ele>177.98</ele>
        <time>2017-04-28T06:28:15Z</time>
      </trkpt>
      <trkpt lat="43.35179" lon="-0.54433">
        <ele>179.9</ele>
        <time>2017-04-28T06:28:29Z</time>
      </trkpt>
      <trkpt lat="43.3519" lon="-0.54366">
        <ele>179.42</ele>
        <time>2017-04-28T06:28:44Z</time>
      </trkpt>
      <trkpt lat="43.35199" lon="-0.54324">
        <ele>177.98</ele>
        <time>2017-04-28T06:28:53Z</time>
      </trkpt>
      <trkpt lat="43.35201" lon="-0.54318">
        <ele>177.98</ele>
        <time>2017-04-28T06:28:54Z</time>
      </trkpt>
      <trkpt lat="43.35201" lon="-0.54312">
        <ele>177.98</ele>
        <time>2017-04-28T06:28:55Z</time>
      </trkpt>
      <trkpt lat="43.35201" lon="-0.54307">
        <ele>177.5</ele>
        <time>2017-04-28T06:28:56Z</time>
      </trkpt>
      <trkpt lat="43.352" lon="-0.54301">
        <ele>177.5</ele>
        <time>2017-04-28T06:28:57Z</time>
      </trkpt>
      <trkpt lat="43.35199" lon="-0.54296">
        <ele>177.5</ele>
        <time>2017-04-28T06:28:58Z</time>
      </trkpt>
      <trkpt lat="43.35187" lon="-0.54237">
        <ele>178.94</ele>
        <time>2017-04-28T06:29:13Z</time>
      </trkpt>
      <trkpt lat="43.35173" lon="-0.54194">
        <ele>181.83</ele>
        <time>2017-04-28T06:29:27Z</time>
      </trkpt>
      <trkpt lat="43.35173" lon="-0.54152">
        <ele>186.63</ele>
        <time>2017-04-28T06:29:44Z</time>
      </trkpt>
      <trkpt lat="43.35182" lon="-0.54117">
        <ele>190.96</ele>
        <time>2017-04-28T06:30:01Z</time>
      </trkpt>
      <trkpt lat="43.3519" lon="-0.54092">
        <ele>194.32</ele>
        <time>2017-04-28T06:30:14Z</time>
      </trkpt>
      <trkpt lat="43.35189" lon="-0.54067">
        <ele>197.69</ele>
        <time>2017-04-28T06:30:28Z</time>
      </trkpt>
      <trkpt lat="43.35175" lon="-0.54052">
        <ele>197.69</ele>
        <time>2017-04-28T06:30:41Z</time>
      </trkpt>
      <trkpt lat="43.35164" lon="-0.54043">
        <ele>200.57</ele>
        <time>2017-04-28T06:30:55Z</time>
      </trkpt>
      <trkpt lat="43.35154" lon="-0.54037">
        <ele>202.98</ele>
        <time>2017-04-28T06:31:11Z</time>
      </trkpt>
      <trkpt lat="43.35145" lon="-0.54035">
        <ele>206.82</ele>
        <time>2017-04-28T06:31:23Z</time>
      </trkpt>
      <trkpt lat="43.35131" lon="-0.54033">
        <ele>206.82</ele>
        <time>2017-04-28T06:31:38Z</time>
      </trkpt>
      <trkpt lat="43.35128" lon="-0.54034">
        <ele>209.22</ele>
        <time>2017-04-28T06:31:51Z</time>
      </trkpt>
      <trkpt lat="43.35125" lon="-0.54032">
        <ele>212.11</ele>
        <time>2017-04-28T06:32:06Z</time>
      </trkpt>
      <trkpt lat="43.35124" lon="-0.54023">
        <ele>215.47</ele>
        <time>2017-04-28T06:32:45Z</time>
      </trkpt>
      <trkpt lat="43.35123" lon="-0.54024">
        <ele>216.91</ele>
        <time>2017-04-28T06:33:16Z</time>
      </trkpt>
      <trkpt lat="43.35131" lon="-0.54023">
        <ele>215.47</ele>
        <time>2017-04-28T06:33:56Z</time>
      </trkpt>
      <trkpt lat="43.35133" lon="-0.54017">
        <ele>214.03</ele>
        <time>2017-04-28T06:34:42Z</time>
      </trkpt>
      <trkpt lat="43.35125" lon="-0.54023">
        <ele>213.55</ele>
        <time>2017-04-28T06:35:17Z</time>
      </trkpt>
      <trkpt lat="43.35127" lon="-0.54021">
        <ele>214.03</ele>
        <time>2017-04-28T06:35:49Z</time>
      </trkpt>
      <trkpt lat="43.35129" lon="-0.54025">
        <ele>211.63</ele>
        <time>2017-04-28T06:36:14Z</time>
      </trkpt>
      <trkpt lat="43.35128" lon="-0.54028">
        <ele>214.99</ele>
        <time>2017-04-28T06:36:43Z</time>
      </trkpt>
      <trkpt lat="43.35128" lon="-0.54021">
        <ele>214.99</ele>
        <time>2017-04-28T06:37:04Z</time>
      </trkpt>
      <trkpt lat="43.35126" lon="-0.54029">
        <ele>216.43</ele>
        <time>2017-04-28T06:37:23Z</time>
      </trkpt>
      <trkpt lat="43.35125" lon="-0.54032">
        <ele>215.47</ele>
        <time>2017-04-28T06:37:39Z</time>
      </trkpt>
      <trkpt lat="43.35125" lon="-0.54036">
        <ele>215.95</ele>
        <time>2017-04-28T06:38:09Z</time>
      </trkpt>
      <trkpt lat="43.35119" lon="-0.54032">
        <ele>214.51</ele>
        <time>2017-04-28T06:38:18Z</time>
      </trkpt>
      <trkpt lat="43.35117" lon="-0.54031">
        <ele>214.51</ele>
        <time>2017-04-28T06:38:33Z</time>
      </trkpt>
      <trkpt lat="43.35118" lon="-0.54029">
        <ele>214.03</ele>
        <time>2017-04-28T06:38:40Z</time>
      </trkpt>
      <trkpt lat="43.35116" lon="-0.54029">
        <ele>212.59</ele>
        <time>2017-04-28T06:38:55Z</time>
      </trkpt>
      <trkpt lat="43.35113" lon="-0.54025">
        <ele>212.59</ele>
        <time>2017-04-28T06:39:15Z</time>
      </trkpt>
      <trkpt lat="43.35121" lon="-0.54025">
        <ele>210.19</ele>
        <time>2017-04-28T06:39:41Z</time>
      </trkpt>
      <trkpt lat="43.35122" lon="-0.54025">
        <ele>210.19</ele>
        <time>2017-04-28T06:40:02Z</time>
      </trkpt>
      <trkpt lat="43.3512" lon="-0.54024">
        <ele>207.3</ele>
        <time>2017-04-28T06:40:29Z</time>
      </trkpt>
      <trkpt lat="43.35114" lon="-0.54034">
        <ele>208.26</ele>
        <time>2017-04-28T06:41:02Z</time>
      </trkpt>
      <trkpt lat="43.35115" lon="-0.54034">
        <ele>209.22</ele>
        <time>2017-04-28T06:41:06Z</time>
      </trkpt>
      <trkpt lat="43.35114" lon="-0.54032">
        <ele>209.22</ele>
        <time>2017-04-28T06:41:11Z</time>
      </trkpt>
      <trkpt lat="43.35113" lon="-0.54031">
        <ele>209.22</ele>
        <time>2017-04-28T06:41:12Z</time>
      </trkpt>
      <trkpt lat="43.35112" lon="-0.5403">
        <ele>209.7</ele>
        <time>2017-04-28T06:41:13Z</time>
      </trkpt>
      <trkpt lat="43.3511" lon="-0.54029">
        <ele>209.7</ele>
        <time>2017-04-28T06:41:14Z</time>
      </trkpt>
      <trkpt lat="43.35109" lon="-0.54028">
        <ele>209.7</ele>
        <time>2017-04-28T06:41:15Z</time>
      </trkpt>
      <trkpt lat="43.35101" lon="-0.54021">
        <ele>209.22</ele>
        <time>2017-04-28T06:41:23Z</time>
      </trkpt>
      <trkpt lat="43.35085" lon="-0.53983">
        <ele>207.78</ele>
        <time>2017-04-28T06:41:36Z</time>
      </trkpt>
      <trkpt lat="43.35071" lon="-0.53948">
        <ele>205.86</ele>
        <time>2017-04-28T06:41:47Z</time>
      </trkpt>
      <trkpt lat="43.35067" lon="-0.53911">
        <ele>205.86</ele>
        <time>2017-04-28T06:41:57Z</time>
      </trkpt>
      <trkpt lat="43.35064" lon="-0.53861">
        <ele>207.3</ele>
        <time>2017-04-28T06:42:07Z</time>
      </trkpt>
      <trkpt lat="43.35056" lon="-0.53811">
        <ele>208.74</ele>
        <time>2017-04-28T06:42:17Z</time>
      </trkpt>
      <trkpt lat="43.35054" lon="-0.53804">
        <ele>208.26</ele>
        <time>2017-04-28T06:42:18Z</time>
      </trkpt>
      <trkpt lat="43.35052" lon="-0.53796">
        <ele>208.26</ele>
        <time>2017-04-28T06:42:19Z</time>
      </trkpt>
      <trkpt lat="43.3505" lon="-0.53787">
        <ele>207.78</ele>
        <time>2017-04-28T06:42:20Z</time>
      </trkpt>
      <trkpt lat="43.35049" lon="-0.53778">
        <ele>206.34</ele>
        <time>2017-04-28T06:42:21Z</time>
      </trkpt>
      <trkpt lat="43.35041" lon="-0.53723">
        <ele>199.61</ele>
        <time>2017-04-28T06:42:29Z</time>
      </trkpt>
      <trkpt lat="43.35038" lon="-0.53718">
        <ele>198.65</ele>
        <time>2017-04-28T06:42:31Z</time>
      </trkpt>
      <trkpt lat="43.35036" lon="-0.53717">
        <ele>197.69</ele>
        <time>2017-04-28T06:42:32Z</time>
      </trkpt>
      <trkpt lat="43.35034" lon="-0.53718">
        <ele>197.21</ele>
        <time>2017-04-28T06:42:33Z</time>
      </trkpt>
      <trkpt lat="43.35029" lon="-0.5372">
        <ele>195.28</ele>
        <time>2017-04-28T06:42:35Z</time>
      </trkpt>
      <trkpt lat="43.35026" lon="-0.53723">
        <ele>194.32</ele>
        <time>2017-04-28T06:42:36Z</time>
      </trkpt>
      <trkpt lat="43.34993" lon="-0.53761">
        <ele>185.19</ele>
        <time>2017-04-28T06:42:45Z</time>
      </trkpt>
      <trkpt lat="43.34989" lon="-0.53764">
        <ele>184.71</ele>
        <time>2017-04-28T06:42:46Z</time>
      </trkpt>
      <trkpt lat="43.34982" lon="-0.53775">
        <ele>181.83</ele>
        <time>2017-04-28T06:42:49Z</time>
      </trkpt>
      <trkpt lat="43.34975" lon="-0.53783">
        <ele>179.9</ele>
        <time>2017-04-28T06:42:51Z</time>
      </trkpt>
      <trkpt lat="43.34973" lon="-0.53788">
        <ele>178.94</ele>
        <time>2017-04-28T06:42:52Z</time>
      </trkpt>
      <trkpt lat="43.34971" lon="-0.53795">
        <ele>177.98</ele>
        <time>2017-04-28T06:42:53Z</time>
      </trkpt>
      <trkpt lat="43.3497" lon="-0.53804">
        <ele>177.02</ele>
        <time>2017-04-28T06:42:54Z</time>
      </trkpt>
      <trkpt lat="43.3497" lon="-0.53812">
        <ele>176.54</ele>
        <time>2017-04-28T06:42:55Z</time>
      </trkpt>
      <trkpt lat="43.34971" lon="-0.53821">
        <ele>176.06</ele>
        <time>2017-04-28T06:42:56Z</time>
      </trkpt>
      <trkpt lat="43.34972" lon="-0.53892">
        <ele>173.66</ele>
        <time>2017-04-28T06:43:06Z</time>
      </trkpt>
      <trkpt lat="43.34972" lon="-0.53898">
        <ele>173.66</ele>
        <time>2017-04-28T06:43:07Z</time>
      </trkpt>
      <trkpt lat="43.34988" lon="-0.53955">
        <ele>173.17</ele>
        <time>2017-04-28T06:43:19Z</time>
      </trkpt>
      <trkpt lat="43.34997" lon="-0.53989">
        <ele>173.66</ele>
        <time>2017-04-28T06:43:27Z</time>
      </trkpt>
      <trkpt lat="43.35001" lon="-0.54013">
        <ele>173.17</ele>
        <time>2017-04-28T06:43:30Z</time>
      </trkpt>
      <trkpt lat="43.35001" lon="-0.54022">
        <ele>173.17</ele>
        <time>2017-04-28T06:43:31Z</time>
      </trkpt>
      <trkpt lat="43.35001" lon="-0.54031">
        <ele>173.17</ele>
        <time>2017-04-28T06:43:32Z</time>
      </trkpt>
      <trkpt lat="43.34999" lon="-0.5404">
        <ele>173.17</ele>
        <time>2017-04-28T06:43:33Z</time>
      </trkpt>
      <trkpt lat="43.34997" lon="-0.54049">
        <ele>173.17</ele>
        <time>2017-04-28T06:43:34Z</time>
      </trkpt>
      <trkpt lat="43.34995" lon="-0.54058">
        <ele>173.17</ele>
        <time>2017-04-28T06:43:35Z</time>
      </trkpt>
      <trkpt lat="43.34993" lon="-0.54066">
        <ele>173.17</ele>
        <time>2017-04-28T06:43:36Z</time>
      </trkpt>
      <trkpt lat="43.34992" lon="-0.54076">
        <ele>173.17</ele>
        <time>2017-04-28T06:43:37Z</time>
      </trkpt>
      <trkpt lat="43.3499" lon="-0.54152">
        <ele>173.17</ele>
        <time>2017-04-28T06:43:46Z</time>
      </trkpt>
      <trkpt lat="43.34991" lon="-0.54159">
        <ele>173.17</ele>
        <time>2017-04-28T06:43:47Z</time>
      </trkpt>
      <trkpt lat="43.34993" lon="-0.54166">
        <ele>173.66</ele>
        <time>2017-04-28T06:43:48Z</time>
      </trkpt>
      <trkpt lat="43.34995" lon="-0.54173">
        <ele>173.66</ele>
        <time>2017-04-28T06:43:49Z</time>
      </trkpt>
      <trkpt lat="43.34997" lon="-0.5418">
        <ele>173.17</ele>
        <time>2017-04-28T06:43:50Z</time>
      </trkpt>
      <trkpt lat="43.35" lon="-0.54187">
        <ele>173.17</ele>
        <time>2017-04-28T06:43:51Z</time>
      </trkpt>
      <trkpt lat="43.35008" lon="-0.54215">
        <ele>171.25</ele>
        <time>2017-04-28T06:43:55Z</time>
      </trkpt>
      <trkpt lat="43.35008" lon="-0.54221">
        <ele>171.25</ele>
        <time>2017-04-28T06:43:56Z</time>
      </trkpt>
      <trkpt lat="43.35008" lon="-0.54227">
        <ele>170.29</ele>
        <time>2017-04-28T06:43:57Z</time>
      </trkpt>
      <trkpt lat="43.35007" lon="-0.54233">
        <ele>169.81</ele>
        <time>2017-04-28T06:43:58Z</time>
      </trkpt>
      <trkpt lat="43.35004" lon="-0.54239">
        <ele>168.85</ele>
        <time>2017-04-28T06:43:59Z</time>
      </trkpt>
      <trkpt lat="43.35001" lon="-0.54244">
        <ele>167.89</ele>
        <time>2017-04-28T06:44:00Z</time>
      </trkpt>
      <trkpt lat="43.34996" lon="-0.5425">
        <ele>166.93</ele>
        <time>2017-04-28T06:44:01Z</time>
      </trkpt>
      <trkpt lat="43.34925" lon="-0.54339">
        <ele>156.83</ele>
        <time>2017-04-28T06:44:12Z</time>
      </trkpt>
      <trkpt lat="43.34912" lon="-0.54357">
        <ele>156.35</ele>
        <time>2017-04-28T06:44:14Z</time>
      </trkpt>
      <trkpt lat="43.34906" lon="-0.54363">
        <ele>155.87</ele>
        <time>2017-04-28T06:44:15Z</time>
      </trkpt>
      <trkpt lat="43.349" lon="-0.54368">
        <ele>155.87</ele>
        <time>2017-04-28T06:44:16Z</time>
      </trkpt>
      <trkpt lat="43.34894" lon="-0.5437">
        <ele>155.87</ele>
        <time>2017-04-28T06:44:17Z</time>
      </trkpt>
      <trkpt lat="43.34887" lon="-0.54372">
        <ele>155.39</ele>
        <time>2017-04-28T06:44:18Z</time>
      </trkpt>
      <trkpt lat="43.34881" lon="-0.54373">
        <ele>155.39</ele>
        <time>2017-04-28T06:44:19Z</time>
      </trkpt>
      <trkpt lat="43.34874" lon="-0.54375">
        <ele>154.91</ele>
        <time>2017-04-28T06:44:20Z</time>
      </trkpt>
      <trkpt lat="43.34867" lon="-0.54377">
        <ele>154.91</ele>
        <time>2017-04-28T06:44:21Z</time>
      </trkpt>
      <trkpt lat="43.3486" lon="-0.54382">
        <ele>154.43</ele>
        <time>2017-04-28T06:44:22Z</time>
      </trkpt>
      <trkpt lat="43.34854" lon="-0.54387">
        <ele>154.43</ele>
        <time>2017-04-28T06:44:23Z</time>
      </trkpt>
      <trkpt lat="43.3478" lon="-0.5447">
        <ele>150.58</ele>
        <time>2017-04-28T06:44:36Z</time>
      </trkpt>
      <trkpt lat="43.34702" lon="-0.54556">
        <ele>142.89</ele>
        <time>2017-04-28T06:44:47Z</time>
      </trkpt>
      <trkpt lat="43.34661" lon="-0.54606">
        <ele>138.09</ele>
        <time>2017-04-28T06:44:55Z</time>
      </trkpt>
      <trkpt lat="43.34652" lon="-0.54619">
        <ele>137.13</ele>
        <time>2017-04-28T06:44:59Z</time>
      </trkpt>
      <trkpt lat="43.34651" lon="-0.54619">
        <ele>137.13</ele>
        <time>2017-04-28T06:45:00Z</time>
      </trkpt>
      <trkpt lat="43.34649" lon="-0.54619">
        <ele>137.13</ele>
        <time>2017-04-28T06:45:01Z</time>
      </trkpt>
      <trkpt lat="43.34647" lon="-0.54617">
        <ele>137.13</ele>
        <time>2017-04-28T06:45:02Z</time>
      </trkpt>
      <trkpt lat="43.34647" lon="-0.54615">
        <ele>137.13</ele>
        <time>2017-04-28T06:45:03Z</time>
      </trkpt>
      <trkpt lat="43.34647" lon="-0.54612">
        <ele>137.13</ele>
        <time>2017-04-28T06:45:04Z</time>
      </trkpt>
      <trkpt lat="43.34647" lon="-0.54609">
        <ele>137.13</ele>
        <time>2017-04-28T06:45:05Z</time>
      </trkpt>
      <trkpt lat="43.34656" lon="-0.54566">
        <ele>136.64</ele>
        <time>2017-04-28T06:45:15Z</time>
      </trkpt>
      <trkpt lat="43.34657" lon="-0.54561">
        <ele>136.64</ele>
        <time>2017-04-28T06:45:16Z</time>
      </trkpt>
      <trkpt lat="43.34659" lon="-0.54549">
        <ele>137.13</ele>
        <time>2017-04-28T06:45:18Z</time>
      </trkpt>
      <trkpt lat="43.34663" lon="-0.54507">
        <ele>139.05</ele>
        <time>2017-04-28T06:45:25Z</time>
      </trkpt>
      <trkpt lat="43.34664" lon="-0.54501">
        <ele>139.53</ele>
        <time>2017-04-28T06:45:26Z</time>
      </trkpt>
      <trkpt lat="43.34677" lon="-0.54418">
        <ele>140.49</ele>
        <time>2017-04-28T06:45:38Z</time>
      </trkpt>
      <trkpt lat="43.34678" lon="-0.54411">
        <ele>140.49</ele>
        <time>2017-04-28T06:45:39Z</time>
      </trkpt>
      <trkpt lat="43.34677" lon="-0.54405">
        <ele>140.49</ele>
        <time>2017-04-28T06:45:40Z</time>
      </trkpt>
      <trkpt lat="43.34676" lon="-0.54399">
        <ele>140.97</ele>
        <time>2017-04-28T06:45:41Z</time>
      </trkpt>
      <trkpt lat="43.34674" lon="-0.54395">
        <ele>140.97</ele>
        <time>2017-04-28T06:45:42Z</time>
      </trkpt>
      <trkpt lat="43.34673" lon="-0.5439">
        <ele>141.45</ele>
        <time>2017-04-28T06:45:43Z</time>
      </trkpt>
      <trkpt lat="43.34673" lon="-0.54386">
        <ele>141.45</ele>
        <time>2017-04-28T06:45:44Z</time>
      </trkpt>
      <trkpt lat="43.34674" lon="-0.54382">
        <ele>141.93</ele>
        <time>2017-04-28T06:45:45Z</time>
      </trkpt>
      <trkpt lat="43.34675" lon="-0.54379">
        <ele>141.45</ele>
        <time>2017-04-28T06:45:46Z</time>
      </trkpt>
      <trkpt lat="43.34677" lon="-0.54371">
        <ele>141.93</ele>
        <time>2017-04-28T06:45:49Z</time>
      </trkpt>
      <trkpt lat="43.34685" lon="-0.54354">
        <ele>144.34</ele>
        <time>2017-04-28T06:45:56Z</time>
      </trkpt>
      <trkpt lat="43.34685" lon="-0.54352">
        <ele>144.34</ele>
        <time>2017-04-28T06:45:57Z</time>
      </trkpt>
      <trkpt lat="43.34685" lon="-0.5435">
        <ele>144.82</ele>
        <time>2017-04-28T06:45:58Z</time>
      </trkpt>
      <trkpt lat="43.34686" lon="-0.54348">
        <ele>145.3</ele>
        <time>2017-04-28T06:45:59Z</time>
      </trkpt>
      <trkpt lat="43.34686" lon="-0.54346">
        <ele>145.78</ele>
        <time>2017-04-28T06:46:00Z</time>
      </trkpt>
      <trkpt lat="43.34687" lon="-0.54344">
        <ele>146.26</ele>
        <time>2017-04-28T06:46:01Z</time>
      </trkpt>
      <trkpt lat="43.34688" lon="-0.54342">
        <ele>146.74</ele>
        <time>2017-04-28T06:46:02Z</time>
      </trkpt>
      <trkpt lat="43.34689" lon="-0.54339">
        <ele>147.22</ele>
        <time>2017-04-28T06:46:03Z</time>
      </trkpt>
      <trkpt lat="43.3469" lon="-0.54337">
        <ele>147.7</ele>
        <time>2017-04-28T06:46:04Z</time>
      </trkpt>
      <trkpt lat="43.34692" lon="-0.54331">
        <ele>148.66</ele>
        <time>2017-04-28T06:46:07Z</time>
      </trkpt>
      <trkpt lat="43.34694" lon="-0.54323">
        <ele>150.1</ele>
        <time>2017-04-28T06:46:11Z</time>
      </trkpt>
      <trkpt lat="43.34694" lon="-0.5432">
        <ele>150.58</ele>
        <time>2017-04-28T06:46:12Z</time>
      </trkpt>
      <trkpt lat="43.34694" lon="-0.54318">
        <ele>151.06</ele>
        <time>2017-04-28T06:46:13Z</time>
      </trkpt>
      <trkpt lat="43.34695" lon="-0.54317">
        <ele>151.54</ele>
        <time>2017-04-28T06:46:14Z</time>
      </trkpt>
      <trkpt lat="43.34697" lon="-0.5431">
        <ele>152.51</ele>
        <time>2017-04-28T06:46:18Z</time>
      </trkpt>
      <trkpt lat="43.34697" lon="-0.54308">
        <ele>152.99</ele>
        <time>2017-04-28T06:46:19Z</time>
      </trkpt>
      <trkpt lat="43.34698" lon="-0.54306">
        <ele>152.99</ele>
        <time>2017-04-28T06:46:20Z</time>
      </trkpt>
      <trkpt lat="43.34701" lon="-0.54282">
        <ele>153.47</ele>
        <time>2017-04-28T06:46:31Z</time>
      </trkpt>
      <trkpt lat="43.34702" lon="-0.5428">
        <ele>153.47</ele>
        <time>2017-04-28T06:46:32Z</time>
      </trkpt>
      <trkpt lat="43.34702" lon="-0.54279">
        <ele>153.47</ele>
        <time>2017-04-28T06:46:33Z</time>
      </trkpt>
      <trkpt lat="43.34702" lon="-0.54277">
        <ele>153.95</ele>
        <time>2017-04-28T06:46:34Z</time>
      </trkpt>
      <trkpt lat="43.34702" lon="-0.54275">
        <ele>154.43</ele>
        <time>2017-04-28T06:46:35Z</time>
      </trkpt>
      <trkpt lat="43.34703" lon="-0.54273">
        <ele>154.43</ele>
        <time>2017-04-28T06:46:36Z</time>
      </trkpt>
      <trkpt lat="43.34711" lon="-0.54244">
        <ele>156.83</ele>
        <time>2017-04-28T06:46:51Z</time>
      </trkpt>
      <trkpt lat="43.34709" lon="-0.54218">
        <ele>159.72</ele>
        <time>2017-04-28T06:47:04Z</time>
      </trkpt>
      <trkpt lat="43.34709" lon="-0.54216">
        <ele>159.72</ele>
        <time>2017-04-28T06:47:05Z</time>
      </trkpt>
      <trkpt lat="43.34705" lon="-0.54214">
        <ele>160.68</ele>
        <time>2017-04-28T06:47:08Z</time>
      </trkpt>
      <trkpt lat="43.34689" lon="-0.54219">
        <ele>162.12</ele>
        <time>2017-04-28T06:47:19Z</time>
      </trkpt>
      <trkpt lat="43.34688" lon="-0.5422">
        <ele>162.12</ele>
        <time>2017-04-28T06:47:20Z</time>
      </trkpt>
      <trkpt lat="43.34686" lon="-0.54221">
        <ele>162.6</ele>
        <time>2017-04-28T06:47:21Z</time>
      </trkpt>
      <trkpt lat="43.34685" lon="-0.54222">
        <ele>162.6</ele>
        <time>2017-04-28T06:47:22Z</time>
      </trkpt>
      <trkpt lat="43.34684" lon="-0.54222">
        <ele>162.6</ele>
        <time>2017-04-28T06:47:23Z</time>
      </trkpt>
      <trkpt lat="43.34682" lon="-0.54223">
        <ele>163.08</ele>
        <time>2017-04-28T06:47:24Z</time>
      </trkpt>
      <trkpt lat="43.34676" lon="-0.54227">
        <ele>164.04</ele>
        <time>2017-04-28T06:47:29Z</time>
      </trkpt>
      <trkpt lat="43.34675" lon="-0.54228">
        <ele>164.04</ele>
        <time>2017-04-28T06:47:30Z</time>
      </trkpt>
      <trkpt lat="43.34673" lon="-0.54228">
        <ele>164.52</ele>
        <time>2017-04-28T06:47:31Z</time>
      </trkpt>
      <trkpt lat="43.34671" lon="-0.54229">
        <ele>164.52</ele>
        <time>2017-04-28T06:47:32Z</time>
      </trkpt>
      <trkpt lat="43.3467" lon="-0.54229">
        <ele>164.52</ele>
        <time>2017-04-28T06:47:33Z</time>
      </trkpt>
      <trkpt lat="43.34668" lon="-0.5423">
        <ele>164.52</ele>
        <time>2017-04-28T06:47:34Z</time>
      </trkpt>
      <trkpt lat="43.34647" lon="-0.5424">
        <ele>166.45</ele>
        <time>2017-04-28T06:47:47Z</time>
      </trkpt>
      <trkpt lat="43.34632" lon="-0.54248">
        <ele>168.37</ele>
        <time>2017-04-28T06:48:00Z</time>
      </trkpt>
      <trkpt lat="43.34614" lon="-0.54256">
        <ele>170.77</ele>
        <time>2017-04-28T06:48:13Z</time>
      </trkpt>
      <trkpt lat="43.34592" lon="-0.54258">
        <ele>169.81</ele>
        <time>2017-04-28T06:48:25Z</time>
      </trkpt>
      <trkpt lat="43.34564" lon="-0.54247">
        <ele>170.29</ele>
        <time>2017-04-28T06:48:40Z</time>
      </trkpt>
      <trkpt lat="43.34559" lon="-0.5424">
        <ele>170.29</ele>
        <time>2017-04-28T06:48:44Z</time>
      </trkpt>
      <trkpt lat="43.34558" lon="-0.54237">
        <ele>170.29</ele>
        <time>2017-04-28T06:48:45Z</time>
      </trkpt>
      <trkpt lat="43.34558" lon="-0.54235">
        <ele>170.29</ele>
        <time>2017-04-28T06:48:46Z</time>
      </trkpt>
      <trkpt lat="43.34565" lon="-0.54208">
        <ele>171.73</ele>
        <time>2017-04-28T06:49:00Z</time>
      </trkpt>
      <trkpt lat="43.34581" lon="-0.54183">
        <ele>176.54</ele>
        <time>2017-04-28T06:49:14Z</time>
      </trkpt>
      <trkpt lat="43.3458" lon="-0.54168">
        <ele>176.54</ele>
        <time>2017-04-28T06:49:20Z</time>
      </trkpt>
      <trkpt lat="43.34578" lon="-0.54167">
        <ele>176.54</ele>
        <time>2017-04-28T06:49:21Z</time>
      </trkpt>
      <trkpt lat="43.34577" lon="-0.54166">
        <ele>177.02</ele>
        <time>2017-04-28T06:49:22Z</time>
      </trkpt>
      <trkpt lat="43.34576" lon="-0.54164">
        <ele>177.5</ele>
        <time>2017-04-28T06:49:23Z</time>
      </trkpt>
      <trkpt lat="43.34575" lon="-0.54163">
        <ele>177.98</ele>
        <time>2017-04-28T06:49:24Z</time>
      </trkpt>
      <trkpt lat="43.34564" lon="-0.54149">
        <ele>183.27</ele>
        <time>2017-04-28T06:49:36Z</time>
      </trkpt>
      <trkpt lat="43.34548" lon="-0.54136">
        <ele>186.63</ele>
        <time>2017-04-28T06:49:49Z</time>
      </trkpt>
      <trkpt lat="43.34546" lon="-0.54135">
        <ele>186.63</ele>
        <time>2017-04-28T06:49:50Z</time>
      </trkpt>
      <trkpt lat="43.34543" lon="-0.54133">
        <ele>187.59</ele>
        <time>2017-04-28T06:49:52Z</time>
      </trkpt>
      <trkpt lat="43.3454" lon="-0.54132">
        <ele>187.59</ele>
        <time>2017-04-28T06:49:53Z</time>
      </trkpt>
      <trkpt lat="43.34538" lon="-0.54131">
        <ele>188.08</ele>
        <time>2017-04-28T06:49:54Z</time>
      </trkpt>
      <trkpt lat="43.34536" lon="-0.5413">
        <ele>188.08</ele>
        <time>2017-04-28T06:49:55Z</time>
      </trkpt>
      <trkpt lat="43.34516" lon="-0.54121">
        <ele>190.96</ele>
        <time>2017-04-28T06:50:05Z</time>
      </trkpt>
      <trkpt lat="43.34493" lon="-0.54109">
        <ele>192.4</ele>
        <time>2017-04-28T06:50:17Z</time>
      </trkpt>
      <trkpt lat="43.34473" lon="-0.54091">
        <ele>193.36</ele>
        <time>2017-04-28T06:50:29Z</time>
      </trkpt>
      <trkpt lat="43.34467" lon="-0.54081">
        <ele>193.84</ele>
        <time>2017-04-28T06:50:33Z</time>
      </trkpt>
      <trkpt lat="43.34467" lon="-0.54079">
        <ele>193.84</ele>
        <time>2017-04-28T06:50:34Z</time>
      </trkpt>
      <trkpt lat="43.34467" lon="-0.54077">
        <ele>193.84</ele>
        <time>2017-04-28T06:50:35Z</time>
      </trkpt>
      <trkpt lat="43.34468" lon="-0.54076">
        <ele>193.84</ele>
        <time>2017-04-28T06:50:36Z</time>
      </trkpt>
      <trkpt lat="43.34469" lon="-0.54075">
        <ele>193.84</ele>
        <time>2017-04-28T06:50:37Z</time>
      </trkpt>
      <trkpt lat="43.3447" lon="-0.54073">
        <ele>193.84</ele>
        <time>2017-04-28T06:50:38Z</time>
      </trkpt>
      <trkpt lat="43.34471" lon="-0.54072">
        <ele>194.32</ele>
        <time>2017-04-28T06:50:39Z</time>
      </trkpt>
      <trkpt lat="43.34473" lon="-0.5407">
        <ele>194.32</ele>
        <time>2017-04-28T06:50:40Z</time>
      </trkpt>
      <trkpt lat="43.34489" lon="-0.54059">
        <ele>195.77</ele>
        <time>2017-04-28T06:50:51Z</time>
      </trkpt>
      <trkpt lat="43.34506" lon="-0.54047">
        <ele>200.57</ele>
        <time>2017-04-28T06:51:05Z</time>
      </trkpt>
      <trkpt lat="43.34517" lon="-0.54027">
        <ele>199.13</ele>
        <time>2017-04-28T06:51:18Z</time>
      </trkpt>
      <trkpt lat="43.34527" lon="-0.54003">
        <ele>198.65</ele>
        <time>2017-04-28T06:51:28Z</time>
      </trkpt>
      <trkpt lat="43.34528" lon="-0.54">
        <ele>199.13</ele>
        <time>2017-04-28T06:51:29Z</time>
      </trkpt>
      <trkpt lat="43.34528" lon="-0.53997">
        <ele>199.61</ele>
        <time>2017-04-28T06:51:30Z</time>
      </trkpt>
      <trkpt lat="43.34529" lon="-0.53994">
        <ele>199.61</ele>
        <time>2017-04-28T06:51:31Z</time>
      </trkpt>
      <trkpt lat="43.3453" lon="-0.53991">
        <ele>200.57</ele>
        <time>2017-04-28T06:51:32Z</time>
      </trkpt>
      <trkpt lat="43.34531" lon="-0.53988">
        <ele>201.05</ele>
        <time>2017-04-28T06:51:33Z</time>
      </trkpt>
      <trkpt lat="43.34532" lon="-0.53985">
        <ele>201.05</ele>
        <time>2017-04-28T06:51:34Z</time>
      </trkpt>
      <trkpt lat="43.34532" lon="-0.53982">
        <ele>201.53</ele>
        <time>2017-04-28T06:51:35Z</time>
      </trkpt>
      <trkpt lat="43.34532" lon="-0.53979">
        <ele>202.01</ele>
        <time>2017-04-28T06:51:36Z</time>
      </trkpt>
      <trkpt lat="43.34532" lon="-0.53976">
        <ele>202.49</ele>
        <time>2017-04-28T06:51:37Z</time>
      </trkpt>
      <trkpt lat="43.34532" lon="-0.53974">
        <ele>202.49</ele>
        <time>2017-04-28T06:51:38Z</time>
      </trkpt>
      <trkpt lat="43.34532" lon="-0.53972">
        <ele>202.98</ele>
        <time>2017-04-28T06:51:39Z</time>
      </trkpt>
      <trkpt lat="43.34532" lon="-0.53969">
        <ele>202.98</ele>
        <time>2017-04-28T06:51:40Z</time>
      </trkpt>
      <trkpt lat="43.34533" lon="-0.53966">
        <ele>203.46</ele>
        <time>2017-04-28T06:51:41Z</time>
      </trkpt>
      <trkpt lat="43.34533" lon="-0.53963">
        <ele>203.46</ele>
        <time>2017-04-28T06:51:42Z</time>
      </trkpt>
      <trkpt lat="43.34531" lon="-0.53952">
        <ele>204.9</ele>
        <time>2017-04-28T06:51:47Z</time>
      </trkpt>
      <trkpt lat="43.34531" lon="-0.5395">
        <ele>205.38</ele>
        <time>2017-04-28T06:51:48Z</time>
      </trkpt>
      <trkpt lat="43.34528" lon="-0.5393">
        <ele>208.26</ele>
        <time>2017-04-28T06:51:59Z</time>
      </trkpt>
      <trkpt lat="43.34527" lon="-0.53928">
        <ele>208.26</ele>
        <time>2017-04-28T06:52:00Z</time>
      </trkpt>
      <trkpt lat="43.34526" lon="-0.53926">
        <ele>208.74</ele>
        <time>2017-04-28T06:52:01Z</time>
      </trkpt>
      <trkpt lat="43.34526" lon="-0.53923">
        <ele>210.19</ele>
        <time>2017-04-28T06:52:03Z</time>
      </trkpt>
      <trkpt lat="43.34523" lon="-0.53891">
        <ele>216.43</ele>
        <time>2017-04-28T06:52:19Z</time>
      </trkpt>
      <trkpt lat="43.34517" lon="-0.53859">
        <ele>216.43</ele>
        <time>2017-04-28T06:52:31Z</time>
      </trkpt>
      <trkpt lat="43.34528" lon="-0.53818">
        <ele>219.8</ele>
        <time>2017-04-28T06:52:44Z</time>
      </trkpt>
      <trkpt lat="43.34538" lon="-0.53775">
        <ele>220.28</ele>
        <time>2017-04-28T06:52:57Z</time>
      </trkpt>
      <trkpt lat="43.34548" lon="-0.53751">
        <ele>222.2</ele>
        <time>2017-04-28T06:53:09Z</time>
      </trkpt>
      <trkpt lat="43.34558" lon="-0.53722">
        <ele>223.16</ele>
        <time>2017-04-28T06:53:23Z</time>
      </trkpt>
      <trkpt lat="43.34567" lon="-0.53687">
        <ele>225.57</ele>
        <time>2017-04-28T06:53:38Z</time>
      </trkpt>
      <trkpt lat="43.34584" lon="-0.53661">
        <ele>235.66</ele>
        <time>2017-04-28T06:53:52Z</time>
      </trkpt>
      <trkpt lat="43.34594" lon="-0.5365">
        <ele>234.7</ele>
        <time>2017-04-28T06:53:58Z</time>
      </trkpt>
      <trkpt lat="43.34597" lon="-0.53647">
        <ele>234.7</ele>
        <time>2017-04-28T06:53:59Z</time>
      </trkpt>
      <trkpt lat="43.34616" lon="-0.53623">
        <ele>235.66</ele>
        <time>2017-04-28T06:54:04Z</time>
      </trkpt>
      <trkpt lat="43.3462" lon="-0.53615">
        <ele>235.66</ele>
        <time>2017-04-28T06:54:05Z</time>
      </trkpt>
      <trkpt lat="43.34642" lon="-0.53563">
        <ele>236.14</ele>
        <time>2017-04-28T06:54:11Z</time>
      </trkpt>
      <trkpt lat="43.34645" lon="-0.53553">
        <ele>235.66</ele>
        <time>2017-04-28T06:54:12Z</time>
      </trkpt>
      <trkpt lat="43.34688" lon="-0.53438">
        <ele>227.01</ele>
        <time>2017-04-28T06:54:22Z</time>
      </trkpt>
      <trkpt lat="43.34699" lon="-0.53406">
        <ele>224.61</ele>
        <time>2017-04-28T06:54:25Z</time>
      </trkpt>
      <trkpt lat="43.34701" lon="-0.53395">
        <ele>223.64</ele>
        <time>2017-04-28T06:54:26Z</time>
      </trkpt>
      <trkpt lat="43.34709" lon="-0.53333">
        <ele>221.24</ele>
        <time>2017-04-28T06:54:32Z</time>
      </trkpt>
      <trkpt lat="43.34712" lon="-0.53324">
        <ele>220.76</ele>
        <time>2017-04-28T06:54:33Z</time>
      </trkpt>
      <trkpt lat="43.3472" lon="-0.53299">
        <ele>218.84</ele>
        <time>2017-04-28T06:54:36Z</time>
      </trkpt>
      <trkpt lat="43.34729" lon="-0.53265">
        <ele>214.51</ele>
        <time>2017-04-28T06:54:41Z</time>
      </trkpt>
      <trkpt lat="43.34731" lon="-0.5326">
        <ele>214.03</ele>
        <time>2017-04-28T06:54:42Z</time>
      </trkpt>
      <trkpt lat="43.34738" lon="-0.53251">
        <ele>212.59</ele>
        <time>2017-04-28T06:54:44Z</time>
      </trkpt>
      <trkpt lat="43.34742" lon="-0.53247">
        <ele>212.59</ele>
        <time>2017-04-28T06:54:45Z</time>
      </trkpt>
      <trkpt lat="43.34745" lon="-0.53243">
        <ele>212.11</ele>
        <time>2017-04-28T06:54:46Z</time>
      </trkpt>
      <trkpt lat="43.34749" lon="-0.53239">
        <ele>211.63</ele>
        <time>2017-04-28T06:54:47Z</time>
      </trkpt>
      <trkpt lat="43.34751" lon="-0.53234">
        <ele>211.15</ele>
        <time>2017-04-28T06:54:48Z</time>
      </trkpt>
      <trkpt lat="43.3476" lon="-0.53179">
        <ele>203.94</ele>
        <time>2017-04-28T06:54:58Z</time>
      </trkpt>
      <trkpt lat="43.34758" lon="-0.5313">
        <ele>205.38</ele>
        <time>2017-04-28T06:55:09Z</time>
      </trkpt>
      <trkpt lat="43.34756" lon="-0.53127">
        <ele>205.86</ele>
        <time>2017-04-28T06:55:10Z</time>
      </trkpt>
      <trkpt lat="43.34755" lon="-0.53124">
        <ele>206.34</ele>
        <time>2017-04-28T06:55:11Z</time>
      </trkpt>
      <trkpt lat="43.34754" lon="-0.53121">
        <ele>206.82</ele>
        <time>2017-04-28T06:55:12Z</time>
      </trkpt>
      <trkpt lat="43.34752" lon="-0.53119">
        <ele>207.3</ele>
        <time>2017-04-28T06:55:13Z</time>
      </trkpt>
      <trkpt lat="43.3475" lon="-0.53117">
        <ele>207.78</ele>
        <time>2017-04-28T06:55:14Z</time>
      </trkpt>
      <trkpt lat="43.34749" lon="-0.53115">
        <ele>207.78</ele>
        <time>2017-04-28T06:55:15Z</time>
      </trkpt>
      <trkpt lat="43.34736" lon="-0.53093">
        <ele>209.7</ele>
        <time>2017-04-28T06:55:26Z</time>
      </trkpt>
      <trkpt lat="43.34715" lon="-0.5307">
        <ele>212.11</ele>
        <time>2017-04-28T06:55:38Z</time>
      </trkpt>
      <trkpt lat="43.34693" lon="-0.53055">
        <ele>215.47</ele>
        <time>2017-04-28T06:55:50Z</time>
      </trkpt>
      <trkpt lat="43.34692" lon="-0.53053">
        <ele>215.95</ele>
        <time>2017-04-28T06:55:51Z</time>
      </trkpt>
      <trkpt lat="43.3469" lon="-0.53051">
        <ele>215.95</ele>
        <time>2017-04-28T06:55:52Z</time>
      </trkpt>
      <trkpt lat="43.34679" lon="-0.53035">
        <ele>218.84</ele>
        <time>2017-04-28T06:56:00Z</time>
      </trkpt>
      <trkpt lat="43.34658" lon="-0.53023">
        <ele>219.8</ele>
        <time>2017-04-28T06:56:10Z</time>
      </trkpt>
      <trkpt lat="43.34655" lon="-0.53022">
        <ele>219.8</ele>
        <time>2017-04-28T06:56:11Z</time>
      </trkpt>
      <trkpt lat="43.34652" lon="-0.5302">
        <ele>219.32</ele>
        <time>2017-04-28T06:56:12Z</time>
      </trkpt>
      <trkpt lat="43.34649" lon="-0.53017">
        <ele>219.32</ele>
        <time>2017-04-28T06:56:13Z</time>
      </trkpt>
      <trkpt lat="43.34647" lon="-0.53014">
        <ele>219.32</ele>
        <time>2017-04-28T06:56:14Z</time>
      </trkpt>
      <trkpt lat="43.34645" lon="-0.53011">
        <ele>219.32</ele>
        <time>2017-04-28T06:56:15Z</time>
      </trkpt>
      <trkpt lat="43.34643" lon="-0.53009">
        <ele>219.8</ele>
        <time>2017-04-28T06:56:16Z</time>
      </trkpt>
      <trkpt lat="43.34641" lon="-0.53006">
        <ele>220.28</ele>
        <time>2017-04-28T06:56:17Z</time>
      </trkpt>
      <trkpt lat="43.3464" lon="-0.53005">
        <ele>220.76</ele>
        <time>2017-04-28T06:56:18Z</time>
      </trkpt>
      <trkpt lat="43.34639" lon="-0.53003">
        <ele>221.24</ele>
        <time>2017-04-28T06:56:19Z</time>
      </trkpt>
      <trkpt lat="43.34639" lon="-0.53001">
        <ele>221.72</ele>
        <time>2017-04-28T06:56:20Z</time>
      </trkpt>
      <trkpt lat="43.34637" lon="-0.52999">
        <ele>222.2</ele>
        <time>2017-04-28T06:56:21Z</time>
      </trkpt>
      <trkpt lat="43.34637" lon="-0.52997">
        <ele>222.68</ele>
        <time>2017-04-28T06:56:22Z</time>
      </trkpt>
      <trkpt lat="43.34635" lon="-0.52994">
        <ele>223.16</ele>
        <time>2017-04-28T06:56:23Z</time>
      </trkpt>
      <trkpt lat="43.34633" lon="-0.52992">
        <ele>223.16</ele>
        <time>2017-04-28T06:56:24Z</time>
      </trkpt>
      <trkpt lat="43.34631" lon="-0.5299">
        <ele>223.64</ele>
        <time>2017-04-28T06:56:25Z</time>
      </trkpt>
      <trkpt lat="43.34629" lon="-0.52988">
        <ele>224.12</ele>
        <time>2017-04-28T06:56:26Z</time>
      </trkpt>
      <trkpt lat="43.34628" lon="-0.52986">
        <ele>224.12</ele>
        <time>2017-04-28T06:56:27Z</time>
      </trkpt>
      <trkpt lat="43.34626" lon="-0.52983">
        <ele>224.61</ele>
        <time>2017-04-28T06:56:28Z</time>
      </trkpt>
      <trkpt lat="43.34624" lon="-0.52981">
        <ele>224.61</ele>
        <time>2017-04-28T06:56:29Z</time>
      </trkpt>
      <trkpt lat="43.34622" lon="-0.52979">
        <ele>224.61</ele>
        <time>2017-04-28T06:56:30Z</time>
      </trkpt>
      <trkpt lat="43.34607" lon="-0.52968">
        <ele>224.61</ele>
        <time>2017-04-28T06:56:35Z</time>
      </trkpt>
      <trkpt lat="43.34604" lon="-0.52968">
        <ele>224.12</ele>
        <time>2017-04-28T06:56:36Z</time>
      </trkpt>
      <trkpt lat="43.34601" lon="-0.52966">
        <ele>224.12</ele>
        <time>2017-04-28T06:56:37Z</time>
      </trkpt>
      <trkpt lat="43.34599" lon="-0.52964">
        <ele>223.64</ele>
        <time>2017-04-28T06:56:38Z</time>
      </trkpt>
      <trkpt lat="43.34596" lon="-0.52963">
        <ele>223.16</ele>
        <time>2017-04-28T06:56:39Z</time>
      </trkpt>
      <trkpt lat="43.34593" lon="-0.5296">
        <ele>223.16</ele>
        <time>2017-04-28T06:56:40Z</time>
      </trkpt>
      <trkpt lat="43.34589" lon="-0.52957">
        <ele>223.16</ele>
        <time>2017-04-28T06:56:41Z</time>
      </trkpt>
      <trkpt lat="43.34586" lon="-0.52953">
        <ele>223.16</ele>
        <time>2017-04-28T06:56:42Z</time>
      </trkpt>
      <trkpt lat="43.34555" lon="-0.52926">
        <ele>225.57</ele>
        <time>2017-04-28T06:56:53Z</time>
      </trkpt>
      <trkpt lat="43.34553" lon="-0.52925">
        <ele>226.05</ele>
        <time>2017-04-28T06:56:54Z</time>
      </trkpt>
      <trkpt lat="43.34551" lon="-0.52923">
        <ele>226.53</ele>
        <time>2017-04-28T06:56:55Z</time>
      </trkpt>
      <trkpt lat="43.34549" lon="-0.52921">
        <ele>226.53</ele>
        <time>2017-04-28T06:56:56Z</time>
      </trkpt>
      <trkpt lat="43.34548" lon="-0.52919">
        <ele>226.53</ele>
        <time>2017-04-28T06:56:57Z</time>
      </trkpt>
      <trkpt lat="43.34545" lon="-0.52916">
        <ele>226.05</ele>
        <time>2017-04-28T06:56:58Z</time>
      </trkpt>
      <trkpt lat="43.34542" lon="-0.5291">
        <ele>225.57</ele>
        <time>2017-04-28T06:56:59Z</time>
      </trkpt>
      <trkpt lat="43.34539" lon="-0.52904">
        <ele>225.57</ele>
        <time>2017-04-28T06:57:00Z</time>
      </trkpt>
      <trkpt lat="43.34536" lon="-0.52898">
        <ele>225.09</ele>
        <time>2017-04-28T06:57:01Z</time>
      </trkpt>
      <trkpt lat="43.34533" lon="-0.5289">
        <ele>225.57</ele>
        <time>2017-04-28T06:57:02Z</time>
      </trkpt>
      <trkpt lat="43.34528" lon="-0.52883">
        <ele>225.57</ele>
        <time>2017-04-28T06:57:03Z</time>
      </trkpt>
      <trkpt lat="43.34524" lon="-0.52877">
        <ele>225.57</ele>
        <time>2017-04-28T06:57:04Z</time>
      </trkpt>
      <trkpt lat="43.34519" lon="-0.52871">
        <ele>225.57</ele>
        <time>2017-04-28T06:57:05Z</time>
      </trkpt>
      <trkpt lat="43.34514" lon="-0.52866">
        <ele>226.05</ele>
        <time>2017-04-28T06:57:06Z</time>
      </trkpt>
      <trkpt lat="43.34511" lon="-0.52863">
        <ele>226.05</ele>
        <time>2017-04-28T06:57:07Z</time>
      </trkpt>
      <trkpt lat="43.3448" lon="-0.52825">
        <ele>222.2</ele>
        <time>2017-04-28T06:57:20Z</time>
      </trkpt>
      <trkpt lat="43.34474" lon="-0.52811">
        <ele>221.24</ele>
        <time>2017-04-28T06:57:27Z</time>
      </trkpt>
      <trkpt lat="43.34475" lon="-0.52776">
        <ele>221.72</ele>
        <time>2017-04-28T06:57:35Z</time>
      </trkpt>
      <trkpt lat="43.34472" lon="-0.52759">
        <ele>220.76</ele>
        <time>2017-04-28T06:57:39Z</time>
      </trkpt>
      <trkpt lat="43.34469" lon="-0.52736">
        <ele>221.24</ele>
        <time>2017-04-28T06:57:44Z</time>
      </trkpt>
      <trkpt lat="43.34465" lon="-0.52722">
        <ele>221.24</ele>
        <time>2017-04-28T06:57:47Z</time>
      </trkpt>
      <trkpt lat="43.34451" lon="-0.5271">
        <ele>221.72</ele>
        <time>2017-04-28T06:57:52Z</time>
      </trkpt>
      <trkpt lat="43.34447" lon="-0.527">
        <ele>222.68</ele>
        <time>2017-04-28T06:57:55Z</time>
      </trkpt>
      <trkpt lat="43.34447" lon="-0.52693">
        <ele>222.68</ele>
        <time>2017-04-28T06:57:56Z</time>
      </trkpt>
      <trkpt lat="43.34447" lon="-0.52688">
        <ele>222.2</ele>
        <time>2017-04-28T06:57:57Z</time>
      </trkpt>
      <trkpt lat="43.34446" lon="-0.52683">
        <ele>222.2</ele>
        <time>2017-04-28T06:57:58Z</time>
      </trkpt>
      <trkpt lat="43.34444" lon="-0.52681">
        <ele>222.2</ele>
        <time>2017-04-28T06:57:59Z</time>
      </trkpt>
      <trkpt lat="43.34442" lon="-0.52679">
        <ele>222.2</ele>
        <time>2017-04-28T06:58:00Z</time>
      </trkpt>
      <trkpt lat="43.34435" lon="-0.52678">
        <ele>221.72</ele>
        <time>2017-04-28T06:58:02Z</time>
      </trkpt>
      <trkpt lat="43.34432" lon="-0.52676">
        <ele>221.24</ele>
        <time>2017-04-28T06:58:03Z</time>
      </trkpt>
      <trkpt lat="43.34431" lon="-0.52673">
        <ele>221.24</ele>
        <time>2017-04-28T06:58:04Z</time>
      </trkpt>
      <trkpt lat="43.34431" lon="-0.52671">
        <ele>221.24</ele>
        <time>2017-04-28T06:58:05Z</time>
      </trkpt>
      <trkpt lat="43.3443" lon="-0.52666">
        <ele>221.72</ele>
        <time>2017-04-28T06:58:07Z</time>
      </trkpt>
      <trkpt lat="43.3443" lon="-0.52664">
        <ele>221.72</ele>
        <time>2017-04-28T06:58:08Z</time>
      </trkpt>
      <trkpt lat="43.3443" lon="-0.52661">
        <ele>221.72</ele>
        <time>2017-04-28T06:58:09Z</time>
      </trkpt>
      <trkpt lat="43.3443" lon="-0.52657">
        <ele>222.2</ele>
        <time>2017-04-28T06:58:10Z</time>
      </trkpt>
      <trkpt lat="43.34428" lon="-0.52652">
        <ele>222.2</ele>
        <time>2017-04-28T06:58:11Z</time>
      </trkpt>
      <trkpt lat="43.34426" lon="-0.52648">
        <ele>221.72</ele>
        <time>2017-04-28T06:58:12Z</time>
      </trkpt>
      <trkpt lat="43.34425" lon="-0.52644">
        <ele>221.72</ele>
        <time>2017-04-28T06:58:13Z</time>
      </trkpt>
      <trkpt lat="43.34412" lon="-0.52615">
        <ele>217.4</ele>
        <time>2017-04-28T06:58:22Z</time>
      </trkpt>
      <trkpt lat="43.34404" lon="-0.52607">
        <ele>216.43</ele>
        <time>2017-04-28T06:58:33Z</time>
      </trkpt>
      <trkpt lat="43.34399" lon="-0.52601">
        <ele>215.95</ele>
        <time>2017-04-28T06:58:47Z</time>
      </trkpt>
      <trkpt lat="43.34397" lon="-0.52599">
        <ele>214.99</ele>
        <time>2017-04-28T06:58:51Z</time>
      </trkpt>
      <trkpt lat="43.34391" lon="-0.52591">
        <ele>214.51</ele>
        <time>2017-04-28T06:58:56Z</time>
      </trkpt>
      <trkpt lat="43.34389" lon="-0.52589">
        <ele>214.51</ele>
        <time>2017-04-28T06:58:57Z</time>
      </trkpt>
      <trkpt lat="43.34386" lon="-0.52586">
        <ele>214.03</ele>
        <time>2017-04-28T06:58:58Z</time>
      </trkpt>
      <trkpt lat="43.34383" lon="-0.52583">
        <ele>213.55</ele>
        <time>2017-04-28T06:58:59Z</time>
      </trkpt>
      <trkpt lat="43.34375" lon="-0.52574">
        <ele>212.59</ele>
        <time>2017-04-28T06:59:01Z</time>
      </trkpt>
      <trkpt lat="43.34373" lon="-0.52569">
        <ele>212.11</ele>
        <time>2017-04-28T06:59:02Z</time>
      </trkpt>
      <trkpt lat="43.34371" lon="-0.52564">
        <ele>212.11</ele>
        <time>2017-04-28T06:59:03Z</time>
      </trkpt>
      <trkpt lat="43.34369" lon="-0.52559">
        <ele>211.63</ele>
        <time>2017-04-28T06:59:04Z</time>
      </trkpt>
      <trkpt lat="43.34367" lon="-0.52554">
        <ele>211.15</ele>
        <time>2017-04-28T06:59:05Z</time>
      </trkpt>
      <trkpt lat="43.34366" lon="-0.52549">
        <ele>210.67</ele>
        <time>2017-04-28T06:59:06Z</time>
      </trkpt>
      <trkpt lat="43.34365" lon="-0.52543">
        <ele>210.19</ele>
        <time>2017-04-28T06:59:07Z</time>
      </trkpt>
      <trkpt lat="43.34364" lon="-0.52538">
        <ele>209.7</ele>
        <time>2017-04-28T06:59:08Z</time>
      </trkpt>
      <trkpt lat="43.34363" lon="-0.52532">
        <ele>209.7</ele>
        <time>2017-04-28T06:59:09Z</time>
      </trkpt>
      <trkpt lat="43.34361" lon="-0.52522">
        <ele>210.19</ele>
        <time>2017-04-28T06:59:12Z</time>
      </trkpt>
      <trkpt lat="43.34341" lon="-0.52487">
        <ele>210.67</ele>
        <time>2017-04-28T06:59:21Z</time>
      </trkpt>
      <trkpt lat="43.34336" lon="-0.52481">
        <ele>210.67</ele>
        <time>2017-04-28T06:59:22Z</time>
      </trkpt>
      <trkpt lat="43.34307" lon="-0.52451">
        <ele>208.74</ele>
        <time>2017-04-28T06:59:28Z</time>
      </trkpt>
      <trkpt lat="43.34303" lon="-0.52445">
        <ele>208.74</ele>
        <time>2017-04-28T06:59:29Z</time>
      </trkpt>
      <trkpt lat="43.343" lon="-0.5244">
        <ele>208.26</ele>
        <time>2017-04-28T06:59:30Z</time>
      </trkpt>
      <trkpt lat="43.34298" lon="-0.52434">
        <ele>208.26</ele>
        <time>2017-04-28T06:59:31Z</time>
      </trkpt>
      <trkpt lat="43.34296" lon="-0.52429">
        <ele>208.26</ele>
        <time>2017-04-28T06:59:32Z</time>
      </trkpt>
      <trkpt lat="43.34287" lon="-0.5239">
        <ele>208.74</ele>
        <time>2017-04-28T06:59:39Z</time>
      </trkpt>
      <trkpt lat="43.34281" lon="-0.52364">
        <ele>210.67</ele>
        <time>2017-04-28T06:59:44Z</time>
      </trkpt>
      <trkpt lat="43.34278" lon="-0.5236">
        <ele>210.67</ele>
        <time>2017-04-28T06:59:45Z</time>
      </trkpt>
      <trkpt lat="43.34275" lon="-0.52356">
        <ele>211.15</ele>
        <time>2017-04-28T06:59:46Z</time>
      </trkpt>
      <trkpt lat="43.34271" lon="-0.52353">
        <ele>211.15</ele>
        <time>2017-04-28T06:59:47Z</time>
      </trkpt>
      <trkpt lat="43.34268" lon="-0.5235">
        <ele>211.15</ele>
        <time>2017-04-28T06:59:48Z</time>
      </trkpt>
      <trkpt lat="43.34265" lon="-0.52346">
        <ele>211.15</ele>
        <time>2017-04-28T06:59:49Z</time>
      </trkpt>
      <trkpt lat="43.34262" lon="-0.52342">
        <ele>211.63</ele>
        <time>2017-04-28T06:59:50Z</time>
      </trkpt>
      <trkpt lat="43.34259" lon="-0.5234">
        <ele>211.63</ele>
        <time>2017-04-28T06:59:51Z</time>
      </trkpt>
      <trkpt lat="43.34255" lon="-0.52338">
        <ele>212.11</ele>
        <time>2017-04-28T06:59:52Z</time>
      </trkpt>
      <trkpt lat="43.34252" lon="-0.52335">
        <ele>212.11</ele>
        <time>2017-04-28T06:59:53Z</time>
      </trkpt>
      <trkpt lat="43.34216" lon="-0.52327">
        <ele>215.47</ele>
        <time>2017-04-28T07:00:03Z</time>
      </trkpt>
      <trkpt lat="43.34191" lon="-0.52307">
        <ele>217.4</ele>
        <time>2017-04-28T07:00:14Z</time>
      </trkpt>
      <trkpt lat="43.34173" lon="-0.52288">
        <ele>217.4</ele>
        <time>2017-04-28T07:00:23Z</time>
      </trkpt>
      <trkpt lat="43.34172" lon="-0.52286">
        <ele>217.4</ele>
        <time>2017-04-28T07:00:24Z</time>
      </trkpt>
      <trkpt lat="43.34171" lon="-0.52285">
        <ele>217.4</ele>
        <time>2017-04-28T07:00:25Z</time>
      </trkpt>
      <trkpt lat="43.3417" lon="-0.52284">
        <ele>217.88</ele>
        <time>2017-04-28T07:00:26Z</time>
      </trkpt>
      <trkpt lat="43.34168" lon="-0.52283">
        <ele>218.36</ele>
        <time>2017-04-28T07:00:27Z</time>
      </trkpt>
      <trkpt lat="43.34167" lon="-0.52281">
        <ele>218.84</ele>
        <time>2017-04-28T07:00:28Z</time>
      </trkpt>
      <trkpt lat="43.34166" lon="-0.5228">
        <ele>219.32</ele>
        <time>2017-04-28T07:00:29Z</time>
      </trkpt>
      <trkpt lat="43.34165" lon="-0.5228">
        <ele>219.32</ele>
        <time>2017-04-28T07:00:30Z</time>
      </trkpt>
      <trkpt lat="43.34164" lon="-0.52279">
        <ele>219.32</ele>
        <time>2017-04-28T07:00:31Z</time>
      </trkpt>
      <trkpt lat="43.34162" lon="-0.52278">
        <ele>219.8</ele>
        <time>2017-04-28T07:00:32Z</time>
      </trkpt>
      <trkpt lat="43.34161" lon="-0.52277">
        <ele>219.8</ele>
        <time>2017-04-28T07:00:33Z</time>
      </trkpt>
      <trkpt lat="43.3416" lon="-0.52277">
        <ele>219.8</ele>
        <time>2017-04-28T07:00:34Z</time>
      </trkpt>
      <trkpt lat="43.34158" lon="-0.52276">
        <ele>220.28</ele>
        <time>2017-04-28T07:00:35Z</time>
      </trkpt>
      <trkpt lat="43.34157" lon="-0.52275">
        <ele>220.28</ele>
        <time>2017-04-28T07:00:36Z</time>
      </trkpt>
      <trkpt lat="43.34155" lon="-0.52274">
        <ele>220.76</ele>
        <time>2017-04-28T07:00:37Z</time>
      </trkpt>
      <trkpt lat="43.34153" lon="-0.52273">
        <ele>220.76</ele>
        <time>2017-04-28T07:00:38Z</time>
      </trkpt>
      <trkpt lat="43.34151" lon="-0.52272">
        <ele>220.76</ele>
        <time>2017-04-28T07:00:39Z</time>
      </trkpt>
      <trkpt lat="43.34149" lon="-0.52271">
        <ele>220.76</ele>
        <time>2017-04-28T07:00:40Z</time>
      </trkpt>
      <trkpt lat="43.34146" lon="-0.52271">
        <ele>220.76</ele>
        <time>2017-04-28T07:00:41Z</time>
      </trkpt>
      <trkpt lat="43.34137" lon="-0.52267">
        <ele>221.72</ele>
        <time>2017-04-28T07:00:45Z</time>
      </trkpt>
      <trkpt lat="43.34126" lon="-0.5226">
        <ele>221.72</ele>
        <time>2017-04-28T07:00:48Z</time>
      </trkpt>
      <trkpt lat="43.34116" lon="-0.5225">
        <ele>220.76</ele>
        <time>2017-04-28T07:00:50Z</time>
      </trkpt>
      <trkpt lat="43.34109" lon="-0.52239">
        <ele>219.8</ele>
        <time>2017-04-28T07:00:52Z</time>
      </trkpt>
      <trkpt lat="43.34096" lon="-0.52222">
        <ele>218.84</ele>
        <time>2017-04-28T07:00:55Z</time>
      </trkpt>
      <trkpt lat="43.3409" lon="-0.52218">
        <ele>218.36</ele>
        <time>2017-04-28T07:00:56Z</time>
      </trkpt>
      <trkpt lat="43.34084" lon="-0.52214">
        <ele>217.88</ele>
        <time>2017-04-28T07:00:57Z</time>
      </trkpt>
      <trkpt lat="43.34078" lon="-0.52211">
        <ele>217.88</ele>
        <time>2017-04-28T07:00:58Z</time>
      </trkpt>
      <trkpt lat="43.34071" lon="-0.52208">
        <ele>217.4</ele>
        <time>2017-04-28T07:00:59Z</time>
      </trkpt>
      <trkpt lat="43.34065" lon="-0.52206">
        <ele>217.4</ele>
        <time>2017-04-28T07:01:00Z</time>
      </trkpt>
      <trkpt lat="43.34059" lon="-0.52204">
        <ele>216.91</ele>
        <time>2017-04-28T07:01:01Z</time>
      </trkpt>
      <trkpt lat="43.34043" lon="-0.52197">
        <ele>217.4</ele>
        <time>2017-04-28T07:01:04Z</time>
      </trkpt>
      <trkpt lat="43.3404" lon="-0.52194">
        <ele>217.4</ele>
        <time>2017-04-28T07:01:05Z</time>
      </trkpt>
      <trkpt lat="43.34037" lon="-0.52191">
        <ele>217.88</ele>
        <time>2017-04-28T07:01:06Z</time>
      </trkpt>
      <trkpt lat="43.34035" lon="-0.52189">
        <ele>217.88</ele>
        <time>2017-04-28T07:01:07Z</time>
      </trkpt>
      <trkpt lat="43.34032" lon="-0.52188">
        <ele>218.36</ele>
        <time>2017-04-28T07:01:08Z</time>
      </trkpt>
      <trkpt lat="43.34019" lon="-0.52179">
        <ele>220.28</ele>
        <time>2017-04-28T07:01:14Z</time>
      </trkpt>
      <trkpt lat="43.34017" lon="-0.52179">
        <ele>220.28</ele>
        <time>2017-04-28T07:01:15Z</time>
      </trkpt>
      <trkpt lat="43.34015" lon="-0.5218">
        <ele>219.8</ele>
        <time>2017-04-28T07:01:16Z</time>
      </trkpt>
      <trkpt lat="43.34013" lon="-0.52182">
        <ele>219.32</ele>
        <time>2017-04-28T07:01:17Z</time>
      </trkpt>
      <trkpt lat="43.34014" lon="-0.52184">
        <ele>218.36</ele>
        <time>2017-04-28T07:01:18Z</time>
      </trkpt>
      <trkpt lat="43.34015" lon="-0.52188">
        <ele>217.88</ele>
        <time>2017-04-28T07:01:19Z</time>
      </trkpt>
      <trkpt lat="43.34017" lon="-0.52193">
        <ele>216.91</ele>
        <time>2017-04-28T07:01:20Z</time>
      </trkpt>
      <trkpt lat="43.34045" lon="-0.52264">
        <ele>210.67</ele>
        <time>2017-04-28T07:01:29Z</time>
      </trkpt>
      <trkpt lat="43.34071" lon="-0.52301">
        <ele>208.26</ele>
        <time>2017-04-28T07:01:38Z</time>
      </trkpt>
      <trkpt lat="43.34074" lon="-0.52307">
        <ele>208.74</ele>
        <time>2017-04-28T07:01:40Z</time>
      </trkpt>
      <trkpt lat="43.34083" lon="-0.52344">
        <ele>210.67</ele>
        <time>2017-04-28T07:01:51Z</time>
      </trkpt>
      <trkpt lat="43.34098" lon="-0.52388">
        <ele>207.3</ele>
        <time>2017-04-28T07:02:01Z</time>
      </trkpt>
      <trkpt lat="43.34114" lon="-0.52435">
        <ele>206.34</ele>
        <time>2017-04-28T07:02:12Z</time>
      </trkpt>
      <trkpt lat="43.34127" lon="-0.52469">
        <ele>204.42</ele>
        <time>2017-04-28T07:02:19Z</time>
      </trkpt>
      <trkpt lat="43.34129" lon="-0.52474">
        <ele>204.42</ele>
        <time>2017-04-28T07:02:20Z</time>
      </trkpt>
      <trkpt lat="43.34131" lon="-0.5248">
        <ele>204.42</ele>
        <time>2017-04-28T07:02:21Z</time>
      </trkpt>
      <trkpt lat="43.34148" lon="-0.52533">
        <ele>205.86</ele>
        <time>2017-04-28T07:02:32Z</time>
      </trkpt>
      <trkpt lat="43.34135" lon="-0.52567">
        <ele>205.86</ele>
        <time>2017-04-28T07:02:41Z</time>
      </trkpt>
      <trkpt lat="43.34083" lon="-0.52607">
        <ele>203.46</ele>
        <time>2017-04-28T07:02:54Z</time>
      </trkpt>
      <trkpt lat="43.34062" lon="-0.52615">
        <ele>204.42</ele>
        <time>2017-04-28T07:03:01Z</time>
      </trkpt>
      <trkpt lat="43.34036" lon="-0.52639">
        <ele>203.94</ele>
        <time>2017-04-28T07:03:11Z</time>
      </trkpt>
      <trkpt lat="43.34011" lon="-0.52671">
        <ele>204.9</ele>
        <time>2017-04-28T07:03:21Z</time>
      </trkpt>
      <trkpt lat="43.33993" lon="-0.52724">
        <ele>207.78</ele>
        <time>2017-04-28T07:03:34Z</time>
      </trkpt>
      <trkpt lat="43.33968" lon="-0.52797">
        <ele>205.38</ele>
        <time>2017-04-28T07:03:49Z</time>
      </trkpt>
      <trkpt lat="43.3395" lon="-0.52903">
        <ele>201.05</ele>
        <time>2017-04-28T07:04:01Z</time>
      </trkpt>
      <trkpt lat="43.33945" lon="-0.5296">
        <ele>200.09</ele>
        <time>2017-04-28T07:04:08Z</time>
      </trkpt>
      <trkpt lat="43.33948" lon="-0.5301">
        <ele>199.13</ele>
        <time>2017-04-28T07:04:16Z</time>
      </trkpt>
      <trkpt lat="43.33955" lon="-0.53097">
        <ele>199.13</ele>
        <time>2017-04-28T07:04:33Z</time>
      </trkpt>
      <trkpt lat="43.33969" lon="-0.53144">
        <ele>200.57</ele>
        <time>2017-04-28T07:04:45Z</time>
      </trkpt>
      <trkpt lat="43.33988" lon="-0.53162">
        <ele>203.46</ele>
        <time>2017-04-28T07:04:53Z</time>
      </trkpt>
      <trkpt lat="43.33989" lon="-0.53166">
        <ele>203.94</ele>
        <time>2017-04-28T07:04:54Z</time>
      </trkpt>
      <trkpt lat="43.3399" lon="-0.53169">
        <ele>203.94</ele>
        <time>2017-04-28T07:04:55Z</time>
      </trkpt>
      <trkpt lat="43.33989" lon="-0.53173">
        <ele>204.42</ele>
        <time>2017-04-28T07:04:56Z</time>
      </trkpt>
      <trkpt lat="43.33989" lon="-0.53177">
        <ele>204.42</ele>
        <time>2017-04-28T07:04:57Z</time>
      </trkpt>
      <trkpt lat="43.33987" lon="-0.53191">
        <ele>205.38</ele>
        <time>2017-04-28T07:05:00Z</time>
      </trkpt>
      <trkpt lat="43.33974" lon="-0.53205">
        <ele>205.86</ele>
        <time>2017-04-28T07:05:05Z</time>
      </trkpt>
      <trkpt lat="43.33969" lon="-0.53211">
        <ele>205.38</ele>
        <time>2017-04-28T07:05:07Z</time>
      </trkpt>
      <trkpt lat="43.33943" lon="-0.53216">
        <ele>202.49</ele>
        <time>2017-04-28T07:05:14Z</time>
      </trkpt>
      <trkpt lat="43.33938" lon="-0.53214">
        <ele>200.57</ele>
        <time>2017-04-28T07:05:17Z</time>
      </trkpt>
      <trkpt lat="43.33921" lon="-0.53209">
        <ele>198.65</ele>
        <time>2017-04-28T07:05:25Z</time>
      </trkpt>
      <trkpt lat="43.33913" lon="-0.53192">
        <ele>197.21</ele>
        <time>2017-04-28T07:05:30Z</time>
      </trkpt>
      <trkpt lat="43.33895" lon="-0.53199">
        <ele>196.73</ele>
        <time>2017-04-28T07:05:37Z</time>
      </trkpt>
      <trkpt lat="43.33885" lon="-0.53199">
        <ele>196.25</ele>
        <time>2017-04-28T07:05:39Z</time>
      </trkpt>
      <trkpt lat="43.3387" lon="-0.53193">
        <ele>195.28</ele>
        <time>2017-04-28T07:05:43Z</time>
      </trkpt>
      <trkpt lat="43.33851" lon="-0.53183">
        <ele>194.8</ele>
        <time>2017-04-28T07:05:48Z</time>
      </trkpt>
      <trkpt lat="43.33845" lon="-0.53169">
        <ele>192.88</ele>
        <time>2017-04-28T07:05:58Z</time>
      </trkpt>
      <trkpt lat="43.33843" lon="-0.53166">
        <ele>190.96</ele>
        <time>2017-04-28T07:06:05Z</time>
      </trkpt>
      <trkpt lat="43.33824" lon="-0.53161">
        <ele>187.59</ele>
        <time>2017-04-28T07:06:13Z</time>
      </trkpt>
      <trkpt lat="43.33822" lon="-0.53157">
        <ele>186.63</ele>
        <time>2017-04-28T07:06:15Z</time>
      </trkpt>
      <trkpt lat="43.338" lon="-0.53151">
        <ele>184.23</ele>
        <time>2017-04-28T07:06:24Z</time>
      </trkpt>
      <trkpt lat="43.33786" lon="-0.53144">
        <ele>183.27</ele>
        <time>2017-04-28T07:06:28Z</time>
      </trkpt>
      <trkpt lat="43.33765" lon="-0.53156">
        <ele>181.35</ele>
        <time>2017-04-28T07:06:33Z</time>
      </trkpt>
      <trkpt lat="43.33724" lon="-0.53143">
        <ele>174.14</ele>
        <time>2017-04-28T07:06:41Z</time>
      </trkpt>
      <trkpt lat="43.33717" lon="-0.53135">
        <ele>172.69</ele>
        <time>2017-04-28T07:06:43Z</time>
      </trkpt>
      <trkpt lat="43.33675" lon="-0.53129">
        <ele>166.45</ele>
        <time>2017-04-28T07:06:53Z</time>
      </trkpt>
      <trkpt lat="43.33665" lon="-0.53144">
        <ele>165</ele>
        <time>2017-04-28T07:06:56Z</time>
      </trkpt>
      <trkpt lat="43.33642" lon="-0.53159">
        <ele>163.08</ele>
        <time>2017-04-28T07:07:01Z</time>
      </trkpt>
      <trkpt lat="43.33618" lon="-0.53168">
        <ele>159.24</ele>
        <time>2017-04-28T07:07:07Z</time>
      </trkpt>
      <trkpt lat="43.33595" lon="-0.53176">
        <ele>157.79</ele>
        <time>2017-04-28T07:07:14Z</time>
      </trkpt>
      <trkpt lat="43.33561" lon="-0.53176">
        <ele>155.39</ele>
        <time>2017-04-28T07:07:22Z</time>
      </trkpt>
      <trkpt lat="43.33549" lon="-0.53185">
        <ele>155.39</ele>
        <time>2017-04-28T07:07:25Z</time>
      </trkpt>
      <trkpt lat="43.33525" lon="-0.53203">
        <ele>152.99</ele>
        <time>2017-04-28T07:07:31Z</time>
      </trkpt>
      <trkpt lat="43.33497" lon="-0.53216">
        <ele>150.1</ele>
        <time>2017-04-28T07:07:37Z</time>
      </trkpt>
      <trkpt lat="43.33495" lon="-0.5322">
        <ele>149.62</ele>
        <time>2017-04-28T07:07:38Z</time>
      </trkpt>
      <trkpt lat="43.33494" lon="-0.53224">
        <ele>149.14</ele>
        <time>2017-04-28T07:07:39Z</time>
      </trkpt>
      <trkpt lat="43.33492" lon="-0.53228">
        <ele>148.66</ele>
        <time>2017-04-28T07:07:40Z</time>
      </trkpt>
      <trkpt lat="43.33489" lon="-0.53231">
        <ele>148.18</ele>
        <time>2017-04-28T07:07:41Z</time>
      </trkpt>
      <trkpt lat="43.33471" lon="-0.5324">
        <ele>146.74</ele>
        <time>2017-04-28T07:07:46Z</time>
      </trkpt>
      <trkpt lat="43.33468" lon="-0.53239">
        <ele>145.78</ele>
        <time>2017-04-28T07:07:47Z</time>
      </trkpt>
      <trkpt lat="43.33467" lon="-0.53238">
        <ele>145.78</ele>
        <time>2017-04-28T07:07:48Z</time>
      </trkpt>
      <trkpt lat="43.33466" lon="-0.53236">
        <ele>145.3</ele>
        <time>2017-04-28T07:07:49Z</time>
      </trkpt>
      <trkpt lat="43.33465" lon="-0.53234">
        <ele>145.3</ele>
        <time>2017-04-28T07:07:50Z</time>
      </trkpt>
      <trkpt lat="43.33466" lon="-0.53231">
        <ele>144.82</ele>
        <time>2017-04-28T07:07:51Z</time>
      </trkpt>
      <trkpt lat="43.33466" lon="-0.53229">
        <ele>144.34</ele>
        <time>2017-04-28T07:07:52Z</time>
      </trkpt>
      <trkpt lat="43.33468" lon="-0.53226">
        <ele>143.85</ele>
        <time>2017-04-28T07:07:53Z</time>
      </trkpt>
      <trkpt lat="43.33469" lon="-0.53224">
        <ele>143.85</ele>
        <time>2017-04-28T07:07:54Z</time>
      </trkpt>
      <trkpt lat="43.33471" lon="-0.53221">
        <ele>143.85</ele>
        <time>2017-04-28T07:07:55Z</time>
      </trkpt>
      <trkpt lat="43.33473" lon="-0.53219">
        <ele>143.85</ele>
        <time>2017-04-28T07:07:56Z</time>
      </trkpt>
      <trkpt lat="43.33475" lon="-0.53216">
        <ele>143.85</ele>
        <time>2017-04-28T07:07:57Z</time>
      </trkpt>
      <trkpt lat="43.33476" lon="-0.53213">
        <ele>143.37</ele>
        <time>2017-04-28T07:07:58Z</time>
      </trkpt>
      <trkpt lat="43.33478" lon="-0.53198">
        <ele>144.34</ele>
        <time>2017-04-28T07:08:03Z</time>
      </trkpt>
      <trkpt lat="43.33474" lon="-0.53195">
        <ele>144.34</ele>
        <time>2017-04-28T07:08:04Z</time>
      </trkpt>
      <trkpt lat="43.33471" lon="-0.53194">
        <ele>144.34</ele>
        <time>2017-04-28T07:08:05Z</time>
      </trkpt>
      <trkpt lat="43.33468" lon="-0.53193">
        <ele>144.34</ele>
        <time>2017-04-28T07:08:06Z</time>
      </trkpt>
      <trkpt lat="43.33465" lon="-0.53192">
        <ele>144.34</ele>
        <time>2017-04-28T07:08:07Z</time>
      </trkpt>
      <trkpt lat="43.33424" lon="-0.53202">
        <ele>143.85</ele>
        <time>2017-04-28T07:08:18Z</time>
      </trkpt>
      <trkpt lat="43.33404" lon="-0.5321">
        <ele>143.37</ele>
        <time>2017-04-28T07:08:23Z</time>
      </trkpt>
      <trkpt lat="43.33358" lon="-0.53209">
        <ele>146.26</ele>
        <time>2017-04-28T07:08:35Z</time>
      </trkpt>
      <trkpt lat="43.3335" lon="-0.53203">
        <ele>145.78</ele>
        <time>2017-04-28T07:08:37Z</time>
      </trkpt>
      <trkpt lat="43.33345" lon="-0.53199">
        <ele>145.3</ele>
        <time>2017-04-28T07:08:38Z</time>
      </trkpt>
      <trkpt lat="43.33341" lon="-0.53194">
        <ele>145.3</ele>
        <time>2017-04-28T07:08:39Z</time>
      </trkpt>
      <trkpt lat="43.33338" lon="-0.53189">
        <ele>145.3</ele>
        <time>2017-04-28T07:08:40Z</time>
      </trkpt>
      <trkpt lat="43.33335" lon="-0.53183">
        <ele>144.82</ele>
        <time>2017-04-28T07:08:41Z</time>
      </trkpt>
      <trkpt lat="43.33333" lon="-0.53178">
        <ele>144.82</ele>
        <time>2017-04-28T07:08:42Z</time>
      </trkpt>
      <trkpt lat="43.33332" lon="-0.53171">
        <ele>144.82</ele>
        <time>2017-04-28T07:08:43Z</time>
      </trkpt>
      <trkpt lat="43.3333" lon="-0.53164">
        <ele>144.34</ele>
        <time>2017-04-28T07:08:44Z</time>
      </trkpt>
      <trkpt lat="43.33329" lon="-0.53158">
        <ele>144.34</ele>
        <time>2017-04-28T07:08:45Z</time>
      </trkpt>
      <trkpt lat="43.33316" lon="-0.53102">
        <ele>143.37</ele>
        <time>2017-04-28T07:08:55Z</time>
      </trkpt>
      <trkpt lat="43.33314" lon="-0.53096">
        <ele>143.37</ele>
        <time>2017-04-28T07:08:56Z</time>
      </trkpt>
      <trkpt lat="43.33312" lon="-0.5309">
        <ele>143.37</ele>
        <time>2017-04-28T07:08:57Z</time>
      </trkpt>
      <trkpt lat="43.33311" lon="-0.53085">
        <ele>143.85</ele>
        <time>2017-04-28T07:08:58Z</time>
      </trkpt>
      <trkpt lat="43.33309" lon="-0.53079">
        <ele>143.85</ele>
        <time>2017-04-28T07:08:59Z</time>
      </trkpt>
      <trkpt lat="43.33307" lon="-0.53074">
        <ele>144.34</ele>
        <time>2017-04-28T07:09:00Z</time>
      </trkpt>
      <trkpt lat="43.33306" lon="-0.53068">
        <ele>144.34</ele>
        <time>2017-04-28T07:09:01Z</time>
      </trkpt>
      <trkpt lat="43.333" lon="-0.53052">
        <ele>143.37</ele>
        <time>2017-04-28T07:09:04Z</time>
      </trkpt>
      <trkpt lat="43.33298" lon="-0.53046">
        <ele>142.89</ele>
        <time>2017-04-28T07:09:05Z</time>
      </trkpt>
      <trkpt lat="43.33288" lon="-0.5303">
        <ele>142.41</ele>
        <time>2017-04-28T07:09:08Z</time>
      </trkpt>
      <trkpt lat="43.33276" lon="-0.53014">
        <ele>141.45</ele>
        <time>2017-04-28T07:09:11Z</time>
      </trkpt>
      <trkpt lat="43.33218" lon="-0.5296">
        <ele>138.09</ele>
        <time>2017-04-28T07:09:23Z</time>
      </trkpt>
      <trkpt lat="43.3321" lon="-0.52953">
        <ele>137.61</ele>
        <time>2017-04-28T07:09:25Z</time>
      </trkpt>
      <trkpt lat="43.33197" lon="-0.52943">
        <ele>136.64</ele>
        <time>2017-04-28T07:09:28Z</time>
      </trkpt>
      <trkpt lat="43.33193" lon="-0.52938">
        <ele>136.64</ele>
        <time>2017-04-28T07:09:29Z</time>
      </trkpt>
      <trkpt lat="43.33189" lon="-0.52933">
        <ele>136.64</ele>
        <time>2017-04-28T07:09:30Z</time>
      </trkpt>
      <trkpt lat="43.33185" lon="-0.52927">
        <ele>136.64</ele>
        <time>2017-04-28T07:09:31Z</time>
      </trkpt>
      <trkpt lat="43.33181" lon="-0.52922">
        <ele>136.64</ele>
        <time>2017-04-28T07:09:32Z</time>
      </trkpt>
      <trkpt lat="43.33173" lon="-0.52912">
        <ele>136.16</ele>
        <time>2017-04-28T07:09:34Z</time>
      </trkpt>
      <trkpt lat="43.33162" lon="-0.52894">
        <ele>136.16</ele>
        <time>2017-04-28T07:09:37Z</time>
      </trkpt>
      <trkpt lat="43.33115" lon="-0.52818">
        <ele>135.68</ele>
        <time>2017-04-28T07:09:51Z</time>
      </trkpt>
      <trkpt lat="43.33107" lon="-0.52809">
        <ele>135.2</ele>
        <time>2017-04-28T07:09:53Z</time>
      </trkpt>
      <trkpt lat="43.33097" lon="-0.52793">
        <ele>134.72</ele>
        <time>2017-04-28T07:09:56Z</time>
      </trkpt>
      <trkpt lat="43.33083" lon="-0.5277">
        <ele>134.24</ele>
        <time>2017-04-28T07:10:00Z</time>
      </trkpt>
      <trkpt lat="43.33074" lon="-0.52751">
        <ele>133.28</ele>
        <time>2017-04-28T07:10:03Z</time>
      </trkpt>
      <trkpt lat="43.33072" lon="-0.52744">
        <ele>132.8</ele>
        <time>2017-04-28T07:10:04Z</time>
      </trkpt>
      <trkpt lat="43.3307" lon="-0.52738">
        <ele>132.8</ele>
        <time>2017-04-28T07:10:05Z</time>
      </trkpt>
      <trkpt lat="43.33062" lon="-0.52705">
        <ele>130.88</ele>
        <time>2017-04-28T07:10:10Z</time>
      </trkpt>
      <trkpt lat="43.3306" lon="-0.52699">
        <ele>131.36</ele>
        <time>2017-04-28T07:10:11Z</time>
      </trkpt>
      <trkpt lat="43.33059" lon="-0.52692">
        <ele>131.84</ele>
        <time>2017-04-28T07:10:12Z</time>
      </trkpt>
      <trkpt lat="43.33057" lon="-0.52685">
        <ele>132.8</ele>
        <time>2017-04-28T07:10:13Z</time>
      </trkpt>
      <trkpt lat="43.33055" lon="-0.52679">
        <ele>133.28</ele>
        <time>2017-04-28T07:10:14Z</time>
      </trkpt>
      <trkpt lat="43.33053" lon="-0.52671">
        <ele>133.76</ele>
        <time>2017-04-28T07:10:15Z</time>
      </trkpt>
      <trkpt lat="43.33049" lon="-0.52656">
        <ele>134.72</ele>
        <time>2017-04-28T07:10:17Z</time>
      </trkpt>
      <trkpt lat="43.33046" lon="-0.5265">
        <ele>135.2</ele>
        <time>2017-04-28T07:10:18Z</time>
      </trkpt>
      <trkpt lat="43.33043" lon="-0.52644">
        <ele>135.2</ele>
        <time>2017-04-28T07:10:19Z</time>
      </trkpt>
      <trkpt lat="43.33016" lon="-0.52589">
        <ele>137.13</ele>
        <time>2017-04-28T07:10:31Z</time>
      </trkpt>
      <trkpt lat="43.33" lon="-0.52541">
        <ele>140.49</ele>
        <time>2017-04-28T07:10:43Z</time>
      </trkpt>
      <trkpt lat="43.32979" lon="-0.52494">
        <ele>140.97</ele>
        <time>2017-04-28T07:10:55Z</time>
      </trkpt>
      <trkpt lat="43.32973" lon="-0.5248">
        <ele>141.45</ele>
        <time>2017-04-28T07:10:59Z</time>
      </trkpt>
      <trkpt lat="43.32972" lon="-0.52476">
        <ele>140.97</ele>
        <time>2017-04-28T07:11:00Z</time>
      </trkpt>
      <trkpt lat="43.32971" lon="-0.52473">
        <ele>140.97</ele>
        <time>2017-04-28T07:11:01Z</time>
      </trkpt>
      <trkpt lat="43.3297" lon="-0.52469">
        <ele>140.97</ele>
        <time>2017-04-28T07:11:02Z</time>
      </trkpt>
      <trkpt lat="43.3297" lon="-0.52465">
        <ele>140.97</ele>
        <time>2017-04-28T07:11:03Z</time>
      </trkpt>
      <trkpt lat="43.32956" lon="-0.52409">
        <ele>141.45</ele>
        <time>2017-04-28T07:11:16Z</time>
      </trkpt>
      <trkpt lat="43.32949" lon="-0.52353">
        <ele>144.34</ele>
        <time>2017-04-28T07:11:29Z</time>
      </trkpt>
      <trkpt lat="43.32932" lon="-0.52302">
        <ele>143.37</ele>
        <time>2017-04-28T07:11:40Z</time>
      </trkpt>
      <trkpt lat="43.32928" lon="-0.52298">
        <ele>142.89</ele>
        <time>2017-04-28T07:11:41Z</time>
      </trkpt>
      <trkpt lat="43.32924" lon="-0.52295">
        <ele>142.41</ele>
        <time>2017-04-28T07:11:42Z</time>
      </trkpt>
      <trkpt lat="43.32919" lon="-0.52293">
        <ele>141.93</ele>
        <time>2017-04-28T07:11:43Z</time>
      </trkpt>
      <trkpt lat="43.32909" lon="-0.52292">
        <ele>141.45</ele>
        <time>2017-04-28T07:11:45Z</time>
      </trkpt>
      <trkpt lat="43.32904" lon="-0.52292">
        <ele>141.45</ele>
        <time>2017-04-28T07:11:46Z</time>
      </trkpt>
      <trkpt lat="43.32851" lon="-0.52291">
        <ele>139.05</ele>
        <time>2017-04-28T07:11:54Z</time>
      </trkpt>
      <trkpt lat="43.32778" lon="-0.5226">
        <ele>138.09</ele>
        <time>2017-04-28T07:12:05Z</time>
      </trkpt>
      <trkpt lat="43.32736" lon="-0.52235">
        <ele>136.16</ele>
        <time>2017-04-28T07:12:12Z</time>
      </trkpt>
      <trkpt lat="43.32731" lon="-0.52233">
        <ele>136.16</ele>
        <time>2017-04-28T07:12:13Z</time>
      </trkpt>
      <trkpt lat="43.32721" lon="-0.52229">
        <ele>135.68</ele>
        <time>2017-04-28T07:12:15Z</time>
      </trkpt>
      <trkpt lat="43.32677" lon="-0.52197">
        <ele>136.64</ele>
        <time>2017-04-28T07:12:26Z</time>
      </trkpt>
      <trkpt lat="43.32655" lon="-0.52168">
        <ele>136.16</ele>
        <time>2017-04-28T07:12:33Z</time>
      </trkpt>
      <trkpt lat="43.32651" lon="-0.52164">
        <ele>135.68</ele>
        <time>2017-04-28T07:12:34Z</time>
      </trkpt>
      <trkpt lat="43.32636" lon="-0.52145">
        <ele>134.24</ele>
        <time>2017-04-28T07:12:38Z</time>
      </trkpt>
      <trkpt lat="43.32603" lon="-0.52095">
        <ele>129.43</ele>
        <time>2017-04-28T07:12:48Z</time>
      </trkpt>
      <trkpt lat="43.326" lon="-0.52091">
        <ele>128.95</ele>
        <time>2017-04-28T07:12:49Z</time>
      </trkpt>
      <trkpt lat="43.32566" lon="-0.52034">
        <ele>126.07</ele>
        <time>2017-04-28T07:13:03Z</time>
      </trkpt>
      <trkpt lat="43.32534" lon="-0.51993">
        <ele>132.32</ele>
        <time>2017-04-28T07:13:18Z</time>
      </trkpt>
      <trkpt lat="43.32505" lon="-0.51963">
        <ele>137.13</ele>
        <time>2017-04-28T07:13:31Z</time>
      </trkpt>
      <trkpt lat="43.32463" lon="-0.51933">
        <ele>140.01</ele>
        <time>2017-04-28T07:13:42Z</time>
      </trkpt>
      <trkpt lat="43.3244" lon="-0.51912">
        <ele>139.53</ele>
        <time>2017-04-28T07:13:47Z</time>
      </trkpt>
      <trkpt lat="43.32365" lon="-0.51848">
        <ele>136.64</ele>
        <time>2017-04-28T07:14:01Z</time>
      </trkpt>
      <trkpt lat="43.32327" lon="-0.51815">
        <ele>135.68</ele>
        <time>2017-04-28T07:14:09Z</time>
      </trkpt>
      <trkpt lat="43.32323" lon="-0.51812">
        <ele>135.68</ele>
        <time>2017-04-28T07:14:10Z</time>
      </trkpt>
      <trkpt lat="43.3232" lon="-0.51808">
        <ele>135.68</ele>
        <time>2017-04-28T07:14:11Z</time>
      </trkpt>
      <trkpt lat="43.32316" lon="-0.51804">
        <ele>135.2</ele>
        <time>2017-04-28T07:14:12Z</time>
      </trkpt>
      <trkpt lat="43.32313" lon="-0.518">
        <ele>135.2</ele>
        <time>2017-04-28T07:14:13Z</time>
      </trkpt>
      <trkpt lat="43.32288" lon="-0.51761">
        <ele>132.8</ele>
        <time>2017-04-28T07:14:22Z</time>
      </trkpt>
      <trkpt lat="43.32285" lon="-0.51757">
        <ele>132.8</ele>
        <time>2017-04-28T07:14:23Z</time>
      </trkpt>
      <trkpt lat="43.32282" lon="-0.51752">
        <ele>132.8</ele>
        <time>2017-04-28T07:14:24Z</time>
      </trkpt>
      <trkpt lat="43.32254" lon="-0.517">
        <ele>135.2</ele>
        <time>2017-04-28T07:14:36Z</time>
      </trkpt>
      <trkpt lat="43.32223" lon="-0.51664">
        <ele>136.16</ele>
        <time>2017-04-28T07:14:46Z</time>
      </trkpt>
      <trkpt lat="43.32187" lon="-0.51625">
        <ele>137.13</ele>
        <time>2017-04-28T07:14:58Z</time>
      </trkpt>
      <trkpt lat="43.32173" lon="-0.51611">
        <ele>137.61</ele>
        <time>2017-04-28T07:15:02Z</time>
      </trkpt>
      <trkpt lat="43.32169" lon="-0.51608">
        <ele>137.61</ele>
        <time>2017-04-28T07:15:03Z</time>
      </trkpt>
      <trkpt lat="43.32161" lon="-0.51602">
        <ele>138.57</ele>
        <time>2017-04-28T07:15:05Z</time>
      </trkpt>
      <trkpt lat="43.32124" lon="-0.51572">
        <ele>141.45</ele>
        <time>2017-04-28T07:15:18Z</time>
      </trkpt>
      <trkpt lat="43.32095" lon="-0.51546">
        <ele>143.37</ele>
        <time>2017-04-28T07:15:29Z</time>
      </trkpt>
      <trkpt lat="43.32057" lon="-0.51512">
        <ele>146.74</ele>
        <time>2017-04-28T07:15:41Z</time>
      </trkpt>
      <trkpt lat="43.32031" lon="-0.51458">
        <ele>149.62</ele>
        <time>2017-04-28T07:15:54Z</time>
      </trkpt>
      <trkpt lat="43.32026" lon="-0.51455">
        <ele>149.14</ele>
        <time>2017-04-28T07:15:55Z</time>
      </trkpt>
      <trkpt lat="43.32021" lon="-0.51452">
        <ele>148.66</ele>
        <time>2017-04-28T07:15:56Z</time>
      </trkpt>
      <trkpt lat="43.32016" lon="-0.5145">
        <ele>148.18</ele>
        <time>2017-04-28T07:15:57Z</time>
      </trkpt>
      <trkpt lat="43.3201" lon="-0.51448">
        <ele>147.7</ele>
        <time>2017-04-28T07:15:58Z</time>
      </trkpt>
      <trkpt lat="43.31998" lon="-0.51445">
        <ele>146.74</ele>
        <time>2017-04-28T07:16:00Z</time>
      </trkpt>
      <trkpt lat="43.31993" lon="-0.51442">
        <ele>146.74</ele>
        <time>2017-04-28T07:16:01Z</time>
      </trkpt>
      <trkpt lat="43.31987" lon="-0.51439">
        <ele>146.26</ele>
        <time>2017-04-28T07:16:02Z</time>
      </trkpt>
      <trkpt lat="43.31983" lon="-0.51434">
        <ele>146.26</ele>
        <time>2017-04-28T07:16:03Z</time>
      </trkpt>
      <trkpt lat="43.31977" lon="-0.5143">
        <ele>146.26</ele>
        <time>2017-04-28T07:16:04Z</time>
      </trkpt>
      <trkpt lat="43.31972" lon="-0.51426">
        <ele>145.78</ele>
        <time>2017-04-28T07:16:05Z</time>
      </trkpt>
      <trkpt lat="43.31966" lon="-0.51423">
        <ele>145.78</ele>
        <time>2017-04-28T07:16:06Z</time>
      </trkpt>
      <trkpt lat="43.3196" lon="-0.51421">
        <ele>145.3</ele>
        <time>2017-04-28T07:16:07Z</time>
      </trkpt>
      <trkpt lat="43.31954" lon="-0.51419">
        <ele>145.3</ele>
        <time>2017-04-28T07:16:08Z</time>
      </trkpt>
      <trkpt lat="43.31949" lon="-0.51417">
        <ele>145.3</ele>
        <time>2017-04-28T07:16:09Z</time>
      </trkpt>
      <trkpt lat="43.31923" lon="-0.51387">
        <ele>146.74</ele>
        <time>2017-04-28T07:16:18Z</time>
      </trkpt>
      <trkpt lat="43.31912" lon="-0.51367">
        <ele>148.18</ele>
        <time>2017-04-28T07:16:24Z</time>
      </trkpt>
      <trkpt lat="43.31911" lon="-0.51364">
        <ele>148.66</ele>
        <time>2017-04-28T07:16:25Z</time>
      </trkpt>
      <trkpt lat="43.3191" lon="-0.5136">
        <ele>149.62</ele>
        <time>2017-04-28T07:16:26Z</time>
      </trkpt>
      <trkpt lat="43.31916" lon="-0.5129">
        <ele>161.64</ele>
        <time>2017-04-28T07:16:41Z</time>
      </trkpt>
      <trkpt lat="43.31916" lon="-0.51263">
        <ele>165</ele>
        <time>2017-04-28T07:16:48Z</time>
      </trkpt>
      <trkpt lat="43.31915" lon="-0.51261">
        <ele>165.48</ele>
        <time>2017-04-28T07:16:49Z</time>
      </trkpt>
      <trkpt lat="43.31915" lon="-0.51252">
        <ele>165.96</ele>
        <time>2017-04-28T07:16:52Z</time>
      </trkpt>
      <trkpt lat="43.31914" lon="-0.51249">
        <ele>165.96</ele>
        <time>2017-04-28T07:16:53Z</time>
      </trkpt>
      <trkpt lat="43.31914" lon="-0.51247">
        <ele>165.96</ele>
        <time>2017-04-28T07:16:54Z</time>
      </trkpt>
      <trkpt lat="43.31914" lon="-0.51243">
        <ele>165.96</ele>
        <time>2017-04-28T07:16:55Z</time>
      </trkpt>
      <trkpt lat="43.31914" lon="-0.5124">
        <ele>165.96</ele>
        <time>2017-04-28T07:16:56Z</time>
      </trkpt>
      <trkpt lat="43.31913" lon="-0.51237">
        <ele>165.96</ele>
        <time>2017-04-28T07:16:57Z</time>
      </trkpt>
      <trkpt lat="43.31913" lon="-0.51224">
        <ele>165.48</ele>
        <time>2017-04-28T07:17:07Z</time>
      </trkpt>
      <trkpt lat="43.31913" lon="-0.51227">
        <ele>165</ele>
        <time>2017-04-28T07:17:11Z</time>
      </trkpt>
      <trkpt lat="43.31911" lon="-0.51227">
        <ele>165.48</ele>
        <time>2017-04-28T07:17:12Z</time>
      </trkpt>
      <trkpt lat="43.3191" lon="-0.51227">
        <ele>165.48</ele>
        <time>2017-04-28T07:17:13Z</time>
      </trkpt>
      <trkpt lat="43.31903" lon="-0.51228">
        <ele>164.04</ele>
        <time>2017-04-28T07:17:19Z</time>
      </trkpt>
      <trkpt lat="43.31896" lon="-0.51232">
        <ele>164.52</ele>
        <time>2017-04-28T07:17:31Z</time>
      </trkpt>
      <trkpt lat="43.31894" lon="-0.51231">
        <ele>163.08</ele>
        <time>2017-04-28T07:17:51Z</time>
      </trkpt>
      <trkpt lat="43.31891" lon="-0.51232">
        <ele>160.68</ele>
        <time>2017-04-28T07:18:08Z</time>
      </trkpt>
      <trkpt lat="43.31889" lon="-0.51233">
        <ele>160.68</ele>
        <time>2017-04-28T07:18:10Z</time>
      </trkpt>
      <trkpt lat="43.31883" lon="-0.5123">
        <ele>161.16</ele>
        <time>2017-04-28T07:18:15Z</time>
      </trkpt>
      <trkpt lat="43.31882" lon="-0.51229">
        <ele>161.64</ele>
        <time>2017-04-28T07:18:16Z</time>
      </trkpt>
      <trkpt lat="43.31871" lon="-0.51224">
        <ele>163.08</ele>
        <time>2017-04-28T07:18:25Z</time>
      </trkpt>
      <trkpt lat="43.31862" lon="-0.5122">
        <ele>164.52</ele>
        <time>2017-04-28T07:18:32Z</time>
      </trkpt>
      <trkpt lat="43.31858" lon="-0.51216">
        <ele>164.04</ele>
        <time>2017-04-28T07:18:35Z</time>
      </trkpt>
      <trkpt lat="43.31856" lon="-0.51212">
        <ele>164.04</ele>
        <time>2017-04-28T07:18:39Z</time>
      </trkpt>
      <trkpt lat="43.31842" lon="-0.51196">
        <ele>166.93</ele>
        <time>2017-04-28T07:18:54Z</time>
      </trkpt>
      <trkpt lat="43.31831" lon="-0.5119">
        <ele>167.89</ele>
        <time>2017-04-28T07:19:02Z</time>
      </trkpt>
      <trkpt lat="43.31823" lon="-0.51191">
        <ele>169.81</ele>
        <time>2017-04-28T07:19:08Z</time>
      </trkpt>
      <trkpt lat="43.31804" lon="-0.51191">
        <ele>175.58</ele>
        <time>2017-04-28T07:19:23Z</time>
      </trkpt>
      <trkpt lat="43.31798" lon="-0.51188">
        <ele>177.02</ele>
        <time>2017-04-28T07:19:28Z</time>
      </trkpt>
      <trkpt lat="43.31797" lon="-0.51187">
        <ele>177.5</ele>
        <time>2017-04-28T07:19:29Z</time>
      </trkpt>
      <trkpt lat="43.3179" lon="-0.51182">
        <ele>178.94</ele>
        <time>2017-04-28T07:19:34Z</time>
      </trkpt>
      <trkpt lat="43.31789" lon="-0.51181">
        <ele>178.94</ele>
        <time>2017-04-28T07:19:35Z</time>
      </trkpt>
      <trkpt lat="43.31788" lon="-0.5118">
        <ele>179.42</ele>
        <time>2017-04-28T07:19:36Z</time>
      </trkpt>
      <trkpt lat="43.31787" lon="-0.51179">
        <ele>179.42</ele>
        <time>2017-04-28T07:19:37Z</time>
      </trkpt>
      <trkpt lat="43.31785" lon="-0.51179">
        <ele>178.94</ele>
        <time>2017-04-28T07:19:38Z</time>
      </trkpt>
      <trkpt lat="43.31764" lon="-0.51179">
        <ele>181.35</ele>
        <time>2017-04-28T07:19:53Z</time>
      </trkpt>
      <trkpt lat="43.31748" lon="-0.51178">
        <ele>183.75</ele>
        <time>2017-04-28T07:20:06Z</time>
      </trkpt>
      <trkpt lat="43.31727" lon="-0.51176">
        <ele>185.19</ele>
        <time>2017-04-28T07:20:19Z</time>
      </trkpt>
      <trkpt lat="43.31709" lon="-0.51176">
        <ele>187.11</ele>
        <time>2017-04-28T07:20:33Z</time>
      </trkpt>
      <trkpt lat="43.31693" lon="-0.51174">
        <ele>190.96</ele>
        <time>2017-04-28T07:20:46Z</time>
      </trkpt>
      <trkpt lat="43.31676" lon="-0.51162">
        <ele>190.96</ele>
        <time>2017-04-28T07:21:00Z</time>
      </trkpt>
      <trkpt lat="43.31674" lon="-0.51161">
        <ele>190.96</ele>
        <time>2017-04-28T07:21:01Z</time>
      </trkpt>
      <trkpt lat="43.31664" lon="-0.51156">
        <ele>188.56</ele>
        <time>2017-04-28T07:21:09Z</time>
      </trkpt>
      <trkpt lat="43.3165" lon="-0.51145">
        <ele>189.52</ele>
        <time>2017-04-28T07:21:22Z</time>
      </trkpt>
      <trkpt lat="43.31634" lon="-0.51129">
        <ele>188.56</ele>
        <time>2017-04-28T07:21:33Z</time>
      </trkpt>
      <trkpt lat="43.31616" lon="-0.51115">
        <ele>191.44</ele>
        <time>2017-04-28T07:21:46Z</time>
      </trkpt>
      <trkpt lat="43.31613" lon="-0.51113">
        <ele>191.92</ele>
        <time>2017-04-28T07:21:48Z</time>
      </trkpt>
      <trkpt lat="43.31612" lon="-0.51112">
        <ele>191.92</ele>
        <time>2017-04-28T07:21:49Z</time>
      </trkpt>
      <trkpt lat="43.3161" lon="-0.5111">
        <ele>191.92</ele>
        <time>2017-04-28T07:21:50Z</time>
      </trkpt>
      <trkpt lat="43.31608" lon="-0.51109">
        <ele>191.92</ele>
        <time>2017-04-28T07:21:51Z</time>
      </trkpt>
      <trkpt lat="43.31607" lon="-0.51107">
        <ele>191.92</ele>
        <time>2017-04-28T07:21:52Z</time>
      </trkpt>
      <trkpt lat="43.31606" lon="-0.51106">
        <ele>192.4</ele>
        <time>2017-04-28T07:21:53Z</time>
      </trkpt>
      <trkpt lat="43.31604" lon="-0.51105">
        <ele>192.4</ele>
        <time>2017-04-28T07:21:54Z</time>
      </trkpt>
      <trkpt lat="43.31603" lon="-0.51104">
        <ele>192.4</ele>
        <time>2017-04-28T07:21:55Z</time>
      </trkpt>
      <trkpt lat="43.31592" lon="-0.51092">
        <ele>193.84</ele>
        <time>2017-04-28T07:22:04Z</time>
      </trkpt>
      <trkpt lat="43.31591" lon="-0.5109">
        <ele>194.32</ele>
        <time>2017-04-28T07:22:05Z</time>
      </trkpt>
      <trkpt lat="43.31587" lon="-0.51081">
        <ele>195.28</ele>
        <time>2017-04-28T07:22:11Z</time>
      </trkpt>
      <trkpt lat="43.31575" lon="-0.51066">
        <ele>196.25</ele>
        <time>2017-04-28T07:22:23Z</time>
      </trkpt>
      <trkpt lat="43.31572" lon="-0.51062">
        <ele>197.69</ele>
        <time>2017-04-28T07:22:26Z</time>
      </trkpt>
      <trkpt lat="43.31571" lon="-0.5106">
        <ele>198.17</ele>
        <time>2017-04-28T07:22:27Z</time>
      </trkpt>
      <trkpt lat="43.3157" lon="-0.51058">
        <ele>198.65</ele>
        <time>2017-04-28T07:22:28Z</time>
      </trkpt>
      <trkpt lat="43.31569" lon="-0.51056">
        <ele>198.65</ele>
        <time>2017-04-28T07:22:29Z</time>
      </trkpt>
      <trkpt lat="43.31568" lon="-0.51055">
        <ele>199.13</ele>
        <time>2017-04-28T07:22:30Z</time>
      </trkpt>
      <trkpt lat="43.31561" lon="-0.51045">
        <ele>200.57</ele>
        <time>2017-04-28T07:22:35Z</time>
      </trkpt>
      <trkpt lat="43.3156" lon="-0.51043">
        <ele>200.57</ele>
        <time>2017-04-28T07:22:36Z</time>
      </trkpt>
      <trkpt lat="43.31559" lon="-0.51042">
        <ele>201.05</ele>
        <time>2017-04-28T07:22:37Z</time>
      </trkpt>
      <trkpt lat="43.31554" lon="-0.51039">
        <ele>202.01</ele>
        <time>2017-04-28T07:22:41Z</time>
      </trkpt>
      <trkpt lat="43.31552" lon="-0.51038">
        <ele>202.49</ele>
        <time>2017-04-28T07:22:42Z</time>
      </trkpt>
      <trkpt lat="43.31529" lon="-0.51033">
        <ele>205.38</ele>
        <time>2017-04-28T07:22:55Z</time>
      </trkpt>
      <trkpt lat="43.31521" lon="-0.51025">
        <ele>204.42</ele>
        <time>2017-04-28T07:23:01Z</time>
      </trkpt>
      <trkpt lat="43.31521" lon="-0.51023">
        <ele>204.42</ele>
        <time>2017-04-28T07:23:02Z</time>
      </trkpt>
      <trkpt lat="43.31522" lon="-0.51021">
        <ele>203.94</ele>
        <time>2017-04-28T07:23:03Z</time>
      </trkpt>
      <trkpt lat="43.31521" lon="-0.51016">
        <ele>203.46</ele>
        <time>2017-04-28T07:23:07Z</time>
      </trkpt>
      <trkpt lat="43.31513" lon="-0.5101">
        <ele>202.49</ele>
        <time>2017-04-28T07:23:17Z</time>
      </trkpt>
      <trkpt lat="43.31486" lon="-0.51008">
        <ele>203.94</ele>
        <time>2017-04-28T07:23:34Z</time>
      </trkpt>
      <trkpt lat="43.31475" lon="-0.50997">
        <ele>203.46</ele>
        <time>2017-04-28T07:23:44Z</time>
      </trkpt>
      <trkpt lat="43.31473" lon="-0.50996">
        <ele>202.98</ele>
        <time>2017-04-28T07:23:45Z</time>
      </trkpt>
      <trkpt lat="43.31471" lon="-0.50995">
        <ele>202.98</ele>
        <time>2017-04-28T07:23:46Z</time>
      </trkpt>
      <trkpt lat="43.3147" lon="-0.50994">
        <ele>202.49</ele>
        <time>2017-04-28T07:23:47Z</time>
      </trkpt>
      <trkpt lat="43.31468" lon="-0.50992">
        <ele>202.49</ele>
        <time>2017-04-28T07:23:48Z</time>
      </trkpt>
      <trkpt lat="43.31467" lon="-0.5099">
        <ele>202.01</ele>
        <time>2017-04-28T07:23:49Z</time>
      </trkpt>
      <trkpt lat="43.31466" lon="-0.50989">
        <ele>202.01</ele>
        <time>2017-04-28T07:23:50Z</time>
      </trkpt>
      <trkpt lat="43.31465" lon="-0.50987">
        <ele>201.53</ele>
        <time>2017-04-28T07:23:51Z</time>
      </trkpt>
      <trkpt lat="43.31465" lon="-0.50985">
        <ele>201.53</ele>
        <time>2017-04-28T07:23:52Z</time>
      </trkpt>
      <trkpt lat="43.31465" lon="-0.50983">
        <ele>201.53</ele>
        <time>2017-04-28T07:23:53Z</time>
      </trkpt>
      <trkpt lat="43.31465" lon="-0.50981">
        <ele>201.53</ele>
        <time>2017-04-28T07:23:54Z</time>
      </trkpt>
      <trkpt lat="43.31466" lon="-0.50979">
        <ele>201.53</ele>
        <time>2017-04-28T07:23:55Z</time>
      </trkpt>
      <trkpt lat="43.31466" lon="-0.50966">
        <ele>202.49</ele>
        <time>2017-04-28T07:24:06Z</time>
      </trkpt>
      <trkpt lat="43.31465" lon="-0.50963">
        <ele>202.01</ele>
        <time>2017-04-28T07:24:07Z</time>
      </trkpt>
      <trkpt lat="43.31464" lon="-0.50957">
        <ele>201.53</ele>
        <time>2017-04-28T07:24:09Z</time>
      </trkpt>
      <trkpt lat="43.31464" lon="-0.50954">
        <ele>201.53</ele>
        <time>2017-04-28T07:24:10Z</time>
      </trkpt>
      <trkpt lat="43.31457" lon="-0.50932">
        <ele>202.98</ele>
        <time>2017-04-28T07:24:20Z</time>
      </trkpt>
      <trkpt lat="43.31454" lon="-0.50926">
        <ele>203.46</ele>
        <time>2017-04-28T07:24:22Z</time>
      </trkpt>
      <trkpt lat="43.31452" lon="-0.50926">
        <ele>203.46</ele>
        <time>2017-04-28T07:24:23Z</time>
      </trkpt>
      <trkpt lat="43.3145" lon="-0.50925">
        <ele>203.94</ele>
        <time>2017-04-28T07:24:24Z</time>
      </trkpt>
      <trkpt lat="43.31448" lon="-0.50926">
        <ele>203.94</ele>
        <time>2017-04-28T07:24:26Z</time>
      </trkpt>
      <trkpt lat="43.31447" lon="-0.50926">
        <ele>204.42</ele>
        <time>2017-04-28T07:24:27Z</time>
      </trkpt>
      <trkpt lat="43.31447" lon="-0.50929">
        <ele>204.9</ele>
        <time>2017-04-28T07:24:29Z</time>
      </trkpt>
      <trkpt lat="43.31447" lon="-0.5093">
        <ele>204.9</ele>
        <time>2017-04-28T07:24:30Z</time>
      </trkpt>
      <trkpt lat="43.31446" lon="-0.50932">
        <ele>204.9</ele>
        <time>2017-04-28T07:24:31Z</time>
      </trkpt>
      <trkpt lat="43.31443" lon="-0.50943">
        <ele>207.78</ele>
        <time>2017-04-28T07:24:39Z</time>
      </trkpt>
      <trkpt lat="43.31442" lon="-0.50943">
        <ele>207.78</ele>
        <time>2017-04-28T07:24:40Z</time>
      </trkpt>
      <trkpt lat="43.3144" lon="-0.5094">
        <ele>208.74</ele>
        <time>2017-04-28T07:24:43Z</time>
      </trkpt>
      <trkpt lat="43.31431" lon="-0.50926">
        <ele>208.74</ele>
        <time>2017-04-28T07:24:54Z</time>
      </trkpt>
      <trkpt lat="43.3143" lon="-0.50925">
        <ele>208.74</ele>
        <time>2017-04-28T07:24:55Z</time>
      </trkpt>
      <trkpt lat="43.3143" lon="-0.50923">
        <ele>208.74</ele>
        <time>2017-04-28T07:24:56Z</time>
      </trkpt>
      <trkpt lat="43.31428" lon="-0.50922">
        <ele>208.74</ele>
        <time>2017-04-28T07:24:57Z</time>
      </trkpt>
      <trkpt lat="43.31427" lon="-0.50921">
        <ele>209.22</ele>
        <time>2017-04-28T07:24:58Z</time>
      </trkpt>
      <trkpt lat="43.31427" lon="-0.50919">
        <ele>209.22</ele>
        <time>2017-04-28T07:24:59Z</time>
      </trkpt>
      <trkpt lat="43.31426" lon="-0.50918">
        <ele>209.22</ele>
        <time>2017-04-28T07:25:00Z</time>
      </trkpt>
      <trkpt lat="43.31425" lon="-0.50917">
        <ele>209.22</ele>
        <time>2017-04-28T07:25:01Z</time>
      </trkpt>
      <trkpt lat="43.31425" lon="-0.50915">
        <ele>209.7</ele>
        <time>2017-04-28T07:25:02Z</time>
      </trkpt>
      <trkpt lat="43.31422" lon="-0.50909">
        <ele>211.15</ele>
        <time>2017-04-28T07:25:06Z</time>
      </trkpt>
      <trkpt lat="43.31422" lon="-0.50906">
        <ele>212.11</ele>
        <time>2017-04-28T07:25:08Z</time>
      </trkpt>
      <trkpt lat="43.31421" lon="-0.50904">
        <ele>212.11</ele>
        <time>2017-04-28T07:25:09Z</time>
      </trkpt>
      <trkpt lat="43.31421" lon="-0.50902">
        <ele>212.59</ele>
        <time>2017-04-28T07:25:10Z</time>
      </trkpt>
      <trkpt lat="43.3142" lon="-0.50901">
        <ele>212.59</ele>
        <time>2017-04-28T07:25:11Z</time>
      </trkpt>
      <trkpt lat="43.31411" lon="-0.50882">
        <ele>214.51</ele>
        <time>2017-04-28T07:25:25Z</time>
      </trkpt>
      <trkpt lat="43.31399" lon="-0.50869">
        <ele>220.28</ele>
        <time>2017-04-28T07:25:38Z</time>
      </trkpt>
      <trkpt lat="43.31392" lon="-0.50863">
        <ele>222.2</ele>
        <time>2017-04-28T07:25:43Z</time>
      </trkpt>
      <trkpt lat="43.31377" lon="-0.50857">
        <ele>225.57</ele>
        <time>2017-04-28T07:25:55Z</time>
      </trkpt>
      <trkpt lat="43.31363" lon="-0.50853">
        <ele>229.89</ele>
        <time>2017-04-28T07:26:08Z</time>
      </trkpt>
      <trkpt lat="43.31354" lon="-0.50847">
        <ele>231.33</ele>
        <time>2017-04-28T07:26:18Z</time>
      </trkpt>
      <trkpt lat="43.3134" lon="-0.50829">
        <ele>234.7</ele>
        <time>2017-04-28T07:26:33Z</time>
      </trkpt>
      <trkpt lat="43.31329" lon="-0.50812">
        <ele>235.18</ele>
        <time>2017-04-28T07:26:46Z</time>
      </trkpt>
      <trkpt lat="43.31311" lon="-0.50791">
        <ele>236.62</ele>
        <time>2017-04-28T07:26:55Z</time>
      </trkpt>
      <trkpt lat="43.31309" lon="-0.5079">
        <ele>237.1</ele>
        <time>2017-04-28T07:26:56Z</time>
      </trkpt>
      <trkpt lat="43.31308" lon="-0.50789">
        <ele>237.1</ele>
        <time>2017-04-28T07:26:57Z</time>
      </trkpt>
      <trkpt lat="43.31306" lon="-0.50788">
        <ele>237.1</ele>
        <time>2017-04-28T07:26:58Z</time>
      </trkpt>
      <trkpt lat="43.31304" lon="-0.50788">
        <ele>237.1</ele>
        <time>2017-04-28T07:26:59Z</time>
      </trkpt>
      <trkpt lat="43.31302" lon="-0.50788">
        <ele>237.1</ele>
        <time>2017-04-28T07:27:00Z</time>
      </trkpt>
      <trkpt lat="43.31299" lon="-0.50787">
        <ele>237.1</ele>
        <time>2017-04-28T07:27:01Z</time>
      </trkpt>
      <trkpt lat="43.31298" lon="-0.50787">
        <ele>236.62</ele>
        <time>2017-04-28T07:27:02Z</time>
      </trkpt>
      <trkpt lat="43.31295" lon="-0.50785">
        <ele>236.62</ele>
        <time>2017-04-28T07:27:03Z</time>
      </trkpt>
      <trkpt lat="43.31293" lon="-0.50784">
        <ele>237.1</ele>
        <time>2017-04-28T07:27:04Z</time>
      </trkpt>
      <trkpt lat="43.31268" lon="-0.50769">
        <ele>235.18</ele>
        <time>2017-04-28T07:27:18Z</time>
      </trkpt>
      <trkpt lat="43.31265" lon="-0.50768">
        <ele>235.18</ele>
        <time>2017-04-28T07:27:20Z</time>
      </trkpt>
      <trkpt lat="43.31263" lon="-0.50768">
        <ele>234.7</ele>
        <time>2017-04-28T07:27:21Z</time>
      </trkpt>
      <trkpt lat="43.31261" lon="-0.50767">
        <ele>234.7</ele>
        <time>2017-04-28T07:27:22Z</time>
      </trkpt>
      <trkpt lat="43.31259" lon="-0.50767">
        <ele>234.7</ele>
        <time>2017-04-28T07:27:23Z</time>
      </trkpt>
      <trkpt lat="43.31257" lon="-0.50766">
        <ele>234.7</ele>
        <time>2017-04-28T07:27:24Z</time>
      </trkpt>
      <trkpt lat="43.31255" lon="-0.50765">
        <ele>234.7</ele>
        <time>2017-04-28T07:27:25Z</time>
      </trkpt>
      <trkpt lat="43.31253" lon="-0.50765">
        <ele>234.7</ele>
        <time>2017-04-28T07:27:26Z</time>
      </trkpt>
      <trkpt lat="43.31252" lon="-0.50764">
        <ele>234.22</ele>
        <time>2017-04-28T07:27:27Z</time>
      </trkpt>
      <trkpt lat="43.31234" lon="-0.50751">
        <ele>234.7</ele>
        <time>2017-04-28T07:27:41Z</time>
      </trkpt>
      <trkpt lat="43.31214" lon="-0.50723">
        <ele>234.22</ele>
        <time>2017-04-28T07:27:52Z</time>
      </trkpt>
      <trkpt lat="43.31205" lon="-0.50711">
        <ele>233.26</ele>
        <time>2017-04-28T07:27:56Z</time>
      </trkpt>
      <trkpt lat="43.31204" lon="-0.50708">
        <ele>233.26</ele>
        <time>2017-04-28T07:27:57Z</time>
      </trkpt>
      <trkpt lat="43.31203" lon="-0.50706">
        <ele>233.74</ele>
        <time>2017-04-28T07:27:58Z</time>
      </trkpt>
      <trkpt lat="43.31203" lon="-0.50704">
        <ele>233.74</ele>
        <time>2017-04-28T07:27:59Z</time>
      </trkpt>
      <trkpt lat="43.31202" lon="-0.50702">
        <ele>233.74</ele>
        <time>2017-04-28T07:28:00Z</time>
      </trkpt>
      <trkpt lat="43.312" lon="-0.507">
        <ele>234.22</ele>
        <time>2017-04-28T07:28:01Z</time>
      </trkpt>
      <trkpt lat="43.31199" lon="-0.50698">
        <ele>234.7</ele>
        <time>2017-04-28T07:28:02Z</time>
      </trkpt>
      <trkpt lat="43.31197" lon="-0.50694">
        <ele>234.7</ele>
        <time>2017-04-28T07:28:04Z</time>
      </trkpt>
      <trkpt lat="43.31195" lon="-0.50692">
        <ele>234.7</ele>
        <time>2017-04-28T07:28:05Z</time>
      </trkpt>
      <trkpt lat="43.31186" lon="-0.50674">
        <ele>234.22</ele>
        <time>2017-04-28T07:28:12Z</time>
      </trkpt>
      <trkpt lat="43.31184" lon="-0.50672">
        <ele>234.22</ele>
        <time>2017-04-28T07:28:13Z</time>
      </trkpt>
      <trkpt lat="43.31182" lon="-0.50669">
        <ele>233.74</ele>
        <time>2017-04-28T07:28:14Z</time>
      </trkpt>
      <trkpt lat="43.3118" lon="-0.50666">
        <ele>234.22</ele>
        <time>2017-04-28T07:28:15Z</time>
      </trkpt>
      <trkpt lat="43.31178" lon="-0.50664">
        <ele>234.7</ele>
        <time>2017-04-28T07:28:16Z</time>
      </trkpt>
      <trkpt lat="43.31176" lon="-0.50662">
        <ele>235.18</ele>
        <time>2017-04-28T07:28:17Z</time>
      </trkpt>
      <trkpt lat="43.31165" lon="-0.50654">
        <ele>239.02</ele>
        <time>2017-04-28T07:28:31Z</time>
      </trkpt>
      <trkpt lat="43.31165" lon="-0.50653">
        <ele>238.06</ele>
        <time>2017-04-28T07:28:58Z</time>
      </trkpt>
      <trkpt lat="43.3116" lon="-0.50654">
        <ele>234.7</ele>
        <time>2017-04-28T07:29:23Z</time>
      </trkpt>
      <trkpt lat="43.31121" lon="-0.50642">
        <ele>233.26</ele>
        <time>2017-04-28T07:29:33Z</time>
      </trkpt>
      <trkpt lat="43.31103" lon="-0.50633">
        <ele>233.74</ele>
        <time>2017-04-28T07:29:37Z</time>
      </trkpt>
      <trkpt lat="43.31099" lon="-0.50629">
        <ele>234.22</ele>
        <time>2017-04-28T07:29:38Z</time>
      </trkpt>
      <trkpt lat="43.31096" lon="-0.50625">
        <ele>234.22</ele>
        <time>2017-04-28T07:29:39Z</time>
      </trkpt>
      <trkpt lat="43.31095" lon="-0.50621">
        <ele>234.22</ele>
        <time>2017-04-28T07:29:40Z</time>
      </trkpt>
      <trkpt lat="43.31094" lon="-0.50615">
        <ele>234.22</ele>
        <time>2017-04-28T07:29:41Z</time>
      </trkpt>
      <trkpt lat="43.31093" lon="-0.50609">
        <ele>234.22</ele>
        <time>2017-04-28T07:29:42Z</time>
      </trkpt>
      <trkpt lat="43.31092" lon="-0.50605">
        <ele>234.22</ele>
        <time>2017-04-28T07:29:43Z</time>
      </trkpt>
      <trkpt lat="43.3109" lon="-0.50601">
        <ele>234.22</ele>
        <time>2017-04-28T07:29:44Z</time>
      </trkpt>
      <trkpt lat="43.31088" lon="-0.506">
        <ele>234.22</ele>
        <time>2017-04-28T07:29:45Z</time>
      </trkpt>
      <trkpt lat="43.31086" lon="-0.50598">
        <ele>233.74</ele>
        <time>2017-04-28T07:29:46Z</time>
      </trkpt>
      <trkpt lat="43.31051" lon="-0.50574">
        <ele>230.85</ele>
        <time>2017-04-28T07:29:59Z</time>
      </trkpt>
      <trkpt lat="43.31019" lon="-0.50553">
        <ele>226.53</ele>
        <time>2017-04-28T07:30:12Z</time>
      </trkpt>
      <trkpt lat="43.30973" lon="-0.50514">
        <ele>221.72</ele>
        <time>2017-04-28T07:30:26Z</time>
      </trkpt>
      <trkpt lat="43.30944" lon="-0.5048">
        <ele>222.68</ele>
        <time>2017-04-28T07:30:38Z</time>
      </trkpt>
      <trkpt lat="43.30913" lon="-0.50467">
        <ele>227.97</ele>
        <time>2017-04-28T07:30:49Z</time>
      </trkpt>
      <trkpt lat="43.30889" lon="-0.50455">
        <ele>235.18</ele>
        <time>2017-04-28T07:31:01Z</time>
      </trkpt>
      <trkpt lat="43.30858" lon="-0.50436">
        <ele>235.66</ele>
        <time>2017-04-28T07:31:17Z</time>
      </trkpt>
      <trkpt lat="43.30839" lon="-0.50428">
        <ele>236.14</ele>
        <time>2017-04-28T07:31:31Z</time>
      </trkpt>
      <trkpt lat="43.30837" lon="-0.50426">
        <ele>236.62</ele>
        <time>2017-04-28T07:31:33Z</time>
      </trkpt>
      <trkpt lat="43.30835" lon="-0.50426">
        <ele>236.62</ele>
        <time>2017-04-28T07:31:34Z</time>
      </trkpt>
      <trkpt lat="43.30834" lon="-0.50425">
        <ele>236.62</ele>
        <time>2017-04-28T07:31:35Z</time>
      </trkpt>
      <trkpt lat="43.30822" lon="-0.50416">
        <ele>239.02</ele>
        <time>2017-04-28T07:31:48Z</time>
      </trkpt>
      <trkpt lat="43.30807" lon="-0.50399">
        <ele>241.91</ele>
        <time>2017-04-28T07:32:03Z</time>
      </trkpt>
      <trkpt lat="43.30794" lon="-0.50383">
        <ele>245.75</ele>
        <time>2017-04-28T07:32:19Z</time>
      </trkpt>
      <trkpt lat="43.30781" lon="-0.50371">
        <ele>249.12</ele>
        <time>2017-04-28T07:32:34Z</time>
      </trkpt>
      <trkpt lat="43.3077" lon="-0.50361">
        <ele>250.56</ele>
        <time>2017-04-28T07:32:47Z</time>
      </trkpt>
      <trkpt lat="43.30754" lon="-0.50346">
        <ele>254.41</ele>
        <time>2017-04-28T07:33:01Z</time>
      </trkpt>
      <trkpt lat="43.30734" lon="-0.50335">
        <ele>255.85</ele>
        <time>2017-04-28T07:33:16Z</time>
      </trkpt>
      <trkpt lat="43.30708" lon="-0.50307">
        <ele>256.33</ele>
        <time>2017-04-28T07:33:34Z</time>
      </trkpt>
      <trkpt lat="43.30687" lon="-0.50282">
        <ele>257.77</ele>
        <time>2017-04-28T07:33:50Z</time>
      </trkpt>
      <trkpt lat="43.30671" lon="-0.50265">
        <ele>258.73</ele>
        <time>2017-04-28T07:34:03Z</time>
      </trkpt>
      <trkpt lat="43.30651" lon="-0.50244">
        <ele>261.62</ele>
        <time>2017-04-28T07:34:19Z</time>
      </trkpt>
      <trkpt lat="43.30636" lon="-0.50225">
        <ele>264.02</ele>
        <time>2017-04-28T07:34:32Z</time>
      </trkpt>
      <trkpt lat="43.30622" lon="-0.50202">
        <ele>265.94</ele>
        <time>2017-04-28T07:34:46Z</time>
      </trkpt>
      <trkpt lat="43.30609" lon="-0.50176">
        <ele>268.83</ele>
        <time>2017-04-28T07:35:00Z</time>
      </trkpt>
      <trkpt lat="43.30593" lon="-0.50155">
        <ele>268.83</ele>
        <time>2017-04-28T07:35:12Z</time>
      </trkpt>
      <trkpt lat="43.30592" lon="-0.50153">
        <ele>268.35</ele>
        <time>2017-04-28T07:35:13Z</time>
      </trkpt>
      <trkpt lat="43.30591" lon="-0.50151">
        <ele>268.35</ele>
        <time>2017-04-28T07:35:14Z</time>
      </trkpt>
      <trkpt lat="43.3059" lon="-0.50149">
        <ele>268.35</ele>
        <time>2017-04-28T07:35:15Z</time>
      </trkpt>
      <trkpt lat="43.30589" lon="-0.50147">
        <ele>268.83</ele>
        <time>2017-04-28T07:35:16Z</time>
      </trkpt>
      <trkpt lat="43.30588" lon="-0.50146">
        <ele>268.83</ele>
        <time>2017-04-28T07:35:17Z</time>
      </trkpt>
      <trkpt lat="43.30586" lon="-0.50143">
        <ele>268.35</ele>
        <time>2017-04-28T07:35:18Z</time>
      </trkpt>
      <trkpt lat="43.30553" lon="-0.50101">
        <ele>264.02</ele>
        <time>2017-04-28T07:35:28Z</time>
      </trkpt>
      <trkpt lat="43.30527" lon="-0.50065">
        <ele>259.69</ele>
        <time>2017-04-28T07:35:33Z</time>
      </trkpt>
      <trkpt lat="43.30523" lon="-0.50058">
        <ele>259.21</ele>
        <time>2017-04-28T07:35:34Z</time>
      </trkpt>
      <trkpt lat="43.3052" lon="-0.50049">
        <ele>258.25</ele>
        <time>2017-04-28T07:35:35Z</time>
      </trkpt>
      <trkpt lat="43.30518" lon="-0.5004">
        <ele>257.77</ele>
        <time>2017-04-28T07:35:36Z</time>
      </trkpt>
      <trkpt lat="43.30517" lon="-0.50031">
        <ele>257.29</ele>
        <time>2017-04-28T07:35:37Z</time>
      </trkpt>
      <trkpt lat="43.30517" lon="-0.50024">
        <ele>256.33</ele>
        <time>2017-04-28T07:35:38Z</time>
      </trkpt>
      <trkpt lat="43.30517" lon="-0.50016">
        <ele>255.85</ele>
        <time>2017-04-28T07:35:39Z</time>
      </trkpt>
      <trkpt lat="43.30518" lon="-0.49998">
        <ele>253.93</ele>
        <time>2017-04-28T07:35:44Z</time>
      </trkpt>
      <trkpt lat="43.30517" lon="-0.49997">
        <ele>253.44</ele>
        <time>2017-04-28T07:35:45Z</time>
      </trkpt>
      <trkpt lat="43.30515" lon="-0.49997">
        <ele>253.44</ele>
        <time>2017-04-28T07:35:46Z</time>
      </trkpt>
      <trkpt lat="43.30513" lon="-0.49997">
        <ele>253.44</ele>
        <time>2017-04-28T07:35:47Z</time>
      </trkpt>
      <trkpt lat="43.30512" lon="-0.49998">
        <ele>253.93</ele>
        <time>2017-04-28T07:35:48Z</time>
      </trkpt>
      <trkpt lat="43.30511" lon="-0.49999">
        <ele>254.41</ele>
        <time>2017-04-28T07:35:49Z</time>
      </trkpt>
      <trkpt lat="43.3051" lon="-0.5">
        <ele>254.89</ele>
        <time>2017-04-28T07:35:50Z</time>
      </trkpt>
      <trkpt lat="43.30509" lon="-0.50002">
        <ele>255.37</ele>
        <time>2017-04-28T07:35:51Z</time>
      </trkpt>
      <trkpt lat="43.30504" lon="-0.50043">
        <ele>256.81</ele>
        <time>2017-04-28T07:36:03Z</time>
      </trkpt>
      <trkpt lat="43.30498" lon="-0.50087">
        <ele>253.93</ele>
        <time>2017-04-28T07:36:14Z</time>
      </trkpt>
      <trkpt lat="43.30497" lon="-0.50093">
        <ele>253.44</ele>
        <time>2017-04-28T07:36:15Z</time>
      </trkpt>
      <trkpt lat="43.30495" lon="-0.50098">
        <ele>252.96</ele>
        <time>2017-04-28T07:36:16Z</time>
      </trkpt>
      <trkpt lat="43.30493" lon="-0.50104">
        <ele>252.48</ele>
        <time>2017-04-28T07:36:17Z</time>
      </trkpt>
      <trkpt lat="43.30491" lon="-0.5011">
        <ele>252.48</ele>
        <time>2017-04-28T07:36:18Z</time>
      </trkpt>
      <trkpt lat="43.30488" lon="-0.50115">
        <ele>252</ele>
        <time>2017-04-28T07:36:19Z</time>
      </trkpt>
      <trkpt lat="43.30485" lon="-0.5012">
        <ele>251.52</ele>
        <time>2017-04-28T07:36:20Z</time>
      </trkpt>
      <trkpt lat="43.30482" lon="-0.50125">
        <ele>250.56</ele>
        <time>2017-04-28T07:36:21Z</time>
      </trkpt>
      <trkpt lat="43.30479" lon="-0.5013">
        <ele>250.08</ele>
        <time>2017-04-28T07:36:22Z</time>
      </trkpt>
      <trkpt lat="43.30476" lon="-0.50136">
        <ele>249.6</ele>
        <time>2017-04-28T07:36:23Z</time>
      </trkpt>
      <trkpt lat="43.30465" lon="-0.50152">
        <ele>247.68</ele>
        <time>2017-04-28T07:36:26Z</time>
      </trkpt>
      <trkpt lat="43.30462" lon="-0.50156">
        <ele>246.72</ele>
        <time>2017-04-28T07:36:27Z</time>
      </trkpt>
      <trkpt lat="43.30458" lon="-0.5016">
        <ele>245.75</ele>
        <time>2017-04-28T07:36:28Z</time>
      </trkpt>
      <trkpt lat="43.30454" lon="-0.50163">
        <ele>245.27</ele>
        <time>2017-04-28T07:36:29Z</time>
      </trkpt>
      <trkpt lat="43.30451" lon="-0.50168">
        <ele>244.31</ele>
        <time>2017-04-28T07:36:30Z</time>
      </trkpt>
      <trkpt lat="43.30448" lon="-0.50173">
        <ele>243.83</ele>
        <time>2017-04-28T07:36:31Z</time>
      </trkpt>
      <trkpt lat="43.30446" lon="-0.50179">
        <ele>243.35</ele>
        <time>2017-04-28T07:36:32Z</time>
      </trkpt>
      <trkpt lat="43.30445" lon="-0.50184">
        <ele>242.39</ele>
        <time>2017-04-28T07:36:33Z</time>
      </trkpt>
      <trkpt lat="43.30444" lon="-0.50188">
        <ele>241.43</ele>
        <time>2017-04-28T07:36:34Z</time>
      </trkpt>
      <trkpt lat="43.30444" lon="-0.50192">
        <ele>240.47</ele>
        <time>2017-04-28T07:36:35Z</time>
      </trkpt>
      <trkpt lat="43.30442" lon="-0.50197">
        <ele>239.51</ele>
        <time>2017-04-28T07:36:36Z</time>
      </trkpt>
      <trkpt lat="43.30441" lon="-0.502">
        <ele>239.02</ele>
        <time>2017-04-28T07:36:37Z</time>
      </trkpt>
      <trkpt lat="43.3044" lon="-0.50202">
        <ele>238.06</ele>
        <time>2017-04-28T07:36:38Z</time>
      </trkpt>
      <trkpt lat="43.30438" lon="-0.50205">
        <ele>237.1</ele>
        <time>2017-04-28T07:36:39Z</time>
      </trkpt>
      <trkpt lat="43.30436" lon="-0.5021">
        <ele>236.14</ele>
        <time>2017-04-28T07:36:40Z</time>
      </trkpt>
      <trkpt lat="43.30435" lon="-0.50215">
        <ele>235.18</ele>
        <time>2017-04-28T07:36:41Z</time>
      </trkpt>
      <trkpt lat="43.30435" lon="-0.5022">
        <ele>234.22</ele>
        <time>2017-04-28T07:36:42Z</time>
      </trkpt>
      <trkpt lat="43.30436" lon="-0.50223">
        <ele>233.74</ele>
        <time>2017-04-28T07:36:43Z</time>
      </trkpt>
      <trkpt lat="43.30436" lon="-0.50226">
        <ele>233.26</ele>
        <time>2017-04-28T07:36:44Z</time>
      </trkpt>
      <trkpt lat="43.30435" lon="-0.50232">
        <ele>232.3</ele>
        <time>2017-04-28T07:36:45Z</time>
      </trkpt>
      <trkpt lat="43.30433" lon="-0.50235">
        <ele>231.81</ele>
        <time>2017-04-28T07:36:46Z</time>
      </trkpt>
      <trkpt lat="43.30429" lon="-0.50239">
        <ele>231.33</ele>
        <time>2017-04-28T07:36:47Z</time>
      </trkpt>
      <trkpt lat="43.30425" lon="-0.50242">
        <ele>230.37</ele>
        <time>2017-04-28T07:36:48Z</time>
      </trkpt>
      <trkpt lat="43.30416" lon="-0.50249">
        <ele>229.41</ele>
        <time>2017-04-28T07:36:50Z</time>
      </trkpt>
      <trkpt lat="43.30412" lon="-0.50251">
        <ele>228.93</ele>
        <time>2017-04-28T07:36:51Z</time>
      </trkpt>
      <trkpt lat="43.30409" lon="-0.50253">
        <ele>228.93</ele>
        <time>2017-04-28T07:36:52Z</time>
      </trkpt>
      <trkpt lat="43.30405" lon="-0.50254">
        <ele>228.45</ele>
        <time>2017-04-28T07:36:53Z</time>
      </trkpt>
      <trkpt lat="43.30401" lon="-0.50254">
        <ele>227.97</ele>
        <time>2017-04-28T07:36:54Z</time>
      </trkpt>
      <trkpt lat="43.30381" lon="-0.50256">
        <ele>225.57</ele>
        <time>2017-04-28T07:37:00Z</time>
      </trkpt>
      <trkpt lat="43.30376" lon="-0.50253">
        <ele>225.09</ele>
        <time>2017-04-28T07:37:01Z</time>
      </trkpt>
      <trkpt lat="43.30372" lon="-0.50251">
        <ele>224.61</ele>
        <time>2017-04-28T07:37:02Z</time>
      </trkpt>
      <trkpt lat="43.3035" lon="-0.50244">
        <ele>220.28</ele>
        <time>2017-04-28T07:37:11Z</time>
      </trkpt>
      <trkpt lat="43.30349" lon="-0.50242">
        <ele>219.8</ele>
        <time>2017-04-28T07:37:12Z</time>
      </trkpt>
      <trkpt lat="43.30345" lon="-0.50239">
        <ele>218.84</ele>
        <time>2017-04-28T07:37:16Z</time>
      </trkpt>
      <trkpt lat="43.30345" lon="-0.50237">
        <ele>218.36</ele>
        <time>2017-04-28T07:37:17Z</time>
      </trkpt>
      <trkpt lat="43.30344" lon="-0.50234">
        <ele>218.36</ele>
        <time>2017-04-28T07:37:18Z</time>
      </trkpt>
      <trkpt lat="43.30343" lon="-0.50231">
        <ele>217.88</ele>
        <time>2017-04-28T07:37:19Z</time>
      </trkpt>
      <trkpt lat="43.30342" lon="-0.50227">
        <ele>217.88</ele>
        <time>2017-04-28T07:37:20Z</time>
      </trkpt>
      <trkpt lat="43.3034" lon="-0.5022">
        <ele>217.88</ele>
        <time>2017-04-28T07:37:23Z</time>
      </trkpt>
      <trkpt lat="43.30339" lon="-0.50217">
        <ele>217.4</ele>
        <time>2017-04-28T07:37:24Z</time>
      </trkpt>
      <trkpt lat="43.30339" lon="-0.50214">
        <ele>217.4</ele>
        <time>2017-04-28T07:37:25Z</time>
      </trkpt>
      <trkpt lat="43.30339" lon="-0.50212">
        <ele>216.91</ele>
        <time>2017-04-28T07:37:26Z</time>
      </trkpt>
      <trkpt lat="43.30339" lon="-0.50209">
        <ele>216.91</ele>
        <time>2017-04-28T07:37:27Z</time>
      </trkpt>
      <trkpt lat="43.30338" lon="-0.50207">
        <ele>216.91</ele>
        <time>2017-04-28T07:37:28Z</time>
      </trkpt>
      <trkpt lat="43.30335" lon="-0.50196">
        <ele>217.4</ele>
        <time>2017-04-28T07:37:33Z</time>
      </trkpt>
      <trkpt lat="43.30334" lon="-0.50193">
        <ele>217.4</ele>
        <time>2017-04-28T07:37:34Z</time>
      </trkpt>
      <trkpt lat="43.30332" lon="-0.5019">
        <ele>216.91</ele>
        <time>2017-04-28T07:37:35Z</time>
      </trkpt>
      <trkpt lat="43.3033" lon="-0.50187">
        <ele>215.47</ele>
        <time>2017-04-28T07:37:37Z</time>
      </trkpt>
      <trkpt lat="43.30327" lon="-0.50189">
        <ele>213.07</ele>
        <time>2017-04-28T07:37:44Z</time>
      </trkpt>
      <trkpt lat="43.30326" lon="-0.50193">
        <ele>212.11</ele>
        <time>2017-04-28T07:37:47Z</time>
      </trkpt>
      <trkpt lat="43.30324" lon="-0.50193">
        <ele>212.11</ele>
        <time>2017-04-28T07:37:48Z</time>
      </trkpt>
      <trkpt lat="43.30323" lon="-0.50193">
        <ele>211.63</ele>
        <time>2017-04-28T07:37:49Z</time>
      </trkpt>
      <trkpt lat="43.3032" lon="-0.5019">
        <ele>211.15</ele>
        <time>2017-04-28T07:37:52Z</time>
      </trkpt>
      <trkpt lat="43.30319" lon="-0.50189">
        <ele>210.67</ele>
        <time>2017-04-28T07:37:53Z</time>
      </trkpt>
      <trkpt lat="43.30317" lon="-0.50187">
        <ele>209.7</ele>
        <time>2017-04-28T07:37:55Z</time>
      </trkpt>
      <trkpt lat="43.30316" lon="-0.50186">
        <ele>209.7</ele>
        <time>2017-04-28T07:37:56Z</time>
      </trkpt>
      <trkpt lat="43.30313" lon="-0.50184">
        <ele>209.22</ele>
        <time>2017-04-28T07:37:58Z</time>
      </trkpt>
      <trkpt lat="43.30312" lon="-0.50182">
        <ele>208.74</ele>
        <time>2017-04-28T07:37:59Z</time>
      </trkpt>
      <trkpt lat="43.30308" lon="-0.50178">
        <ele>207.78</ele>
        <time>2017-04-28T07:38:02Z</time>
      </trkpt>
      <trkpt lat="43.30307" lon="-0.50173">
        <ele>206.82</ele>
        <time>2017-04-28T07:38:05Z</time>
      </trkpt>
      <trkpt lat="43.30308" lon="-0.5017">
        <ele>206.34</ele>
        <time>2017-04-28T07:38:06Z</time>
      </trkpt>
      <trkpt lat="43.30307" lon="-0.50165">
        <ele>205.38</ele>
        <time>2017-04-28T07:38:09Z</time>
      </trkpt>
      <trkpt lat="43.30306" lon="-0.50163">
        <ele>204.9</ele>
        <time>2017-04-28T07:38:10Z</time>
      </trkpt>
      <trkpt lat="43.30305" lon="-0.50162">
        <ele>203.94</ele>
        <time>2017-04-28T07:38:11Z</time>
      </trkpt>
      <trkpt lat="43.30304" lon="-0.50161">
        <ele>203.46</ele>
        <time>2017-04-28T07:38:12Z</time>
      </trkpt>
      <trkpt lat="43.30303" lon="-0.50161">
        <ele>202.49</ele>
        <time>2017-04-28T07:38:13Z</time>
      </trkpt>
      <trkpt lat="43.30301" lon="-0.50161">
        <ele>202.01</ele>
        <time>2017-04-28T07:38:14Z</time>
      </trkpt>
      <trkpt lat="43.30284" lon="-0.50153">
        <ele>197.21</ele>
        <time>2017-04-28T07:38:25Z</time>
      </trkpt>
      <trkpt lat="43.30273" lon="-0.50145">
        <ele>190</ele>
        <time>2017-04-28T07:38:36Z</time>
      </trkpt>
      <trkpt lat="43.30269" lon="-0.50137">
        <ele>186.15</ele>
        <time>2017-04-28T07:38:50Z</time>
      </trkpt>
      <trkpt lat="43.3027" lon="-0.50133">
        <ele>186.15</ele>
        <time>2017-04-28T07:38:53Z</time>
      </trkpt>
      <trkpt lat="43.30269" lon="-0.50131">
        <ele>185.67</ele>
        <time>2017-04-28T07:38:55Z</time>
      </trkpt>
      <trkpt lat="43.30258" lon="-0.50127">
        <ele>183.27</ele>
        <time>2017-04-28T07:39:04Z</time>
      </trkpt>
      <trkpt lat="43.30256" lon="-0.50126">
        <ele>182.79</ele>
        <time>2017-04-28T07:39:05Z</time>
      </trkpt>
      <trkpt lat="43.30254" lon="-0.50125">
        <ele>182.79</ele>
        <time>2017-04-28T07:39:06Z</time>
      </trkpt>
      <trkpt lat="43.30252" lon="-0.50125">
        <ele>181.83</ele>
        <time>2017-04-28T07:39:07Z</time>
      </trkpt>
      <trkpt lat="43.30251" lon="-0.50124">
        <ele>181.35</ele>
        <time>2017-04-28T07:39:08Z</time>
      </trkpt>
      <trkpt lat="43.30249" lon="-0.50124">
        <ele>180.87</ele>
        <time>2017-04-28T07:39:09Z</time>
      </trkpt>
      <trkpt lat="43.30241" lon="-0.5012">
        <ele>179.9</ele>
        <time>2017-04-28T07:39:13Z</time>
      </trkpt>
      <trkpt lat="43.3024" lon="-0.50118">
        <ele>179.42</ele>
        <time>2017-04-28T07:39:14Z</time>
      </trkpt>
      <trkpt lat="43.30232" lon="-0.50086">
        <ele>174.14</ele>
        <time>2017-04-28T07:39:23Z</time>
      </trkpt>
      <trkpt lat="43.30229" lon="-0.50078">
        <ele>171.25</ele>
        <time>2017-04-28T07:39:27Z</time>
      </trkpt>
      <trkpt lat="43.30225" lon="-0.50062">
        <ele>166.93</ele>
        <time>2017-04-28T07:39:32Z</time>
      </trkpt>
      <trkpt lat="43.30216" lon="-0.50055">
        <ele>160.68</ele>
        <time>2017-04-28T07:39:38Z</time>
      </trkpt>
      <trkpt lat="43.30197" lon="-0.5006">
        <ele>155.39</ele>
        <time>2017-04-28T07:39:49Z</time>
      </trkpt>
      <trkpt lat="43.30193" lon="-0.5007">
        <ele>155.39</ele>
        <time>2017-04-28T07:39:54Z</time>
      </trkpt>
      <trkpt lat="43.30186" lon="-0.50076">
        <ele>154.91</ele>
        <time>2017-04-28T07:39:59Z</time>
      </trkpt>
      <trkpt lat="43.30172" lon="-0.50084">
        <ele>162.12</ele>
        <time>2017-04-28T07:40:14Z</time>
      </trkpt>
      <trkpt lat="43.30165" lon="-0.50074">
        <ele>164.04</ele>
        <time>2017-04-28T07:40:24Z</time>
      </trkpt>
      <trkpt lat="43.30146" lon="-0.50068">
        <ele>167.41</ele>
        <time>2017-04-28T07:40:41Z</time>
      </trkpt>
      <trkpt lat="43.30143" lon="-0.50067">
        <ele>168.85</ele>
        <time>2017-04-28T07:40:44Z</time>
      </trkpt>
      <trkpt lat="43.30139" lon="-0.50047">
        <ele>172.69</ele>
        <time>2017-04-28T07:40:58Z</time>
      </trkpt>
      <trkpt lat="43.30142" lon="-0.50033">
        <ele>174.14</ele>
        <time>2017-04-28T07:41:11Z</time>
      </trkpt>
      <trkpt lat="43.30145" lon="-0.50006">
        <ele>177.98</ele>
        <time>2017-04-28T07:41:27Z</time>
      </trkpt>
      <trkpt lat="43.30147" lon="-0.50001">
        <ele>177.98</ele>
        <time>2017-04-28T07:41:30Z</time>
      </trkpt>
      <trkpt lat="43.30152" lon="-0.49975">
        <ele>181.83</ele>
        <time>2017-04-28T07:41:44Z</time>
      </trkpt>
      <trkpt lat="43.30154" lon="-0.49968">
        <ele>183.27</ele>
        <time>2017-04-28T07:41:48Z</time>
      </trkpt>
      <trkpt lat="43.30152" lon="-0.49944">
        <ele>185.19</ele>
        <time>2017-04-28T07:42:02Z</time>
      </trkpt>
      <trkpt lat="43.3015" lon="-0.49939">
        <ele>185.67</ele>
        <time>2017-04-28T07:42:05Z</time>
      </trkpt>
      <trkpt lat="43.30137" lon="-0.49906">
        <ele>182.31</ele>
        <time>2017-04-28T07:42:22Z</time>
      </trkpt>
      <trkpt lat="43.30138" lon="-0.49864">
        <ele>178.46</ele>
        <time>2017-04-28T07:42:38Z</time>
      </trkpt>
      <trkpt lat="43.30136" lon="-0.49841">
        <ele>177.02</ele>
        <time>2017-04-28T07:42:49Z</time>
      </trkpt>
      <trkpt lat="43.30134" lon="-0.49834">
        <ele>176.54</ele>
        <time>2017-04-28T07:42:53Z</time>
      </trkpt>
      <trkpt lat="43.30128" lon="-0.49804">
        <ele>178.46</ele>
        <time>2017-04-28T07:43:11Z</time>
      </trkpt>
      <trkpt lat="43.30123" lon="-0.49784">
        <ele>179.9</ele>
        <time>2017-04-28T07:43:25Z</time>
      </trkpt>
      <trkpt lat="43.30123" lon="-0.49782">
        <ele>179.9</ele>
        <time>2017-04-28T07:43:27Z</time>
      </trkpt>
      <trkpt lat="43.30123" lon="-0.49777">
        <ele>179.42</ele>
        <time>2017-04-28T07:43:30Z</time>
      </trkpt>
      <trkpt lat="43.30122" lon="-0.49769">
        <ele>178.94</ele>
        <time>2017-04-28T07:43:35Z</time>
      </trkpt>
      <trkpt lat="43.30114" lon="-0.49757">
        <ele>178.94</ele>
        <time>2017-04-28T07:43:47Z</time>
      </trkpt>
      <trkpt lat="43.30106" lon="-0.49756">
        <ele>181.83</ele>
        <time>2017-04-28T07:43:53Z</time>
      </trkpt>
      <trkpt lat="43.30095" lon="-0.49773">
        <ele>193.36</ele>
        <time>2017-04-28T07:44:07Z</time>
      </trkpt>
      <trkpt lat="43.30087" lon="-0.49794">
        <ele>205.38</ele>
        <time>2017-04-28T07:44:23Z</time>
      </trkpt>
      <trkpt lat="43.30071" lon="-0.49805">
        <ele>215.47</ele>
        <time>2017-04-28T07:44:39Z</time>
      </trkpt>
      <trkpt lat="43.30054" lon="-0.49814">
        <ele>215.95</ele>
        <time>2017-04-28T07:44:53Z</time>
      </trkpt>
      <trkpt lat="43.30033" lon="-0.49827">
        <ele>217.4</ele>
        <time>2017-04-28T07:45:06Z</time>
      </trkpt>
      <trkpt lat="43.30015" lon="-0.49818">
        <ele>217.88</ele>
        <time>2017-04-28T07:45:21Z</time>
      </trkpt>
      <trkpt lat="43.29994" lon="-0.49808">
        <ele>219.8</ele>
        <time>2017-04-28T07:45:38Z</time>
      </trkpt>
      <trkpt lat="43.29991" lon="-0.49807">
        <ele>219.32</ele>
        <time>2017-04-28T07:45:40Z</time>
      </trkpt>
      <trkpt lat="43.29986" lon="-0.49803">
        <ele>218.84</ele>
        <time>2017-04-28T07:45:46Z</time>
      </trkpt>
      <trkpt lat="43.29985" lon="-0.49802">
        <ele>218.84</ele>
        <time>2017-04-28T07:45:47Z</time>
      </trkpt>
      <trkpt lat="43.29984" lon="-0.49802">
        <ele>219.32</ele>
        <time>2017-04-28T07:45:48Z</time>
      </trkpt>
      <trkpt lat="43.29969" lon="-0.4979">
        <ele>218.36</ele>
        <time>2017-04-28T07:46:03Z</time>
      </trkpt>
      <trkpt lat="43.29968" lon="-0.49789">
        <ele>217.88</ele>
        <time>2017-04-28T07:46:04Z</time>
      </trkpt>
      <trkpt lat="43.29952" lon="-0.49774">
        <ele>219.32</ele>
        <time>2017-04-28T07:46:20Z</time>
      </trkpt>
      <trkpt lat="43.29935" lon="-0.49758">
        <ele>221.24</ele>
        <time>2017-04-28T07:46:35Z</time>
      </trkpt>
      <trkpt lat="43.2992" lon="-0.4974">
        <ele>218.36</ele>
        <time>2017-04-28T07:46:53Z</time>
      </trkpt>
      <trkpt lat="43.29909" lon="-0.49725">
        <ele>215.95</ele>
        <time>2017-04-28T07:47:07Z</time>
      </trkpt>
      <trkpt lat="43.29888" lon="-0.49706">
        <ele>224.12</ele>
        <time>2017-04-28T07:47:24Z</time>
      </trkpt>
      <trkpt lat="43.29872" lon="-0.49697">
        <ele>228.45</ele>
        <time>2017-04-28T07:47:40Z</time>
      </trkpt>
      <trkpt lat="43.29859" lon="-0.49683">
        <ele>230.85</ele>
        <time>2017-04-28T07:47:54Z</time>
      </trkpt>
      <trkpt lat="43.29858" lon="-0.49677">
        <ele>229.89</ele>
        <time>2017-04-28T07:47:57Z</time>
      </trkpt>
      <trkpt lat="43.29857" lon="-0.49675">
        <ele>229.89</ele>
        <time>2017-04-28T07:47:58Z</time>
      </trkpt>
      <trkpt lat="43.29856" lon="-0.4964">
        <ele>236.62</ele>
        <time>2017-04-28T07:48:16Z</time>
      </trkpt>
      <trkpt lat="43.29858" lon="-0.49624">
        <ele>239.51</ele>
        <time>2017-04-28T07:48:26Z</time>
      </trkpt>
      <trkpt lat="43.29858" lon="-0.49622">
        <ele>239.99</ele>
        <time>2017-04-28T07:48:27Z</time>
      </trkpt>
      <trkpt lat="43.29858" lon="-0.49621">
        <ele>240.47</ele>
        <time>2017-04-28T07:48:28Z</time>
      </trkpt>
      <trkpt lat="43.29859" lon="-0.49619">
        <ele>240.95</ele>
        <time>2017-04-28T07:48:29Z</time>
      </trkpt>
      <trkpt lat="43.29859" lon="-0.49617">
        <ele>241.43</ele>
        <time>2017-04-28T07:48:30Z</time>
      </trkpt>
      <trkpt lat="43.2986" lon="-0.49616">
        <ele>241.43</ele>
        <time>2017-04-28T07:48:31Z</time>
      </trkpt>
      <trkpt lat="43.2986" lon="-0.49614">
        <ele>241.91</ele>
        <time>2017-04-28T07:48:32Z</time>
      </trkpt>
      <trkpt lat="43.2986" lon="-0.49612">
        <ele>241.91</ele>
        <time>2017-04-28T07:48:33Z</time>
      </trkpt>
      <trkpt lat="43.2986" lon="-0.49611">
        <ele>242.39</ele>
        <time>2017-04-28T07:48:34Z</time>
      </trkpt>
      <trkpt lat="43.2986" lon="-0.49609">
        <ele>242.87</ele>
        <time>2017-04-28T07:48:35Z</time>
      </trkpt>
      <trkpt lat="43.2986" lon="-0.49607">
        <ele>243.35</ele>
        <time>2017-04-28T07:48:36Z</time>
      </trkpt>
      <trkpt lat="43.29861" lon="-0.49606">
        <ele>243.83</ele>
        <time>2017-04-28T07:48:37Z</time>
      </trkpt>
      <trkpt lat="43.29861" lon="-0.49604">
        <ele>243.83</ele>
        <time>2017-04-28T07:48:38Z</time>
      </trkpt>
      <trkpt lat="43.29862" lon="-0.49602">
        <ele>244.31</ele>
        <time>2017-04-28T07:48:39Z</time>
      </trkpt>
      <trkpt lat="43.29862" lon="-0.496">
        <ele>244.31</ele>
        <time>2017-04-28T07:48:40Z</time>
      </trkpt>
      <trkpt lat="43.29863" lon="-0.49598">
        <ele>244.79</ele>
        <time>2017-04-28T07:48:41Z</time>
      </trkpt>
      <trkpt lat="43.29863" lon="-0.49596">
        <ele>244.79</ele>
        <time>2017-04-28T07:48:42Z</time>
      </trkpt>
      <trkpt lat="43.29864" lon="-0.49595">
        <ele>245.27</ele>
        <time>2017-04-28T07:48:43Z</time>
      </trkpt>
      <trkpt lat="43.29865" lon="-0.49587">
        <ele>245.75</ele>
        <time>2017-04-28T07:48:47Z</time>
      </trkpt>
      <trkpt lat="43.29866" lon="-0.49585">
        <ele>245.75</ele>
        <time>2017-04-28T07:48:48Z</time>
      </trkpt>
      <trkpt lat="43.29873" lon="-0.49556">
        <ele>248.64</ele>
        <time>2017-04-28T07:49:05Z</time>
      </trkpt>
      <trkpt lat="43.29877" lon="-0.49532">
        <ele>250.56</ele>
        <time>2017-04-28T07:49:18Z</time>
      </trkpt>
      <trkpt lat="43.29878" lon="-0.4953">
        <ele>250.56</ele>
        <time>2017-04-28T07:49:19Z</time>
      </trkpt>
      <trkpt lat="43.29878" lon="-0.49529">
        <ele>250.56</ele>
        <time>2017-04-28T07:49:20Z</time>
      </trkpt>
      <trkpt lat="43.29879" lon="-0.49527">
        <ele>251.04</ele>
        <time>2017-04-28T07:49:21Z</time>
      </trkpt>
      <trkpt lat="43.29879" lon="-0.49525">
        <ele>251.52</ele>
        <time>2017-04-28T07:49:22Z</time>
      </trkpt>
      <trkpt lat="43.29879" lon="-0.49523">
        <ele>251.52</ele>
        <time>2017-04-28T07:49:23Z</time>
      </trkpt>
      <trkpt lat="43.2988" lon="-0.49521">
        <ele>251.52</ele>
        <time>2017-04-28T07:49:24Z</time>
      </trkpt>
      <trkpt lat="43.2988" lon="-0.49519">
        <ele>251.52</ele>
        <time>2017-04-28T07:49:25Z</time>
      </trkpt>
      <trkpt lat="43.2988" lon="-0.49517">
        <ele>251.04</ele>
        <time>2017-04-28T07:49:26Z</time>
      </trkpt>
      <trkpt lat="43.2988" lon="-0.49515">
        <ele>251.04</ele>
        <time>2017-04-28T07:49:27Z</time>
      </trkpt>
      <trkpt lat="43.29879" lon="-0.49494">
        <ele>252.48</ele>
        <time>2017-04-28T07:49:40Z</time>
      </trkpt>
      <trkpt lat="43.2988" lon="-0.49464">
        <ele>257.77</ele>
        <time>2017-04-28T07:49:56Z</time>
      </trkpt>
      <trkpt lat="43.29881" lon="-0.49447">
        <ele>261.62</ele>
        <time>2017-04-28T07:50:06Z</time>
      </trkpt>
      <trkpt lat="43.29881" lon="-0.49445">
        <ele>262.1</ele>
        <time>2017-04-28T07:50:07Z</time>
      </trkpt>
      <trkpt lat="43.29881" lon="-0.49443">
        <ele>262.1</ele>
        <time>2017-04-28T07:50:08Z</time>
      </trkpt>
      <trkpt lat="43.29881" lon="-0.49441">
        <ele>262.1</ele>
        <time>2017-04-28T07:50:09Z</time>
      </trkpt>
      <trkpt lat="43.29881" lon="-0.49439">
        <ele>262.1</ele>
        <time>2017-04-28T07:50:10Z</time>
      </trkpt>
      <trkpt lat="43.29881" lon="-0.49438">
        <ele>262.1</ele>
        <time>2017-04-28T07:50:11Z</time>
      </trkpt>
      <trkpt lat="43.2988" lon="-0.49436">
        <ele>262.1</ele>
        <time>2017-04-28T07:50:12Z</time>
      </trkpt>
      <trkpt lat="43.2988" lon="-0.49434">
        <ele>262.1</ele>
        <time>2017-04-28T07:50:13Z</time>
      </trkpt>
      <trkpt lat="43.29883" lon="-0.49407">
        <ele>264.98</ele>
        <time>2017-04-28T07:50:28Z</time>
      </trkpt>
      <trkpt lat="43.29883" lon="-0.49404">
        <ele>265.46</ele>
        <time>2017-04-28T07:50:30Z</time>
      </trkpt>
      <trkpt lat="43.29884" lon="-0.49403">
        <ele>265.46</ele>
        <time>2017-04-28T07:50:31Z</time>
      </trkpt>
      <trkpt lat="43.29887" lon="-0.49371">
        <ele>264.5</ele>
        <time>2017-04-28T07:50:50Z</time>
      </trkpt>
      <trkpt lat="43.29887" lon="-0.49369">
        <ele>264.98</ele>
        <time>2017-04-28T07:50:51Z</time>
      </trkpt>
      <trkpt lat="43.29889" lon="-0.49341">
        <ele>270.75</ele>
        <time>2017-04-28T07:51:08Z</time>
      </trkpt>
      <trkpt lat="43.29894" lon="-0.49305">
        <ele>272.67</ele>
        <time>2017-04-28T07:51:27Z</time>
      </trkpt>
      <trkpt lat="43.29899" lon="-0.49279">
        <ele>275.56</ele>
        <time>2017-04-28T07:51:41Z</time>
      </trkpt>
      <trkpt lat="43.299" lon="-0.49277">
        <ele>275.56</ele>
        <time>2017-04-28T07:51:42Z</time>
      </trkpt>
      <trkpt lat="43.29907" lon="-0.49241">
        <ele>277.48</ele>
        <time>2017-04-28T07:51:59Z</time>
      </trkpt>
      <trkpt lat="43.2992" lon="-0.49212">
        <ele>279.88</ele>
        <time>2017-04-28T07:52:14Z</time>
      </trkpt>
      <trkpt lat="43.29933" lon="-0.49179">
        <ele>279.88</ele>
        <time>2017-04-28T07:52:29Z</time>
      </trkpt>
      <trkpt lat="43.29951" lon="-0.49135">
        <ele>281.8</ele>
        <time>2017-04-28T07:52:45Z</time>
      </trkpt>
      <trkpt lat="43.29968" lon="-0.49092">
        <ele>283.73</ele>
        <time>2017-04-28T07:53:01Z</time>
      </trkpt>
      <trkpt lat="43.29979" lon="-0.49043">
        <ele>285.65</ele>
        <time>2017-04-28T07:53:19Z</time>
      </trkpt>
      <trkpt lat="43.29976" lon="-0.4899">
        <ele>287.57</ele>
        <time>2017-04-28T07:53:36Z</time>
      </trkpt>
      <trkpt lat="43.29953" lon="-0.48927">
        <ele>286.13</ele>
        <time>2017-04-28T07:53:50Z</time>
      </trkpt>
      <trkpt lat="43.2995" lon="-0.4892">
        <ele>285.65</ele>
        <time>2017-04-28T07:53:51Z</time>
      </trkpt>
      <trkpt lat="43.29948" lon="-0.48911">
        <ele>285.17</ele>
        <time>2017-04-28T07:53:52Z</time>
      </trkpt>
      <trkpt lat="43.29947" lon="-0.48902">
        <ele>284.69</ele>
        <time>2017-04-28T07:53:53Z</time>
      </trkpt>
      <trkpt lat="43.29946" lon="-0.48893">
        <ele>284.21</ele>
        <time>2017-04-28T07:53:54Z</time>
      </trkpt>
      <trkpt lat="43.29946" lon="-0.48881">
        <ele>283.25</ele>
        <time>2017-04-28T07:53:55Z</time>
      </trkpt>
      <trkpt lat="43.29948" lon="-0.4887">
        <ele>282.28</ele>
        <time>2017-04-28T07:53:56Z</time>
      </trkpt>
      <trkpt lat="43.29952" lon="-0.48858">
        <ele>281.8</ele>
        <time>2017-04-28T07:53:57Z</time>
      </trkpt>
      <trkpt lat="43.29956" lon="-0.48848">
        <ele>281.32</ele>
        <time>2017-04-28T07:53:58Z</time>
      </trkpt>
      <trkpt lat="43.29961" lon="-0.48839">
        <ele>280.84</ele>
        <time>2017-04-28T07:53:59Z</time>
      </trkpt>
      <trkpt lat="43.29968" lon="-0.48829">
        <ele>280.36</ele>
        <time>2017-04-28T07:54:00Z</time>
      </trkpt>
      <trkpt lat="43.29988" lon="-0.488">
        <ele>279.88</ele>
        <time>2017-04-28T07:54:04Z</time>
      </trkpt>
      <trkpt lat="43.29993" lon="-0.48794">
        <ele>279.4</ele>
        <time>2017-04-28T07:54:05Z</time>
      </trkpt>
      <trkpt lat="43.29998" lon="-0.48789">
        <ele>279.4</ele>
        <time>2017-04-28T07:54:06Z</time>
      </trkpt>
      <trkpt lat="43.30008" lon="-0.48782">
        <ele>279.4</ele>
        <time>2017-04-28T07:54:08Z</time>
      </trkpt>
      <trkpt lat="43.30057" lon="-0.48763">
        <ele>278.92</ele>
        <time>2017-04-28T07:54:21Z</time>
      </trkpt>
      <trkpt lat="43.30077" lon="-0.48749">
        <ele>280.84</ele>
        <time>2017-04-28T07:54:31Z</time>
      </trkpt>
      <trkpt lat="43.30112" lon="-0.48765">
        <ele>280.84</ele>
        <time>2017-04-28T07:54:43Z</time>
      </trkpt>
      <trkpt lat="43.30155" lon="-0.48794">
        <ele>282.28</ele>
        <time>2017-04-28T07:54:57Z</time>
      </trkpt>
      <trkpt lat="43.30206" lon="-0.4883">
        <ele>284.69</ele>
        <time>2017-04-28T07:55:13Z</time>
      </trkpt>
      <trkpt lat="43.30248" lon="-0.48864">
        <ele>287.57</ele>
        <time>2017-04-28T07:55:27Z</time>
      </trkpt>
      <trkpt lat="43.30279" lon="-0.48885">
        <ele>286.61</ele>
        <time>2017-04-28T07:55:39Z</time>
      </trkpt>
      <trkpt lat="43.30347" lon="-0.48899">
        <ele>282.77</ele>
        <time>2017-04-28T07:55:51Z</time>
      </trkpt>
      <trkpt lat="43.30443" lon="-0.48894">
        <ele>277.48</ele>
        <time>2017-04-28T07:56:02Z</time>
      </trkpt>
      <trkpt lat="43.30505" lon="-0.48889">
        <ele>278.44</ele>
        <time>2017-04-28T07:56:12Z</time>
      </trkpt>
      <trkpt lat="43.30542" lon="-0.48889">
        <ele>283.73</ele>
        <time>2017-04-28T07:56:23Z</time>
      </trkpt>
      <trkpt lat="43.30564" lon="-0.48889">
        <ele>284.69</ele>
        <time>2017-04-28T07:56:28Z</time>
      </trkpt>
      <trkpt lat="43.30568" lon="-0.48889">
        <ele>285.17</ele>
        <time>2017-04-28T07:56:29Z</time>
      </trkpt>
      <trkpt lat="43.30647" lon="-0.48887">
        <ele>285.17</ele>
        <time>2017-04-28T07:56:41Z</time>
      </trkpt>
      <trkpt lat="43.30707" lon="-0.48882">
        <ele>283.73</ele>
        <time>2017-04-28T07:56:49Z</time>
      </trkpt>
      <trkpt lat="43.30714" lon="-0.4888">
        <ele>283.25</ele>
        <time>2017-04-28T07:56:50Z</time>
      </trkpt>
      <trkpt lat="43.3072" lon="-0.48877">
        <ele>283.25</ele>
        <time>2017-04-28T07:56:51Z</time>
      </trkpt>
      <trkpt lat="43.30725" lon="-0.48875">
        <ele>283.25</ele>
        <time>2017-04-28T07:56:52Z</time>
      </trkpt>
      <trkpt lat="43.3073" lon="-0.48874">
        <ele>283.25</ele>
        <time>2017-04-28T07:56:53Z</time>
      </trkpt>
      <trkpt lat="43.30733" lon="-0.48872">
        <ele>283.73</ele>
        <time>2017-04-28T07:56:54Z</time>
      </trkpt>
      <trkpt lat="43.30749" lon="-0.48848">
        <ele>286.13</ele>
        <time>2017-04-28T07:57:05Z</time>
      </trkpt>
      <trkpt lat="43.30757" lon="-0.48822">
        <ele>283.73</ele>
        <time>2017-04-28T07:57:19Z</time>
      </trkpt>
      <trkpt lat="43.3076" lon="-0.48819">
        <ele>283.73</ele>
        <time>2017-04-28T07:57:41Z</time>
      </trkpt>
      <trkpt lat="43.3076" lon="-0.48821">
        <ele>283.73</ele>
        <time>2017-04-28T07:57:42Z</time>
      </trkpt>
      <trkpt lat="43.3076" lon="-0.48823">
        <ele>283.73</ele>
        <time>2017-04-28T07:57:43Z</time>
      </trkpt>
      <trkpt lat="43.3076" lon="-0.48825">
        <ele>284.21</ele>
        <time>2017-04-28T07:57:44Z</time>
      </trkpt>
      <trkpt lat="43.3076" lon="-0.48827">
        <ele>284.21</ele>
        <time>2017-04-28T07:57:45Z</time>
      </trkpt>
      <trkpt lat="43.3076" lon="-0.48829">
        <ele>284.21</ele>
        <time>2017-04-28T07:57:46Z</time>
      </trkpt>
      <trkpt lat="43.3076" lon="-0.48832">
        <ele>284.69</ele>
        <time>2017-04-28T07:57:47Z</time>
      </trkpt>
      <trkpt lat="43.30761" lon="-0.48834">
        <ele>284.69</ele>
        <time>2017-04-28T07:57:48Z</time>
      </trkpt>
      <trkpt lat="43.30763" lon="-0.48837">
        <ele>284.69</ele>
        <time>2017-04-28T07:57:49Z</time>
      </trkpt>
      <trkpt lat="43.30766" lon="-0.4884">
        <ele>285.17</ele>
        <time>2017-04-28T07:57:50Z</time>
      </trkpt>
      <trkpt lat="43.30769" lon="-0.48843">
        <ele>284.69</ele>
        <time>2017-04-28T07:57:51Z</time>
      </trkpt>
      <trkpt lat="43.30772" lon="-0.48847">
        <ele>284.69</ele>
        <time>2017-04-28T07:57:52Z</time>
      </trkpt>
      <trkpt lat="43.30775" lon="-0.48851">
        <ele>284.69</ele>
        <time>2017-04-28T07:57:53Z</time>
      </trkpt>
      <trkpt lat="43.30778" lon="-0.48855">
        <ele>284.21</ele>
        <time>2017-04-28T07:57:54Z</time>
      </trkpt>
      <trkpt lat="43.30782" lon="-0.48859">
        <ele>284.21</ele>
        <time>2017-04-28T07:57:55Z</time>
      </trkpt>
      <trkpt lat="43.30813" lon="-0.48891">
        <ele>283.25</ele>
        <time>2017-04-28T07:58:07Z</time>
      </trkpt>
      <trkpt lat="43.3082" lon="-0.48898">
        <ele>283.73</ele>
        <time>2017-04-28T07:58:11Z</time>
      </trkpt>
      <trkpt lat="43.30822" lon="-0.489">
        <ele>283.73</ele>
        <time>2017-04-28T07:58:12Z</time>
      </trkpt>
      <trkpt lat="43.30824" lon="-0.48901">
        <ele>284.21</ele>
        <time>2017-04-28T07:58:13Z</time>
      </trkpt>
      <trkpt lat="43.30827" lon="-0.48902">
        <ele>284.21</ele>
        <time>2017-04-28T07:58:14Z</time>
      </trkpt>
      <trkpt lat="43.30829" lon="-0.48902">
        <ele>284.21</ele>
        <time>2017-04-28T07:58:15Z</time>
      </trkpt>
      <trkpt lat="43.30875" lon="-0.48916">
        <ele>285.17</ele>
        <time>2017-04-28T07:58:30Z</time>
      </trkpt>
      <trkpt lat="43.30893" lon="-0.48921">
        <ele>284.21</ele>
        <time>2017-04-28T07:58:35Z</time>
      </trkpt>
      <trkpt lat="43.3094" lon="-0.48952">
        <ele>283.73</ele>
        <time>2017-04-28T07:58:49Z</time>
      </trkpt>
      <trkpt lat="43.30963" lon="-0.48972">
        <ele>283.25</ele>
        <time>2017-04-28T07:58:55Z</time>
      </trkpt>
      <trkpt lat="43.30969" lon="-0.48975">
        <ele>283.25</ele>
        <time>2017-04-28T07:58:56Z</time>
      </trkpt>
      <trkpt lat="43.31052" lon="-0.49039">
        <ele>278.44</ele>
        <time>2017-04-28T07:59:09Z</time>
      </trkpt>
      <trkpt lat="43.31094" lon="-0.49103">
        <ele>272.19</ele>
        <time>2017-04-28T07:59:15Z</time>
      </trkpt>
      <trkpt lat="43.31102" lon="-0.49111">
        <ele>271.23</ele>
        <time>2017-04-28T07:59:16Z</time>
      </trkpt>
      <trkpt lat="43.3111" lon="-0.49116">
        <ele>270.27</ele>
        <time>2017-04-28T07:59:17Z</time>
      </trkpt>
      <trkpt lat="43.31119" lon="-0.49119">
        <ele>269.31</ele>
        <time>2017-04-28T07:59:18Z</time>
      </trkpt>
      <trkpt lat="43.31127" lon="-0.49122">
        <ele>268.83</ele>
        <time>2017-04-28T07:59:19Z</time>
      </trkpt>
      <trkpt lat="43.31135" lon="-0.49123">
        <ele>268.35</ele>
        <time>2017-04-28T07:59:20Z</time>
      </trkpt>
      <trkpt lat="43.31142" lon="-0.49123">
        <ele>267.86</ele>
        <time>2017-04-28T07:59:21Z</time>
      </trkpt>
      <trkpt lat="43.31149" lon="-0.49123">
        <ele>267.38</ele>
        <time>2017-04-28T07:59:22Z</time>
      </trkpt>
      <trkpt lat="43.31193" lon="-0.49131">
        <ele>267.86</ele>
        <time>2017-04-28T07:59:32Z</time>
      </trkpt>
      <trkpt lat="43.31244" lon="-0.49172">
        <ele>265.94</ele>
        <time>2017-04-28T07:59:45Z</time>
      </trkpt>
      <trkpt lat="43.31283" lon="-0.492">
        <ele>270.75</ele>
        <time>2017-04-28T07:59:59Z</time>
      </trkpt>
      <trkpt lat="43.31321" lon="-0.49234">
        <ele>272.67</ele>
        <time>2017-04-28T08:00:13Z</time>
      </trkpt>
      <trkpt lat="43.31377" lon="-0.4929">
        <ele>274.59</ele>
        <time>2017-04-28T08:00:32Z</time>
      </trkpt>
      <trkpt lat="43.31427" lon="-0.49311">
        <ele>274.59</ele>
        <time>2017-04-28T08:00:46Z</time>
      </trkpt>
      <trkpt lat="43.31474" lon="-0.49331">
        <ele>276.04</ele>
        <time>2017-04-28T08:01:00Z</time>
      </trkpt>
      <trkpt lat="43.31521" lon="-0.49381">
        <ele>275.56</ele>
        <time>2017-04-28T08:01:18Z</time>
      </trkpt>
      <trkpt lat="43.31543" lon="-0.49441">
        <ele>277.96</ele>
        <time>2017-04-28T08:01:33Z</time>
      </trkpt>
      <trkpt lat="43.31554" lon="-0.49509">
        <ele>279.88</ele>
        <time>2017-04-28T08:01:48Z</time>
      </trkpt>
      <trkpt lat="43.31563" lon="-0.49602">
        <ele>277</ele>
        <time>2017-04-28T08:02:04Z</time>
      </trkpt>
      <trkpt lat="43.31563" lon="-0.49692">
        <ele>271.71</ele>
        <time>2017-04-28T08:02:15Z</time>
      </trkpt>
      <trkpt lat="43.31563" lon="-0.49703">
        <ele>270.75</ele>
        <time>2017-04-28T08:02:16Z</time>
      </trkpt>
      <trkpt lat="43.31565" lon="-0.49712">
        <ele>269.79</ele>
        <time>2017-04-28T08:02:17Z</time>
      </trkpt>
      <trkpt lat="43.31587" lon="-0.498">
        <ele>262.1</ele>
        <time>2017-04-28T08:02:24Z</time>
      </trkpt>
      <trkpt lat="43.31591" lon="-0.4981">
        <ele>261.62</ele>
        <time>2017-04-28T08:02:25Z</time>
      </trkpt>
      <trkpt lat="43.31613" lon="-0.49848">
        <ele>259.21</ele>
        <time>2017-04-28T08:02:29Z</time>
      </trkpt>
      <trkpt lat="43.31692" lon="-0.49929">
        <ele>251.52</ele>
        <time>2017-04-28T08:02:40Z</time>
      </trkpt>
      <trkpt lat="43.31711" lon="-0.49945">
        <ele>248.64</ele>
        <time>2017-04-28T08:02:46Z</time>
      </trkpt>
      <trkpt lat="43.3176" lon="-0.4998">
        <ele>245.27</ele>
        <time>2017-04-28T08:02:56Z</time>
      </trkpt>
      <trkpt lat="43.31789" lon="-0.50005">
        <ele>242.39</ele>
        <time>2017-04-28T08:03:00Z</time>
      </trkpt>
      <trkpt lat="43.31812" lon="-0.50029">
        <ele>240.95</ele>
        <time>2017-04-28T08:03:04Z</time>
      </trkpt>
      <trkpt lat="43.31817" lon="-0.50032">
        <ele>240.95</ele>
        <time>2017-04-28T08:03:05Z</time>
      </trkpt>
      <trkpt lat="43.31823" lon="-0.50034">
        <ele>240.95</ele>
        <time>2017-04-28T08:03:06Z</time>
      </trkpt>
      <trkpt lat="43.31833" lon="-0.50036">
        <ele>241.43</ele>
        <time>2017-04-28T08:03:08Z</time>
      </trkpt>
      <trkpt lat="43.31874" lon="-0.50037">
        <ele>246.72</ele>
        <time>2017-04-28T08:03:21Z</time>
      </trkpt>
      <trkpt lat="43.31906" lon="-0.5006">
        <ele>252.96</ele>
        <time>2017-04-28T08:03:33Z</time>
      </trkpt>
      <trkpt lat="43.31947" lon="-0.50105">
        <ele>251.52</ele>
        <time>2017-04-28T08:03:45Z</time>
      </trkpt>
      <trkpt lat="43.3197" lon="-0.50136">
        <ele>249.12</ele>
        <time>2017-04-28T08:03:49Z</time>
      </trkpt>
      <trkpt lat="43.3201" lon="-0.50225">
        <ele>244.79</ele>
        <time>2017-04-28T08:04:00Z</time>
      </trkpt>
      <trkpt lat="43.32036" lon="-0.50295">
        <ele>241.43</ele>
        <time>2017-04-28T08:04:08Z</time>
      </trkpt>
      <trkpt lat="43.32041" lon="-0.50302">
        <ele>240.95</ele>
        <time>2017-04-28T08:04:09Z</time>
      </trkpt>
      <trkpt lat="43.32046" lon="-0.50309">
        <ele>240.47</ele>
        <time>2017-04-28T08:04:10Z</time>
      </trkpt>
      <trkpt lat="43.32051" lon="-0.50314">
        <ele>239.99</ele>
        <time>2017-04-28T08:04:11Z</time>
      </trkpt>
      <trkpt lat="43.32055" lon="-0.50318">
        <ele>239.51</ele>
        <time>2017-04-28T08:04:12Z</time>
      </trkpt>
      <trkpt lat="43.3208" lon="-0.50342">
        <ele>239.99</ele>
        <time>2017-04-28T08:04:21Z</time>
      </trkpt>
      <trkpt lat="43.32098" lon="-0.50385">
        <ele>243.83</ele>
        <time>2017-04-28T08:04:35Z</time>
      </trkpt>
      <trkpt lat="43.32111" lon="-0.50419">
        <ele>248.64</ele>
        <time>2017-04-28T08:04:49Z</time>
      </trkpt>
      <trkpt lat="43.32129" lon="-0.50468">
        <ele>251.52</ele>
        <time>2017-04-28T08:05:05Z</time>
      </trkpt>
      <trkpt lat="43.32156" lon="-0.5052">
        <ele>252.96</ele>
        <time>2017-04-28T08:05:21Z</time>
      </trkpt>
      <trkpt lat="43.32185" lon="-0.50586">
        <ele>252.48</ele>
        <time>2017-04-28T08:05:35Z</time>
      </trkpt>
      <trkpt lat="43.32213" lon="-0.50632">
        <ele>252.48</ele>
        <time>2017-04-28T08:05:49Z</time>
      </trkpt>
      <trkpt lat="43.32266" lon="-0.50682">
        <ele>250.56</ele>
        <time>2017-04-28T08:06:02Z</time>
      </trkpt>
      <trkpt lat="43.32341" lon="-0.50754">
        <ele>249.12</ele>
        <time>2017-04-28T08:06:17Z</time>
      </trkpt>
      <trkpt lat="43.3239" lon="-0.5082">
        <ele>251.04</ele>
        <time>2017-04-28T08:06:37Z</time>
      </trkpt>
      <trkpt lat="43.32421" lon="-0.50872">
        <ele>256.81</ele>
        <time>2017-04-28T08:06:53Z</time>
      </trkpt>
      <trkpt lat="43.32439" lon="-0.50931">
        <ele>257.77</ele>
        <time>2017-04-28T08:07:09Z</time>
      </trkpt>
      <trkpt lat="43.32459" lon="-0.50964">
        <ele>257.77</ele>
        <time>2017-04-28T08:07:20Z</time>
      </trkpt>
      <trkpt lat="43.32479" lon="-0.50995">
        <ele>261.62</ele>
        <time>2017-04-28T08:07:35Z</time>
      </trkpt>
      <trkpt lat="43.32489" lon="-0.51041">
        <ele>264.5</ele>
        <time>2017-04-28T08:07:51Z</time>
      </trkpt>
      <trkpt lat="43.32508" lon="-0.51097">
        <ele>262.58</ele>
        <time>2017-04-28T08:08:04Z</time>
      </trkpt>
      <trkpt lat="43.32562" lon="-0.51173">
        <ele>263.54</ele>
        <time>2017-04-28T08:08:25Z</time>
      </trkpt>
      <trkpt lat="43.32618" lon="-0.51228">
        <ele>263.06</ele>
        <time>2017-04-28T08:08:44Z</time>
      </trkpt>
      <trkpt lat="43.32633" lon="-0.51242">
        <ele>262.58</ele>
        <time>2017-04-28T08:08:48Z</time>
      </trkpt>
      <trkpt lat="43.32637" lon="-0.51245">
        <ele>262.1</ele>
        <time>2017-04-28T08:08:49Z</time>
      </trkpt>
      <trkpt lat="43.32674" lon="-0.51277">
        <ele>259.21</ele>
        <time>2017-04-28T08:09:00Z</time>
      </trkpt>
      <trkpt lat="43.32676" lon="-0.51276">
        <ele>259.21</ele>
        <time>2017-04-28T08:09:01Z</time>
      </trkpt>
      <trkpt lat="43.32678" lon="-0.51273">
        <ele>258.73</ele>
        <time>2017-04-28T08:09:02Z</time>
      </trkpt>
      <trkpt lat="43.32697" lon="-0.51214">
        <ele>257.29</ele>
        <time>2017-04-28T08:09:17Z</time>
      </trkpt>
      <trkpt lat="43.32689" lon="-0.51164">
        <ele>250.56</ele>
        <time>2017-04-28T08:09:26Z</time>
      </trkpt>
      <trkpt lat="43.32687" lon="-0.51149">
        <ele>249.12</ele>
        <time>2017-04-28T08:09:28Z</time>
      </trkpt>
      <trkpt lat="43.32688" lon="-0.51144">
        <ele>248.16</ele>
        <time>2017-04-28T08:09:29Z</time>
      </trkpt>
      <trkpt lat="43.3269" lon="-0.5114">
        <ele>247.68</ele>
        <time>2017-04-28T08:09:30Z</time>
      </trkpt>
      <trkpt lat="43.32693" lon="-0.51137">
        <ele>247.2</ele>
        <time>2017-04-28T08:09:31Z</time>
      </trkpt>
      <trkpt lat="43.32696" lon="-0.51136">
        <ele>246.72</ele>
        <time>2017-04-28T08:09:32Z</time>
      </trkpt>
      <trkpt lat="43.32698" lon="-0.51136">
        <ele>246.23</ele>
        <time>2017-04-28T08:09:33Z</time>
      </trkpt>
      <trkpt lat="43.327" lon="-0.51135">
        <ele>245.75</ele>
        <time>2017-04-28T08:09:34Z</time>
      </trkpt>
      <trkpt lat="43.32702" lon="-0.51134">
        <ele>245.27</ele>
        <time>2017-04-28T08:09:35Z</time>
      </trkpt>
      <trkpt lat="43.32704" lon="-0.51133">
        <ele>245.27</ele>
        <time>2017-04-28T08:09:36Z</time>
      </trkpt>
      <trkpt lat="43.32739" lon="-0.5112">
        <ele>246.72</ele>
        <time>2017-04-28T08:09:52Z</time>
      </trkpt>
      <trkpt lat="43.32767" lon="-0.51109">
        <ele>252</ele>
        <time>2017-04-28T08:10:10Z</time>
      </trkpt>
      <trkpt lat="43.32788" lon="-0.51098">
        <ele>255.85</ele>
        <time>2017-04-28T08:10:25Z</time>
      </trkpt>
      <trkpt lat="43.32812" lon="-0.51086">
        <ele>259.21</ele>
        <time>2017-04-28T08:10:42Z</time>
      </trkpt>
      <trkpt lat="43.32837" lon="-0.51072">
        <ele>264.98</ele>
        <time>2017-04-28T08:11:00Z</time>
      </trkpt>
      <trkpt lat="43.32861" lon="-0.51064">
        <ele>267.86</ele>
        <time>2017-04-28T08:11:16Z</time>
      </trkpt>
      <trkpt lat="43.32865" lon="-0.51065">
        <ele>268.35</ele>
        <time>2017-04-28T08:11:19Z</time>
      </trkpt>
      <trkpt lat="43.32893" lon="-0.51076">
        <ele>268.35</ele>
        <time>2017-04-28T08:11:33Z</time>
      </trkpt>
      <trkpt lat="43.32929" lon="-0.51094">
        <ele>268.35</ele>
        <time>2017-04-28T08:11:49Z</time>
      </trkpt>
      <trkpt lat="43.32984" lon="-0.51116">
        <ele>265.46</ele>
        <time>2017-04-28T08:12:06Z</time>
      </trkpt>
      <trkpt lat="43.33034" lon="-0.51135">
        <ele>263.06</ele>
        <time>2017-04-28T08:12:21Z</time>
      </trkpt>
      <trkpt lat="43.33035" lon="-0.51135">
        <ele>263.06</ele>
        <time>2017-04-28T08:12:35Z</time>
      </trkpt>
      <trkpt lat="43.33034" lon="-0.51135">
        <ele>269.31</ele>
        <time>2017-04-28T08:13:01Z</time>
      </trkpt>
      <trkpt lat="43.33034" lon="-0.51134">
        <ele>267.86</ele>
        <time>2017-04-28T08:13:25Z</time>
      </trkpt>
      <trkpt lat="43.33034" lon="-0.51131">
        <ele>263.06</ele>
        <time>2017-04-28T08:13:52Z</time>
      </trkpt>
      <trkpt lat="43.33034" lon="-0.51136">
        <ele>267.86</ele>
        <time>2017-04-28T08:14:25Z</time>
      </trkpt>
      <trkpt lat="43.33032" lon="-0.51135">
        <ele>261.14</ele>
        <time>2017-04-28T08:15:02Z</time>
      </trkpt>
      <trkpt lat="43.33034" lon="-0.51135">
        <ele>261.62</ele>
        <time>2017-04-28T08:15:27Z</time>
      </trkpt>
      <trkpt lat="43.3303" lon="-0.51135">
        <ele>264.02</ele>
        <time>2017-04-28T08:16:03Z</time>
      </trkpt>
      <trkpt lat="43.33029" lon="-0.51134">
        <ele>263.06</ele>
        <time>2017-04-28T08:16:34Z</time>
      </trkpt>
      <trkpt lat="43.3303" lon="-0.51132">
        <ele>263.06</ele>
        <time>2017-04-28T08:17:05Z</time>
      </trkpt>
      <trkpt lat="43.33034" lon="-0.51132">
        <ele>260.17</ele>
        <time>2017-04-28T08:17:33Z</time>
      </trkpt>
      <trkpt lat="43.33033" lon="-0.51131">
        <ele>256.33</ele>
        <time>2017-04-28T08:18:06Z</time>
      </trkpt>
      <trkpt lat="43.33034" lon="-0.51134">
        <ele>262.1</ele>
        <time>2017-04-28T08:18:32Z</time>
      </trkpt>
      <trkpt lat="43.33034" lon="-0.51133">
        <ele>262.58</ele>
        <time>2017-04-28T08:19:04Z</time>
      </trkpt>
      <trkpt lat="43.33035" lon="-0.51135">
        <ele>263.54</ele>
        <time>2017-04-28T08:19:30Z</time>
      </trkpt>
      <trkpt lat="43.33034" lon="-0.51137">
        <ele>261.14</ele>
        <time>2017-04-28T08:19:59Z</time>
      </trkpt>
      <trkpt lat="43.33033" lon="-0.51141">
        <ele>264.5</ele>
        <time>2017-04-28T08:20:19Z</time>
      </trkpt>
      <trkpt lat="43.33032" lon="-0.51138">
        <ele>259.69</ele>
        <time>2017-04-28T08:20:57Z</time>
      </trkpt>
      <trkpt lat="43.33032" lon="-0.51135">
        <ele>259.21</ele>
        <time>2017-04-28T08:21:19Z</time>
      </trkpt>
      <trkpt lat="43.33032" lon="-0.51138">
        <ele>257.77</ele>
        <time>2017-04-28T08:21:48Z</time>
      </trkpt>
      <trkpt lat="43.33033" lon="-0.51134">
        <ele>253.93</ele>
        <time>2017-04-28T08:22:19Z</time>
      </trkpt>
      <trkpt lat="43.33035" lon="-0.51128">
        <ele>254.89</ele>
        <time>2017-04-28T08:22:53Z</time>
      </trkpt>
      <trkpt lat="43.33034" lon="-0.51132">
        <ele>252</ele>
        <time>2017-04-28T08:23:34Z</time>
      </trkpt>
      <trkpt lat="43.33034" lon="-0.51135">
        <ele>250.56</ele>
        <time>2017-04-28T08:24:08Z</time>
      </trkpt>
      <trkpt lat="43.33036" lon="-0.51135">
        <ele>248.64</ele>
        <time>2017-04-28T08:24:37Z</time>
      </trkpt>
      <trkpt lat="43.33034" lon="-0.51131">
        <ele>251.52</ele>
        <time>2017-04-28T08:25:08Z</time>
      </trkpt>
      <trkpt lat="43.33035" lon="-0.51133">
        <ele>251.52</ele>
        <time>2017-04-28T08:25:37Z</time>
      </trkpt>
      <trkpt lat="43.33035" lon="-0.51134">
        <ele>256.81</ele>
        <time>2017-04-28T08:26:09Z</time>
      </trkpt>
      <trkpt lat="43.33032" lon="-0.5114">
        <ele>255.37</ele>
        <time>2017-04-28T08:26:48Z</time>
      </trkpt>
      <trkpt lat="43.33034" lon="-0.51136">
        <ele>257.29</ele>
        <time>2017-04-28T08:27:21Z</time>
      </trkpt>
      <trkpt lat="43.33035" lon="-0.51134">
        <ele>260.17</ele>
        <time>2017-04-28T08:27:51Z</time>
      </trkpt>
      <trkpt lat="43.33034" lon="-0.51132">
        <ele>257.29</ele>
        <time>2017-04-28T08:28:23Z</time>
      </trkpt>
      <trkpt lat="43.33036" lon="-0.51129">
        <ele>259.21</ele>
        <time>2017-04-28T08:29:08Z</time>
      </trkpt>
      <trkpt lat="43.33034" lon="-0.51125">
        <ele>261.14</ele>
        <time>2017-04-28T08:29:31Z</time>
      </trkpt>
      <trkpt lat="43.33034" lon="-0.51131">
        <ele>261.14</ele>
        <time>2017-04-28T08:30:03Z</time>
      </trkpt>
      <trkpt lat="43.33034" lon="-0.51131">
        <ele>258.73</ele>
        <time>2017-04-28T08:30:33Z</time>
      </trkpt>
      <trkpt lat="43.33036" lon="-0.51132">
        <ele>258.73</ele>
        <time>2017-04-28T08:30:34Z</time>
      </trkpt>
      <trkpt lat="43.33054" lon="-0.51148">
        <ele>258.73</ele>
        <time>2017-04-28T08:30:40Z</time>
      </trkpt>
      <trkpt lat="43.33058" lon="-0.51152">
        <ele>258.73</ele>
        <time>2017-04-28T08:30:41Z</time>
      </trkpt>
      <trkpt lat="43.33061" lon="-0.51155">
        <ele>258.25</ele>
        <time>2017-04-28T08:30:42Z</time>
      </trkpt>
      <trkpt lat="43.33093" lon="-0.51178">
        <ele>253.93</ele>
        <time>2017-04-28T08:30:51Z</time>
      </trkpt>
      <trkpt lat="43.33095" lon="-0.51176">
        <ele>253.93</ele>
        <time>2017-04-28T08:30:52Z</time>
      </trkpt>
      <trkpt lat="43.33096" lon="-0.51173">
        <ele>253.44</ele>
        <time>2017-04-28T08:30:53Z</time>
      </trkpt>
      <trkpt lat="43.33097" lon="-0.5117">
        <ele>253.44</ele>
        <time>2017-04-28T08:30:54Z</time>
      </trkpt>
      <trkpt lat="43.33099" lon="-0.51165">
        <ele>252.96</ele>
        <time>2017-04-28T08:30:55Z</time>
      </trkpt>
      <trkpt lat="43.33108" lon="-0.5111">
        <ele>247.68</ele>
        <time>2017-04-28T08:31:06Z</time>
      </trkpt>
      <trkpt lat="43.3312" lon="-0.51092">
        <ele>243.83</ele>
        <time>2017-04-28T08:31:13Z</time>
      </trkpt>
      <trkpt lat="43.33122" lon="-0.51093">
        <ele>243.35</ele>
        <time>2017-04-28T08:31:14Z</time>
      </trkpt>
      <trkpt lat="43.33125" lon="-0.51094">
        <ele>242.87</ele>
        <time>2017-04-28T08:31:15Z</time>
      </trkpt>
      <trkpt lat="43.33157" lon="-0.51115">
        <ele>234.7</ele>
        <time>2017-04-28T08:31:25Z</time>
      </trkpt>
      <trkpt lat="43.33182" lon="-0.51127">
        <ele>227.97</ele>
        <time>2017-04-28T08:31:32Z</time>
      </trkpt>
      <trkpt lat="43.33187" lon="-0.51128">
        <ele>227.01</ele>
        <time>2017-04-28T08:31:33Z</time>
      </trkpt>
      <trkpt lat="43.33214" lon="-0.51136">
        <ele>222.68</ele>
        <time>2017-04-28T08:31:38Z</time>
      </trkpt>
      <trkpt lat="43.33237" lon="-0.51143">
        <ele>219.8</ele>
        <time>2017-04-28T08:31:42Z</time>
      </trkpt>
      <trkpt lat="43.33242" lon="-0.51144">
        <ele>219.32</ele>
        <time>2017-04-28T08:31:43Z</time>
      </trkpt>
      <trkpt lat="43.33284" lon="-0.51157">
        <ele>215.47</ele>
        <time>2017-04-28T08:31:51Z</time>
      </trkpt>
      <trkpt lat="43.33289" lon="-0.5116">
        <ele>214.99</ele>
        <time>2017-04-28T08:31:52Z</time>
      </trkpt>
      <trkpt lat="43.33294" lon="-0.51164">
        <ele>214.51</ele>
        <time>2017-04-28T08:31:53Z</time>
      </trkpt>
      <trkpt lat="43.33299" lon="-0.51168">
        <ele>214.03</ele>
        <time>2017-04-28T08:31:54Z</time>
      </trkpt>
      <trkpt lat="43.33305" lon="-0.51171">
        <ele>213.55</ele>
        <time>2017-04-28T08:31:55Z</time>
      </trkpt>
      <trkpt lat="43.3331" lon="-0.51174">
        <ele>213.07</ele>
        <time>2017-04-28T08:31:56Z</time>
      </trkpt>
      <trkpt lat="43.33314" lon="-0.51176">
        <ele>213.07</ele>
        <time>2017-04-28T08:31:57Z</time>
      </trkpt>
      <trkpt lat="43.33318" lon="-0.51181">
        <ele>212.59</ele>
        <time>2017-04-28T08:31:58Z</time>
      </trkpt>
      <trkpt lat="43.33321" lon="-0.51186">
        <ele>212.11</ele>
        <time>2017-04-28T08:31:59Z</time>
      </trkpt>
      <trkpt lat="43.33324" lon="-0.51191">
        <ele>212.11</ele>
        <time>2017-04-28T08:32:00Z</time>
      </trkpt>
      <trkpt lat="43.33326" lon="-0.51196">
        <ele>212.11</ele>
        <time>2017-04-28T08:32:01Z</time>
      </trkpt>
      <trkpt lat="43.33336" lon="-0.51219">
        <ele>213.07</ele>
        <time>2017-04-28T08:32:05Z</time>
      </trkpt>
      <trkpt lat="43.3335" lon="-0.51237">
        <ele>212.59</ele>
        <time>2017-04-28T08:32:08Z</time>
      </trkpt>
      <trkpt lat="43.33354" lon="-0.51245">
        <ele>212.59</ele>
        <time>2017-04-28T08:32:09Z</time>
      </trkpt>
      <trkpt lat="43.33357" lon="-0.51254">
        <ele>212.11</ele>
        <time>2017-04-28T08:32:10Z</time>
      </trkpt>
      <trkpt lat="43.33379" lon="-0.51307">
        <ele>208.74</ele>
        <time>2017-04-28T08:32:15Z</time>
      </trkpt>
      <trkpt lat="43.33382" lon="-0.5132">
        <ele>207.78</ele>
        <time>2017-04-28T08:32:16Z</time>
      </trkpt>
      <trkpt lat="43.33425" lon="-0.51445">
        <ele>203.46</ele>
        <time>2017-04-28T08:32:27Z</time>
      </trkpt>
      <trkpt lat="43.33454" lon="-0.51522">
        <ele>202.98</ele>
        <time>2017-04-28T08:32:36Z</time>
      </trkpt>
      <trkpt lat="43.33489" lon="-0.51595">
        <ele>202.01</ele>
        <time>2017-04-28T08:32:45Z</time>
      </trkpt>
      <trkpt lat="43.33493" lon="-0.51601">
        <ele>202.01</ele>
        <time>2017-04-28T08:32:46Z</time>
      </trkpt>
      <trkpt lat="43.33497" lon="-0.51605">
        <ele>202.01</ele>
        <time>2017-04-28T08:32:47Z</time>
      </trkpt>
      <trkpt lat="43.33525" lon="-0.51626">
        <ele>202.49</ele>
        <time>2017-04-28T08:32:56Z</time>
      </trkpt>
      <trkpt lat="43.33558" lon="-0.5164">
        <ele>203.94</ele>
        <time>2017-04-28T08:33:07Z</time>
      </trkpt>
      <trkpt lat="43.3359" lon="-0.51661">
        <ele>206.34</ele>
        <time>2017-04-28T08:33:20Z</time>
      </trkpt>
      <trkpt lat="43.33624" lon="-0.5169">
        <ele>205.86</ele>
        <time>2017-04-28T08:33:32Z</time>
      </trkpt>
      <trkpt lat="43.33658" lon="-0.51709">
        <ele>208.26</ele>
        <time>2017-04-28T08:33:45Z</time>
      </trkpt>
      <trkpt lat="43.33695" lon="-0.51746">
        <ele>210.67</ele>
        <time>2017-04-28T08:34:00Z</time>
      </trkpt>
      <trkpt lat="43.33731" lon="-0.51789">
        <ele>211.15</ele>
        <time>2017-04-28T08:34:14Z</time>
      </trkpt>
      <trkpt lat="43.33764" lon="-0.51823">
        <ele>210.19</ele>
        <time>2017-04-28T08:34:28Z</time>
      </trkpt>
      <trkpt lat="43.33785" lon="-0.51871">
        <ele>210.67</ele>
        <time>2017-04-28T08:34:42Z</time>
      </trkpt>
      <trkpt lat="43.33809" lon="-0.51917">
        <ele>213.55</ele>
        <time>2017-04-28T08:34:57Z</time>
      </trkpt>
      <trkpt lat="43.33819" lon="-0.5197">
        <ele>212.59</ele>
        <time>2017-04-28T08:35:08Z</time>
      </trkpt>
      <trkpt lat="43.33822" lon="-0.52015">
        <ele>209.22</ele>
        <time>2017-04-28T08:35:17Z</time>
      </trkpt>
      <trkpt lat="43.33824" lon="-0.5202">
        <ele>208.74</ele>
        <time>2017-04-28T08:35:18Z</time>
      </trkpt>
      <trkpt lat="43.33826" lon="-0.52026">
        <ele>208.74</ele>
        <time>2017-04-28T08:35:19Z</time>
      </trkpt>
      <trkpt lat="43.33838" lon="-0.52047">
        <ele>208.26</ele>
        <time>2017-04-28T08:35:23Z</time>
      </trkpt>
      <trkpt lat="43.33853" lon="-0.52065">
        <ele>207.3</ele>
        <time>2017-04-28T08:35:27Z</time>
      </trkpt>
      <trkpt lat="43.33887" lon="-0.52112">
        <ele>210.19</ele>
        <time>2017-04-28T08:35:40Z</time>
      </trkpt>
      <trkpt lat="43.33925" lon="-0.52148">
        <ele>214.03</ele>
        <time>2017-04-28T08:35:54Z</time>
      </trkpt>
      <trkpt lat="43.33938" lon="-0.52152">
        <ele>213.07</ele>
        <time>2017-04-28T08:35:57Z</time>
      </trkpt>
      <trkpt lat="43.33985" lon="-0.52161">
        <ele>210.67</ele>
        <time>2017-04-28T08:36:06Z</time>
      </trkpt>
      <trkpt lat="43.33991" lon="-0.52164">
        <ele>210.19</ele>
        <time>2017-04-28T08:36:07Z</time>
      </trkpt>
      <trkpt lat="43.33996" lon="-0.52168">
        <ele>210.19</ele>
        <time>2017-04-28T08:36:08Z</time>
      </trkpt>
      <trkpt lat="43.34001" lon="-0.52174">
        <ele>209.22</ele>
        <time>2017-04-28T08:36:09Z</time>
      </trkpt>
      <trkpt lat="43.34006" lon="-0.52181">
        <ele>208.74</ele>
        <time>2017-04-28T08:36:10Z</time>
      </trkpt>
      <trkpt lat="43.34009" lon="-0.5219">
        <ele>208.26</ele>
        <time>2017-04-28T08:36:11Z</time>
      </trkpt>
      <trkpt lat="43.34042" lon="-0.52264">
        <ele>202.49</ele>
        <time>2017-04-28T08:36:18Z</time>
      </trkpt>
      <trkpt lat="43.34048" lon="-0.52272">
        <ele>202.01</ele>
        <time>2017-04-28T08:36:19Z</time>
      </trkpt>
      <trkpt lat="43.34068" lon="-0.52296">
        <ele>201.05</ele>
        <time>2017-04-28T08:36:23Z</time>
      </trkpt>
      <trkpt lat="43.34072" lon="-0.523">
        <ele>201.05</ele>
        <time>2017-04-28T08:36:24Z</time>
      </trkpt>
      <trkpt lat="43.34075" lon="-0.52304">
        <ele>201.05</ele>
        <time>2017-04-28T08:36:25Z</time>
      </trkpt>
      <trkpt lat="43.34077" lon="-0.52309">
        <ele>201.05</ele>
        <time>2017-04-28T08:36:26Z</time>
      </trkpt>
      <trkpt lat="43.34078" lon="-0.52313">
        <ele>201.05</ele>
        <time>2017-04-28T08:36:27Z</time>
      </trkpt>
      <trkpt lat="43.34079" lon="-0.52317">
        <ele>200.57</ele>
        <time>2017-04-28T08:36:28Z</time>
      </trkpt>
      <trkpt lat="43.3408" lon="-0.52321">
        <ele>200.57</ele>
        <time>2017-04-28T08:36:29Z</time>
      </trkpt>
      <trkpt lat="43.34091" lon="-0.52363">
        <ele>200.57</ele>
        <time>2017-04-28T08:36:38Z</time>
      </trkpt>
      <trkpt lat="43.34117" lon="-0.52431">
        <ele>203.46</ele>
        <time>2017-04-28T08:36:51Z</time>
      </trkpt>
      <trkpt lat="43.3412" lon="-0.52442">
        <ele>203.94</ele>
        <time>2017-04-28T08:36:53Z</time>
      </trkpt>
      <trkpt lat="43.34122" lon="-0.52447">
        <ele>203.94</ele>
        <time>2017-04-28T08:36:54Z</time>
      </trkpt>
      <trkpt lat="43.34124" lon="-0.52452">
        <ele>203.94</ele>
        <time>2017-04-28T08:36:55Z</time>
      </trkpt>
      <trkpt lat="43.34127" lon="-0.52457">
        <ele>203.94</ele>
        <time>2017-04-28T08:36:56Z</time>
      </trkpt>
      <trkpt lat="43.34129" lon="-0.52462">
        <ele>203.46</ele>
        <time>2017-04-28T08:36:57Z</time>
      </trkpt>
      <trkpt lat="43.34133" lon="-0.52473">
        <ele>202.98</ele>
        <time>2017-04-28T08:36:59Z</time>
      </trkpt>
      <trkpt lat="43.34136" lon="-0.52478">
        <ele>202.98</ele>
        <time>2017-04-28T08:37:00Z</time>
      </trkpt>
      <trkpt lat="43.34153" lon="-0.52536">
        <ele>202.98</ele>
        <time>2017-04-28T08:37:12Z</time>
      </trkpt>
      <trkpt lat="43.34152" lon="-0.52549">
        <ele>203.46</ele>
        <time>2017-04-28T08:37:15Z</time>
      </trkpt>
      <trkpt lat="43.34149" lon="-0.52554">
        <ele>202.98</ele>
        <time>2017-04-28T08:37:16Z</time>
      </trkpt>
      <trkpt lat="43.34147" lon="-0.52557">
        <ele>202.98</ele>
        <time>2017-04-28T08:37:17Z</time>
      </trkpt>
      <trkpt lat="43.3414" lon="-0.52565">
        <ele>202.49</ele>
        <time>2017-04-28T08:37:19Z</time>
      </trkpt>
      <trkpt lat="43.34123" lon="-0.52578">
        <ele>201.05</ele>
        <time>2017-04-28T08:37:23Z</time>
      </trkpt>
      <trkpt lat="43.34118" lon="-0.52582">
        <ele>200.57</ele>
        <time>2017-04-28T08:37:24Z</time>
      </trkpt>
      <trkpt lat="43.34109" lon="-0.52588">
        <ele>199.61</ele>
        <time>2017-04-28T08:37:26Z</time>
      </trkpt>
      <trkpt lat="43.34096" lon="-0.52598">
        <ele>198.65</ele>
        <time>2017-04-28T08:37:29Z</time>
      </trkpt>
      <trkpt lat="43.34085" lon="-0.52607">
        <ele>198.17</ele>
        <time>2017-04-28T08:37:32Z</time>
      </trkpt>
      <trkpt lat="43.34062" lon="-0.52617">
        <ele>199.13</ele>
        <time>2017-04-28T08:37:38Z</time>
      </trkpt>
      <trkpt lat="43.34027" lon="-0.52648">
        <ele>197.21</ele>
        <time>2017-04-28T08:37:49Z</time>
      </trkpt>
      <trkpt lat="43.34006" lon="-0.5269">
        <ele>196.73</ele>
        <time>2017-04-28T08:38:00Z</time>
      </trkpt>
      <trkpt lat="43.33984" lon="-0.52752">
        <ele>199.61</ele>
        <time>2017-04-28T08:38:13Z</time>
      </trkpt>
      <trkpt lat="43.3396" lon="-0.52843">
        <ele>197.21</ele>
        <time>2017-04-28T08:38:26Z</time>
      </trkpt>
      <trkpt lat="43.33945" lon="-0.52938">
        <ele>194.8</ele>
        <time>2017-04-28T08:38:36Z</time>
      </trkpt>
      <trkpt lat="43.33944" lon="-0.52945">
        <ele>194.8</ele>
        <time>2017-04-28T08:38:37Z</time>
      </trkpt>
      <trkpt lat="43.33944" lon="-0.52954">
        <ele>194.8</ele>
        <time>2017-04-28T08:38:38Z</time>
      </trkpt>
      <trkpt lat="43.3395" lon="-0.53022">
        <ele>195.28</ele>
        <time>2017-04-28T08:38:48Z</time>
      </trkpt>
      <trkpt lat="43.33951" lon="-0.53028">
        <ele>195.28</ele>
        <time>2017-04-28T08:38:49Z</time>
      </trkpt>
      <trkpt lat="43.33956" lon="-0.53064">
        <ele>196.25</ele>
        <time>2017-04-28T08:38:55Z</time>
      </trkpt>
      <trkpt lat="43.3396" lon="-0.5312">
        <ele>195.77</ele>
        <time>2017-04-28T08:39:06Z</time>
      </trkpt>
      <trkpt lat="43.33981" lon="-0.53157">
        <ele>197.21</ele>
        <time>2017-04-28T08:39:18Z</time>
      </trkpt>
      <trkpt lat="43.34004" lon="-0.53172">
        <ele>201.53</ele>
        <time>2017-04-28T08:39:30Z</time>
      </trkpt>
      <trkpt lat="43.34035" lon="-0.53178">
        <ele>206.34</ele>
        <time>2017-04-28T08:39:45Z</time>
      </trkpt>
      <trkpt lat="43.34061" lon="-0.53177">
        <ele>208.74</ele>
        <time>2017-04-28T08:39:57Z</time>
      </trkpt>
      <trkpt lat="43.34102" lon="-0.53172">
        <ele>210.67</ele>
        <time>2017-04-28T08:40:14Z</time>
      </trkpt>
      <trkpt lat="43.3414" lon="-0.53179">
        <ele>215.95</ele>
        <time>2017-04-28T08:40:29Z</time>
      </trkpt>
      <trkpt lat="43.34155" lon="-0.53173">
        <ele>219.32</ele>
        <time>2017-04-28T08:40:38Z</time>
      </trkpt>
      <trkpt lat="43.34155" lon="-0.53171">
        <ele>219.32</ele>
        <time>2017-04-28T08:40:39Z</time>
      </trkpt>
      <trkpt lat="43.34155" lon="-0.53169">
        <ele>219.8</ele>
        <time>2017-04-28T08:40:40Z</time>
      </trkpt>
      <trkpt lat="43.34158" lon="-0.53149">
        <ele>221.72</ele>
        <time>2017-04-28T08:40:51Z</time>
      </trkpt>
      <trkpt lat="43.34164" lon="-0.53133">
        <ele>221.72</ele>
        <time>2017-04-28T08:40:59Z</time>
      </trkpt>
      <trkpt lat="43.34166" lon="-0.53129">
        <ele>221.72</ele>
        <time>2017-04-28T08:41:02Z</time>
      </trkpt>
      <trkpt lat="43.34167" lon="-0.53127">
        <ele>222.2</ele>
        <time>2017-04-28T08:41:03Z</time>
      </trkpt>
      <trkpt lat="43.34168" lon="-0.53126">
        <ele>222.2</ele>
        <time>2017-04-28T08:41:04Z</time>
      </trkpt>
      <trkpt lat="43.34169" lon="-0.53124">
        <ele>222.2</ele>
        <time>2017-04-28T08:41:05Z</time>
      </trkpt>
      <trkpt lat="43.34169" lon="-0.53122">
        <ele>221.72</ele>
        <time>2017-04-28T08:41:06Z</time>
      </trkpt>
      <trkpt lat="43.3417" lon="-0.53117">
        <ele>221.24</ele>
        <time>2017-04-28T08:41:09Z</time>
      </trkpt>
      <trkpt lat="43.34181" lon="-0.53097">
        <ele>225.09</ele>
        <time>2017-04-28T08:41:22Z</time>
      </trkpt>
      <trkpt lat="43.34182" lon="-0.53095">
        <ele>225.09</ele>
        <time>2017-04-28T08:41:23Z</time>
      </trkpt>
      <trkpt lat="43.34195" lon="-0.53078">
        <ele>232.3</ele>
        <time>2017-04-28T08:41:37Z</time>
      </trkpt>
      <trkpt lat="43.34208" lon="-0.53054">
        <ele>237.1</ele>
        <time>2017-04-28T08:41:52Z</time>
      </trkpt>
      <trkpt lat="43.34234" lon="-0.53033">
        <ele>239.02</ele>
        <time>2017-04-28T08:42:00Z</time>
      </trkpt>
      <trkpt lat="43.34238" lon="-0.53029">
        <ele>239.51</ele>
        <time>2017-04-28T08:42:01Z</time>
      </trkpt>
      <trkpt lat="43.3426" lon="-0.52995">
        <ele>239.51</ele>
        <time>2017-04-28T08:42:10Z</time>
      </trkpt>
      <trkpt lat="43.34272" lon="-0.52964">
        <ele>236.14</ele>
        <time>2017-04-28T08:42:24Z</time>
      </trkpt>
      <trkpt lat="43.34281" lon="-0.52939">
        <ele>238.54</ele>
        <time>2017-04-28T08:42:37Z</time>
      </trkpt>
      <trkpt lat="43.34284" lon="-0.52933">
        <ele>239.51</ele>
        <time>2017-04-28T08:42:41Z</time>
      </trkpt>
      <trkpt lat="43.34303" lon="-0.5292">
        <ele>241.43</ele>
        <time>2017-04-28T08:42:55Z</time>
      </trkpt>
      <trkpt lat="43.34318" lon="-0.52906">
        <ele>246.72</ele>
        <time>2017-04-28T08:43:08Z</time>
      </trkpt>
      <trkpt lat="43.34324" lon="-0.52899">
        <ele>249.12</ele>
        <time>2017-04-28T08:43:14Z</time>
      </trkpt>
      <trkpt lat="43.34343" lon="-0.52876">
        <ele>252</ele>
        <time>2017-04-28T08:43:28Z</time>
      </trkpt>
      <trkpt lat="43.34345" lon="-0.52875">
        <ele>252.48</ele>
        <time>2017-04-28T08:43:29Z</time>
      </trkpt>
      <trkpt lat="43.34355" lon="-0.52858">
        <ele>251.52</ele>
        <time>2017-04-28T08:43:34Z</time>
      </trkpt>
      <trkpt lat="43.34363" lon="-0.52833">
        <ele>248.16</ele>
        <time>2017-04-28T08:43:41Z</time>
      </trkpt>
      <trkpt lat="43.34369" lon="-0.52827">
        <ele>246.72</ele>
        <time>2017-04-28T08:43:44Z</time>
      </trkpt>
      <trkpt lat="43.34386" lon="-0.52815">
        <ele>244.31</ele>
        <time>2017-04-28T08:43:52Z</time>
      </trkpt>
      <trkpt lat="43.34405" lon="-0.5281">
        <ele>244.79</ele>
        <time>2017-04-28T08:44:00Z</time>
      </trkpt>
      <trkpt lat="43.34407" lon="-0.52811">
        <ele>244.79</ele>
        <time>2017-04-28T08:44:01Z</time>
      </trkpt>
      <trkpt lat="43.34409" lon="-0.52812">
        <ele>244.79</ele>
        <time>2017-04-28T08:44:02Z</time>
      </trkpt>
      <trkpt lat="43.3441" lon="-0.52814">
        <ele>245.27</ele>
        <time>2017-04-28T08:44:03Z</time>
      </trkpt>
      <trkpt lat="43.34412" lon="-0.52816">
        <ele>245.27</ele>
        <time>2017-04-28T08:44:04Z</time>
      </trkpt>
      <trkpt lat="43.34413" lon="-0.52817">
        <ele>244.79</ele>
        <time>2017-04-28T08:44:05Z</time>
      </trkpt>
      <trkpt lat="43.34414" lon="-0.52819">
        <ele>244.79</ele>
        <time>2017-04-28T08:44:06Z</time>
      </trkpt>
      <trkpt lat="43.34415" lon="-0.52821">
        <ele>244.79</ele>
        <time>2017-04-28T08:44:07Z</time>
      </trkpt>
      <trkpt lat="43.34416" lon="-0.52824">
        <ele>244.79</ele>
        <time>2017-04-28T08:44:08Z</time>
      </trkpt>
      <trkpt lat="43.34417" lon="-0.52827">
        <ele>244.79</ele>
        <time>2017-04-28T08:44:09Z</time>
      </trkpt>
      <trkpt lat="43.34418" lon="-0.5283">
        <ele>245.27</ele>
        <time>2017-04-28T08:44:10Z</time>
      </trkpt>
      <trkpt lat="43.34419" lon="-0.52834">
        <ele>245.27</ele>
        <time>2017-04-28T08:44:11Z</time>
      </trkpt>
      <trkpt lat="43.34429" lon="-0.52862">
        <ele>245.75</ele>
        <time>2017-04-28T08:44:20Z</time>
      </trkpt>
      <trkpt lat="43.34443" lon="-0.52898">
        <ele>245.27</ele>
        <time>2017-04-28T08:44:33Z</time>
      </trkpt>
      <trkpt lat="43.34455" lon="-0.5292">
        <ele>245.75</ele>
        <time>2017-04-28T08:44:42Z</time>
      </trkpt>
      <trkpt lat="43.34456" lon="-0.52923">
        <ele>245.75</ele>
        <time>2017-04-28T08:44:43Z</time>
      </trkpt>
      <trkpt lat="43.34458" lon="-0.52925">
        <ele>245.75</ele>
        <time>2017-04-28T08:44:44Z</time>
      </trkpt>
      <trkpt lat="43.34459" lon="-0.52927">
        <ele>245.75</ele>
        <time>2017-04-28T08:44:45Z</time>
      </trkpt>
      <trkpt lat="43.34461" lon="-0.52929">
        <ele>246.23</ele>
        <time>2017-04-28T08:44:46Z</time>
      </trkpt>
      <trkpt lat="43.34462" lon="-0.5293">
        <ele>246.23</ele>
        <time>2017-04-28T08:44:47Z</time>
      </trkpt>
      <trkpt lat="43.34464" lon="-0.52932">
        <ele>246.72</ele>
        <time>2017-04-28T08:44:48Z</time>
      </trkpt>
      <trkpt lat="43.34465" lon="-0.52934">
        <ele>247.2</ele>
        <time>2017-04-28T08:44:49Z</time>
      </trkpt>
      <trkpt lat="43.34466" lon="-0.52936">
        <ele>247.2</ele>
        <time>2017-04-28T08:44:50Z</time>
      </trkpt>
      <trkpt lat="43.34467" lon="-0.52939">
        <ele>247.2</ele>
        <time>2017-04-28T08:44:51Z</time>
      </trkpt>
      <trkpt lat="43.34468" lon="-0.52941">
        <ele>247.68</ele>
        <time>2017-04-28T08:44:52Z</time>
      </trkpt>
      <trkpt lat="43.3447" lon="-0.52942">
        <ele>247.68</ele>
        <time>2017-04-28T08:44:53Z</time>
      </trkpt>
      <trkpt lat="43.34471" lon="-0.52944">
        <ele>248.16</ele>
        <time>2017-04-28T08:44:54Z</time>
      </trkpt>
      <trkpt lat="43.34472" lon="-0.52945">
        <ele>248.16</ele>
        <time>2017-04-28T08:44:55Z</time>
      </trkpt>
      <trkpt lat="43.34473" lon="-0.52946">
        <ele>248.64</ele>
        <time>2017-04-28T08:44:56Z</time>
      </trkpt>
      <trkpt lat="43.34475" lon="-0.52948">
        <ele>249.12</ele>
        <time>2017-04-28T08:44:57Z</time>
      </trkpt>
      <trkpt lat="43.34476" lon="-0.52949">
        <ele>249.12</ele>
        <time>2017-04-28T08:44:58Z</time>
      </trkpt>
      <trkpt lat="43.34478" lon="-0.52951">
        <ele>250.08</ele>
        <time>2017-04-28T08:44:59Z</time>
      </trkpt>
      <trkpt lat="43.34479" lon="-0.52953">
        <ele>250.56</ele>
        <time>2017-04-28T08:45:00Z</time>
      </trkpt>
      <trkpt lat="43.3448" lon="-0.52954">
        <ele>251.04</ele>
        <time>2017-04-28T08:45:01Z</time>
      </trkpt>
      <trkpt lat="43.34494" lon="-0.52977">
        <ele>253.93</ele>
        <time>2017-04-28T08:45:15Z</time>
      </trkpt>
      <trkpt lat="43.34496" lon="-0.52981">
        <ele>254.41</ele>
        <time>2017-04-28T08:45:17Z</time>
      </trkpt>
      <trkpt lat="43.34498" lon="-0.52984">
        <ele>253.93</ele>
        <time>2017-04-28T08:45:19Z</time>
      </trkpt>
      <trkpt lat="43.34499" lon="-0.52986">
        <ele>253.93</ele>
        <time>2017-04-28T08:45:20Z</time>
      </trkpt>
      <trkpt lat="43.34499" lon="-0.52988">
        <ele>253.93</ele>
        <time>2017-04-28T08:45:21Z</time>
      </trkpt>
      <trkpt lat="43.345" lon="-0.52989">
        <ele>253.93</ele>
        <time>2017-04-28T08:45:22Z</time>
      </trkpt>
      <trkpt lat="43.34501" lon="-0.52991">
        <ele>253.93</ele>
        <time>2017-04-28T08:45:23Z</time>
      </trkpt>
      <trkpt lat="43.34502" lon="-0.52993">
        <ele>253.93</ele>
        <time>2017-04-28T08:45:24Z</time>
      </trkpt>
      <trkpt lat="43.34503" lon="-0.52995">
        <ele>253.93</ele>
        <time>2017-04-28T08:45:25Z</time>
      </trkpt>
      <trkpt lat="43.34504" lon="-0.52996">
        <ele>253.93</ele>
        <time>2017-04-28T08:45:26Z</time>
      </trkpt>
      <trkpt lat="43.34505" lon="-0.52998">
        <ele>253.93</ele>
        <time>2017-04-28T08:45:27Z</time>
      </trkpt>
      <trkpt lat="43.34506" lon="-0.52999">
        <ele>253.93</ele>
        <time>2017-04-28T08:45:28Z</time>
      </trkpt>
      <trkpt lat="43.34507" lon="-0.53001">
        <ele>253.93</ele>
        <time>2017-04-28T08:45:29Z</time>
      </trkpt>
      <trkpt lat="43.34508" lon="-0.53002">
        <ele>253.93</ele>
        <time>2017-04-28T08:45:30Z</time>
      </trkpt>
      <trkpt lat="43.34509" lon="-0.53003">
        <ele>253.93</ele>
        <time>2017-04-28T08:45:31Z</time>
      </trkpt>
      <trkpt lat="43.3451" lon="-0.53005">
        <ele>254.41</ele>
        <time>2017-04-28T08:45:32Z</time>
      </trkpt>
      <trkpt lat="43.34511" lon="-0.53006">
        <ele>254.89</ele>
        <time>2017-04-28T08:45:33Z</time>
      </trkpt>
      <trkpt lat="43.34523" lon="-0.53021">
        <ele>259.69</ele>
        <time>2017-04-28T08:45:45Z</time>
      </trkpt>
      <trkpt lat="43.34533" lon="-0.53047">
        <ele>258.73</ele>
        <time>2017-04-28T08:45:57Z</time>
      </trkpt>
      <trkpt lat="43.34542" lon="-0.53071">
        <ele>256.81</ele>
        <time>2017-04-28T08:46:03Z</time>
      </trkpt>
      <trkpt lat="43.34545" lon="-0.53084">
        <ele>255.85</ele>
        <time>2017-04-28T08:46:05Z</time>
      </trkpt>
      <trkpt lat="43.34556" lon="-0.5317">
        <ele>249.12</ele>
        <time>2017-04-28T08:46:14Z</time>
      </trkpt>
      <trkpt lat="43.34555" lon="-0.5318">
        <ele>248.16</ele>
        <time>2017-04-28T08:46:15Z</time>
      </trkpt>
      <trkpt lat="43.34555" lon="-0.5319">
        <ele>247.2</ele>
        <time>2017-04-28T08:46:16Z</time>
      </trkpt>
      <trkpt lat="43.34555" lon="-0.53201">
        <ele>246.23</ele>
        <time>2017-04-28T08:46:17Z</time>
      </trkpt>
      <trkpt lat="43.34556" lon="-0.53214">
        <ele>245.27</ele>
        <time>2017-04-28T08:46:18Z</time>
      </trkpt>
      <trkpt lat="43.34568" lon="-0.53287">
        <ele>240.95</ele>
        <time>2017-04-28T08:46:24Z</time>
      </trkpt>
      <trkpt lat="43.3457" lon="-0.53299">
        <ele>240.47</ele>
        <time>2017-04-28T08:46:25Z</time>
      </trkpt>
      <trkpt lat="43.3457" lon="-0.5331">
        <ele>240.47</ele>
        <time>2017-04-28T08:46:26Z</time>
      </trkpt>
      <trkpt lat="43.3457" lon="-0.5332">
        <ele>239.99</ele>
        <time>2017-04-28T08:46:27Z</time>
      </trkpt>
      <trkpt lat="43.34571" lon="-0.53331">
        <ele>239.51</ele>
        <time>2017-04-28T08:46:28Z</time>
      </trkpt>
      <trkpt lat="43.34572" lon="-0.5334">
        <ele>239.02</ele>
        <time>2017-04-28T08:46:29Z</time>
      </trkpt>
      <trkpt lat="43.34579" lon="-0.5341">
        <ele>235.66</ele>
        <time>2017-04-28T08:46:36Z</time>
      </trkpt>
      <trkpt lat="43.34579" lon="-0.53422">
        <ele>234.7</ele>
        <time>2017-04-28T08:46:37Z</time>
      </trkpt>
      <trkpt lat="43.3458" lon="-0.53433">
        <ele>233.74</ele>
        <time>2017-04-28T08:46:38Z</time>
      </trkpt>
      <trkpt lat="43.34582" lon="-0.53445">
        <ele>233.26</ele>
        <time>2017-04-28T08:46:39Z</time>
      </trkpt>
      <trkpt lat="43.34584" lon="-0.53458">
        <ele>232.3</ele>
        <time>2017-04-28T08:46:40Z</time>
      </trkpt>
      <trkpt lat="43.34585" lon="-0.53471">
        <ele>231.33</ele>
        <time>2017-04-28T08:46:41Z</time>
      </trkpt>
      <trkpt lat="43.34586" lon="-0.53484">
        <ele>230.37</ele>
        <time>2017-04-28T08:46:42Z</time>
      </trkpt>
      <trkpt lat="43.34585" lon="-0.53555">
        <ele>226.05</ele>
        <time>2017-04-28T08:46:47Z</time>
      </trkpt>
      <trkpt lat="43.34566" lon="-0.53661">
        <ele>217.4</ele>
        <time>2017-04-28T08:46:56Z</time>
      </trkpt>
      <trkpt lat="43.34523" lon="-0.53792">
        <ele>205.86</ele>
        <time>2017-04-28T08:47:05Z</time>
      </trkpt>
      <trkpt lat="43.34511" lon="-0.53851">
        <ele>201.05</ele>
        <time>2017-04-28T08:47:10Z</time>
      </trkpt>
      <trkpt lat="43.34511" lon="-0.53861">
        <ele>200.57</ele>
        <time>2017-04-28T08:47:11Z</time>
      </trkpt>
      <trkpt lat="43.34513" lon="-0.5387">
        <ele>200.09</ele>
        <time>2017-04-28T08:47:12Z</time>
      </trkpt>
      <trkpt lat="43.34528" lon="-0.53968">
        <ele>195.77</ele>
        <time>2017-04-28T08:47:21Z</time>
      </trkpt>
      <trkpt lat="43.34528" lon="-0.53979">
        <ele>194.8</ele>
        <time>2017-04-28T08:47:22Z</time>
      </trkpt>
      <trkpt lat="43.34526" lon="-0.53991">
        <ele>193.84</ele>
        <time>2017-04-28T08:47:23Z</time>
      </trkpt>
      <trkpt lat="43.34524" lon="-0.54002">
        <ele>193.36</ele>
        <time>2017-04-28T08:47:24Z</time>
      </trkpt>
      <trkpt lat="43.34521" lon="-0.54012">
        <ele>192.4</ele>
        <time>2017-04-28T08:47:25Z</time>
      </trkpt>
      <trkpt lat="43.34516" lon="-0.54022">
        <ele>191.92</ele>
        <time>2017-04-28T08:47:26Z</time>
      </trkpt>
      <trkpt lat="43.34511" lon="-0.54029">
        <ele>191.44</ele>
        <time>2017-04-28T08:47:27Z</time>
      </trkpt>
      <trkpt lat="43.34506" lon="-0.54035">
        <ele>190.48</ele>
        <time>2017-04-28T08:47:28Z</time>
      </trkpt>
      <trkpt lat="43.34501" lon="-0.54042">
        <ele>189.52</ele>
        <time>2017-04-28T08:47:29Z</time>
      </trkpt>
      <trkpt lat="43.34493" lon="-0.54048">
        <ele>188.08</ele>
        <time>2017-04-28T08:47:30Z</time>
      </trkpt>
      <trkpt lat="43.34485" lon="-0.54054">
        <ele>187.11</ele>
        <time>2017-04-28T08:47:31Z</time>
      </trkpt>
      <trkpt lat="43.3447" lon="-0.54062">
        <ele>185.19</ele>
        <time>2017-04-28T08:47:33Z</time>
      </trkpt>
      <trkpt lat="43.34464" lon="-0.54065">
        <ele>184.71</ele>
        <time>2017-04-28T08:47:34Z</time>
      </trkpt>
      <trkpt lat="43.34458" lon="-0.54067">
        <ele>183.75</ele>
        <time>2017-04-28T08:47:35Z</time>
      </trkpt>
      <trkpt lat="43.34455" lon="-0.5407">
        <ele>182.79</ele>
        <time>2017-04-28T08:47:36Z</time>
      </trkpt>
      <trkpt lat="43.34455" lon="-0.54074">
        <ele>182.31</ele>
        <time>2017-04-28T08:47:37Z</time>
      </trkpt>
      <trkpt lat="43.34456" lon="-0.54078">
        <ele>181.83</ele>
        <time>2017-04-28T08:47:38Z</time>
      </trkpt>
      <trkpt lat="43.34458" lon="-0.54082">
        <ele>181.35</ele>
        <time>2017-04-28T08:47:39Z</time>
      </trkpt>
      <trkpt lat="43.34462" lon="-0.54087">
        <ele>180.87</ele>
        <time>2017-04-28T08:47:40Z</time>
      </trkpt>
      <trkpt lat="43.34481" lon="-0.54106">
        <ele>178.94</ele>
        <time>2017-04-28T08:47:44Z</time>
      </trkpt>
      <trkpt lat="43.34488" lon="-0.54111">
        <ele>177.98</ele>
        <time>2017-04-28T08:47:45Z</time>
      </trkpt>
      <trkpt lat="43.34495" lon="-0.54115">
        <ele>177.5</ele>
        <time>2017-04-28T08:47:46Z</time>
      </trkpt>
      <trkpt lat="43.34503" lon="-0.54118">
        <ele>177.02</ele>
        <time>2017-04-28T08:47:47Z</time>
      </trkpt>
      <trkpt lat="43.3451" lon="-0.5412">
        <ele>176.54</ele>
        <time>2017-04-28T08:47:48Z</time>
      </trkpt>
      <trkpt lat="43.34553" lon="-0.54143">
        <ele>172.21</ele>
        <time>2017-04-28T08:47:54Z</time>
      </trkpt>
      <trkpt lat="43.34575" lon="-0.54163">
        <ele>170.29</ele>
        <time>2017-04-28T08:47:57Z</time>
      </trkpt>
      <trkpt lat="43.34579" lon="-0.5417">
        <ele>169.81</ele>
        <time>2017-04-28T08:47:58Z</time>
      </trkpt>
      <trkpt lat="43.34581" lon="-0.54176">
        <ele>169.33</ele>
        <time>2017-04-28T08:47:59Z</time>
      </trkpt>
      <trkpt lat="43.3458" lon="-0.54182">
        <ele>168.37</ele>
        <time>2017-04-28T08:48:00Z</time>
      </trkpt>
      <trkpt lat="43.34578" lon="-0.54187">
        <ele>167.89</ele>
        <time>2017-04-28T08:48:01Z</time>
      </trkpt>
      <trkpt lat="43.34575" lon="-0.54191">
        <ele>166.93</ele>
        <time>2017-04-28T08:48:02Z</time>
      </trkpt>
      <trkpt lat="43.34572" lon="-0.54195">
        <ele>166.45</ele>
        <time>2017-04-28T08:48:03Z</time>
      </trkpt>
      <trkpt lat="43.34568" lon="-0.54199">
        <ele>166.45</ele>
        <time>2017-04-28T08:48:04Z</time>
      </trkpt>
      <trkpt lat="43.34561" lon="-0.5421">
        <ele>165.96</ele>
        <time>2017-04-28T08:48:06Z</time>
      </trkpt>
      <trkpt lat="43.34558" lon="-0.54216">
        <ele>165.48</ele>
        <time>2017-04-28T08:48:07Z</time>
      </trkpt>
      <trkpt lat="43.34557" lon="-0.54223">
        <ele>165</ele>
        <time>2017-04-28T08:48:08Z</time>
      </trkpt>
      <trkpt lat="43.34557" lon="-0.5423">
        <ele>164.52</ele>
        <time>2017-04-28T08:48:09Z</time>
      </trkpt>
      <trkpt lat="43.34558" lon="-0.54238">
        <ele>164.04</ele>
        <time>2017-04-28T08:48:10Z</time>
      </trkpt>
      <trkpt lat="43.3456" lon="-0.54244">
        <ele>163.56</ele>
        <time>2017-04-28T08:48:11Z</time>
      </trkpt>
      <trkpt lat="43.34563" lon="-0.5425">
        <ele>163.56</ele>
        <time>2017-04-28T08:48:12Z</time>
      </trkpt>
      <trkpt lat="43.34567" lon="-0.54253">
        <ele>163.08</ele>
        <time>2017-04-28T08:48:13Z</time>
      </trkpt>
      <trkpt lat="43.34572" lon="-0.54255">
        <ele>163.08</ele>
        <time>2017-04-28T08:48:14Z</time>
      </trkpt>
      <trkpt lat="43.34577" lon="-0.54257">
        <ele>162.6</ele>
        <time>2017-04-28T08:48:15Z</time>
      </trkpt>
      <trkpt lat="43.34583" lon="-0.54258">
        <ele>162.12</ele>
        <time>2017-04-28T08:48:16Z</time>
      </trkpt>
      <trkpt lat="43.34589" lon="-0.54258">
        <ele>161.64</ele>
        <time>2017-04-28T08:48:17Z</time>
      </trkpt>
      <trkpt lat="43.34596" lon="-0.54257">
        <ele>161.16</ele>
        <time>2017-04-28T08:48:18Z</time>
      </trkpt>
      <trkpt lat="43.34604" lon="-0.54255">
        <ele>161.16</ele>
        <time>2017-04-28T08:48:19Z</time>
      </trkpt>
      <trkpt lat="43.34612" lon="-0.54252">
        <ele>160.68</ele>
        <time>2017-04-28T08:48:20Z</time>
      </trkpt>
      <trkpt lat="43.34635" lon="-0.54244">
        <ele>159.72</ele>
        <time>2017-04-28T08:48:23Z</time>
      </trkpt>
      <trkpt lat="43.34701" lon="-0.54212">
        <ele>156.35</ele>
        <time>2017-04-28T08:48:32Z</time>
      </trkpt>
      <trkpt lat="43.34704" lon="-0.54215">
        <ele>155.87</ele>
        <time>2017-04-28T08:48:33Z</time>
      </trkpt>
      <trkpt lat="43.34707" lon="-0.5422">
        <ele>155.39</ele>
        <time>2017-04-28T08:48:34Z</time>
      </trkpt>
      <trkpt lat="43.34707" lon="-0.54226">
        <ele>154.91</ele>
        <time>2017-04-28T08:48:35Z</time>
      </trkpt>
      <trkpt lat="43.34707" lon="-0.54233">
        <ele>154.43</ele>
        <time>2017-04-28T08:48:36Z</time>
      </trkpt>
      <trkpt lat="43.34705" lon="-0.5424">
        <ele>153.47</ele>
        <time>2017-04-28T08:48:37Z</time>
      </trkpt>
      <trkpt lat="43.34704" lon="-0.54247">
        <ele>152.99</ele>
        <time>2017-04-28T08:48:38Z</time>
      </trkpt>
      <trkpt lat="43.34702" lon="-0.54255">
        <ele>151.54</ele>
        <time>2017-04-28T08:48:39Z</time>
      </trkpt>
      <trkpt lat="43.347" lon="-0.54262">
        <ele>150.58</ele>
        <time>2017-04-28T08:48:40Z</time>
      </trkpt>
      <trkpt lat="43.34697" lon="-0.54277">
        <ele>148.18</ele>
        <time>2017-04-28T08:48:42Z</time>
      </trkpt>
      <trkpt lat="43.34686" lon="-0.54334">
        <ele>138.09</ele>
        <time>2017-04-28T08:48:53Z</time>
      </trkpt>
      <trkpt lat="43.3468" lon="-0.54354">
        <ele>135.68</ele>
        <time>2017-04-28T08:48:57Z</time>
      </trkpt>
      <trkpt lat="43.34678" lon="-0.5436">
        <ele>135.68</ele>
        <time>2017-04-28T08:48:58Z</time>
      </trkpt>
      <trkpt lat="43.34674" lon="-0.5439">
        <ele>134.72</ele>
        <time>2017-04-28T08:49:06Z</time>
      </trkpt>
      <trkpt lat="43.34675" lon="-0.54395">
        <ele>134.72</ele>
        <time>2017-04-28T08:49:07Z</time>
      </trkpt>
      <trkpt lat="43.34676" lon="-0.54401">
        <ele>134.72</ele>
        <time>2017-04-28T08:49:08Z</time>
      </trkpt>
      <trkpt lat="43.34677" lon="-0.54408">
        <ele>134.24</ele>
        <time>2017-04-28T08:49:09Z</time>
      </trkpt>
      <trkpt lat="43.34676" lon="-0.54415">
        <ele>134.24</ele>
        <time>2017-04-28T08:49:10Z</time>
      </trkpt>
      <trkpt lat="43.34675" lon="-0.54421">
        <ele>134.24</ele>
        <time>2017-04-28T08:49:11Z</time>
      </trkpt>
      <trkpt lat="43.34675" lon="-0.54428">
        <ele>133.76</ele>
        <time>2017-04-28T08:49:12Z</time>
      </trkpt>
      <trkpt lat="43.34673" lon="-0.54435">
        <ele>133.76</ele>
        <time>2017-04-28T08:49:13Z</time>
      </trkpt>
      <trkpt lat="43.34671" lon="-0.54441">
        <ele>133.76</ele>
        <time>2017-04-28T08:49:14Z</time>
      </trkpt>
      <trkpt lat="43.3467" lon="-0.54448">
        <ele>133.76</ele>
        <time>2017-04-28T08:49:15Z</time>
      </trkpt>
      <trkpt lat="43.34668" lon="-0.54455">
        <ele>133.28</ele>
        <time>2017-04-28T08:49:16Z</time>
      </trkpt>
      <trkpt lat="43.34661" lon="-0.54527">
        <ele>131.36</ele>
        <time>2017-04-28T08:49:28Z</time>
      </trkpt>
      <trkpt lat="43.34661" lon="-0.54532">
        <ele>130.88</ele>
        <time>2017-04-28T08:49:29Z</time>
      </trkpt>
      <trkpt lat="43.3466" lon="-0.54539">
        <ele>130.88</ele>
        <time>2017-04-28T08:49:30Z</time>
      </trkpt>
      <trkpt lat="43.34659" lon="-0.54544">
        <ele>130.4</ele>
        <time>2017-04-28T08:49:31Z</time>
      </trkpt>
      <trkpt lat="43.34658" lon="-0.5455">
        <ele>130.4</ele>
        <time>2017-04-28T08:49:32Z</time>
      </trkpt>
      <trkpt lat="43.34657" lon="-0.54556">
        <ele>129.92</ele>
        <time>2017-04-28T08:49:33Z</time>
      </trkpt>
      <trkpt lat="43.34657" lon="-0.54562">
        <ele>129.92</ele>
        <time>2017-04-28T08:49:34Z</time>
      </trkpt>
      <trkpt lat="43.34656" lon="-0.54568">
        <ele>129.43</ele>
        <time>2017-04-28T08:49:35Z</time>
      </trkpt>
      <trkpt lat="43.34649" lon="-0.54644">
        <ele>126.07</ele>
        <time>2017-04-28T08:49:48Z</time>
      </trkpt>
      <trkpt lat="43.34657" lon="-0.54671">
        <ele>127.99</ele>
        <time>2017-04-28T08:49:54Z</time>
      </trkpt>
      <trkpt lat="43.34669" lon="-0.54684">
        <ele>127.03</ele>
        <time>2017-04-28T08:49:57Z</time>
      </trkpt>
      <trkpt lat="43.34674" lon="-0.54688">
        <ele>126.55</ele>
        <time>2017-04-28T08:49:58Z</time>
      </trkpt>
      <trkpt lat="43.3468" lon="-0.54693">
        <ele>126.55</ele>
        <time>2017-04-28T08:49:59Z</time>
      </trkpt>
      <trkpt lat="43.34704" lon="-0.54713">
        <ele>126.07</ele>
        <time>2017-04-28T08:50:04Z</time>
      </trkpt>
      <trkpt lat="43.34762" lon="-0.54771">
        <ele>127.99</ele>
        <time>2017-04-28T08:50:17Z</time>
      </trkpt>
      <trkpt lat="43.34819" lon="-0.54846">
        <ele>127.03</ele>
        <time>2017-04-28T08:50:27Z</time>
      </trkpt>
      <trkpt lat="43.34823" lon="-0.54853">
        <ele>127.03</ele>
        <time>2017-04-28T08:50:28Z</time>
      </trkpt>
      <trkpt lat="43.34835" lon="-0.54874">
        <ele>127.51</ele>
        <time>2017-04-28T08:50:31Z</time>
      </trkpt>
      <trkpt lat="43.34839" lon="-0.54879">
        <ele>127.51</ele>
        <time>2017-04-28T08:50:32Z</time>
      </trkpt>
      <trkpt lat="43.34844" lon="-0.54884">
        <ele>127.51</ele>
        <time>2017-04-28T08:50:33Z</time>
      </trkpt>
      <trkpt lat="43.34849" lon="-0.54888">
        <ele>127.99</ele>
        <time>2017-04-28T08:50:34Z</time>
      </trkpt>
      <trkpt lat="43.34854" lon="-0.5489">
        <ele>127.99</ele>
        <time>2017-04-28T08:50:35Z</time>
      </trkpt>
      <trkpt lat="43.3486" lon="-0.54892">
        <ele>128.47</ele>
        <time>2017-04-28T08:50:36Z</time>
      </trkpt>
      <trkpt lat="43.34866" lon="-0.54893">
        <ele>128.47</ele>
        <time>2017-04-28T08:50:37Z</time>
      </trkpt>
      <trkpt lat="43.34871" lon="-0.54893">
        <ele>128.95</ele>
        <time>2017-04-28T08:50:38Z</time>
      </trkpt>
      <trkpt lat="43.34928" lon="-0.54919">
        <ele>130.4</ele>
        <time>2017-04-28T08:50:49Z</time>
      </trkpt>
      <trkpt lat="43.34937" lon="-0.54927">
        <ele>130.4</ele>
        <time>2017-04-28T08:50:51Z</time>
      </trkpt>
      <trkpt lat="43.34941" lon="-0.54932">
        <ele>129.92</ele>
        <time>2017-04-28T08:50:52Z</time>
      </trkpt>
      <trkpt lat="43.34945" lon="-0.54938">
        <ele>129.92</ele>
        <time>2017-04-28T08:50:53Z</time>
      </trkpt>
      <trkpt lat="43.34949" lon="-0.54944">
        <ele>129.92</ele>
        <time>2017-04-28T08:50:54Z</time>
      </trkpt>
      <trkpt lat="43.34953" lon="-0.54952">
        <ele>129.43</ele>
        <time>2017-04-28T08:50:55Z</time>
      </trkpt>
      <trkpt lat="43.35008" lon="-0.55038">
        <ele>126.07</ele>
        <time>2017-04-28T08:51:07Z</time>
      </trkpt>
      <trkpt lat="43.35045" lon="-0.55078">
        <ele>126.07</ele>
        <time>2017-04-28T08:51:15Z</time>
      </trkpt>
      <trkpt lat="43.35103" lon="-0.55107">
        <ele>126.55</ele>
        <time>2017-04-28T08:51:26Z</time>
      </trkpt>
      <trkpt lat="43.35153" lon="-0.55131">
        <ele>127.03</ele>
        <time>2017-04-28T08:51:35Z</time>
      </trkpt>
      <trkpt lat="43.35158" lon="-0.55135">
        <ele>127.03</ele>
        <time>2017-04-28T08:51:36Z</time>
      </trkpt>
      <trkpt lat="43.35163" lon="-0.55141">
        <ele>127.03</ele>
        <time>2017-04-28T08:51:37Z</time>
      </trkpt>
      <trkpt lat="43.35208" lon="-0.55215">
        <ele>125.11</ele>
        <time>2017-04-28T08:51:48Z</time>
      </trkpt>
      <trkpt lat="43.35211" lon="-0.55222">
        <ele>124.63</ele>
        <time>2017-04-28T08:51:49Z</time>
      </trkpt>
      <trkpt lat="43.35214" lon="-0.55231">
        <ele>124.15</ele>
        <time>2017-04-28T08:51:50Z</time>
      </trkpt>
      <trkpt lat="43.35217" lon="-0.5524">
        <ele>124.15</ele>
        <time>2017-04-28T08:51:51Z</time>
      </trkpt>
      <trkpt lat="43.35219" lon="-0.55249">
        <ele>123.67</ele>
        <time>2017-04-28T08:51:52Z</time>
      </trkpt>
      <trkpt lat="43.35221" lon="-0.55257">
        <ele>123.67</ele>
        <time>2017-04-28T08:51:53Z</time>
      </trkpt>
      <trkpt lat="43.35222" lon="-0.55267">
        <ele>123.67</ele>
        <time>2017-04-28T08:51:54Z</time>
      </trkpt>
      <trkpt lat="43.35222" lon="-0.55275">
        <ele>123.19</ele>
        <time>2017-04-28T08:51:55Z</time>
      </trkpt>
      <trkpt lat="43.35222" lon="-0.5532">
        <ele>122.22</ele>
        <time>2017-04-28T08:52:00Z</time>
      </trkpt>
      <trkpt lat="43.35223" lon="-0.5533">
        <ele>121.74</ele>
        <time>2017-04-28T08:52:01Z</time>
      </trkpt>
      <trkpt lat="43.35225" lon="-0.55338">
        <ele>121.74</ele>
        <time>2017-04-28T08:52:02Z</time>
      </trkpt>
      <trkpt lat="43.35228" lon="-0.55347">
        <ele>121.26</ele>
        <time>2017-04-28T08:52:03Z</time>
      </trkpt>
      <trkpt lat="43.35231" lon="-0.55355">
        <ele>121.26</ele>
        <time>2017-04-28T08:52:04Z</time>
      </trkpt>
      <trkpt lat="43.35279" lon="-0.55432">
        <ele>121.74</ele>
        <time>2017-04-28T08:52:16Z</time>
      </trkpt>
      <trkpt lat="43.35308" lon="-0.55483">
        <ele>121.26</ele>
        <time>2017-04-28T08:52:23Z</time>
      </trkpt>
      <trkpt lat="43.35323" lon="-0.55501">
        <ele>121.26</ele>
        <time>2017-04-28T08:52:26Z</time>
      </trkpt>
      <trkpt lat="43.35328" lon="-0.55505">
        <ele>121.26</ele>
        <time>2017-04-28T08:52:27Z</time>
      </trkpt>
      <trkpt lat="43.35334" lon="-0.55509">
        <ele>121.26</ele>
        <time>2017-04-28T08:52:28Z</time>
      </trkpt>
      <trkpt lat="43.35341" lon="-0.55513">
        <ele>121.26</ele>
        <time>2017-04-28T08:52:29Z</time>
      </trkpt>
      <trkpt lat="43.35346" lon="-0.55515">
        <ele>121.74</ele>
        <time>2017-04-28T08:52:30Z</time>
      </trkpt>
      <trkpt lat="43.35352" lon="-0.55517">
        <ele>121.74</ele>
        <time>2017-04-28T08:52:31Z</time>
      </trkpt>
      <trkpt lat="43.35376" lon="-0.55523">
        <ele>123.19</ele>
        <time>2017-04-28T08:52:35Z</time>
      </trkpt>
      <trkpt lat="43.35385" lon="-0.55527">
        <ele>123.67</ele>
        <time>2017-04-28T08:52:37Z</time>
      </trkpt>
      <trkpt lat="43.35388" lon="-0.5553">
        <ele>124.15</ele>
        <time>2017-04-28T08:52:38Z</time>
      </trkpt>
      <trkpt lat="43.35392" lon="-0.55534">
        <ele>124.15</ele>
        <time>2017-04-28T08:52:39Z</time>
      </trkpt>
      <trkpt lat="43.35395" lon="-0.55537">
        <ele>124.15</ele>
        <time>2017-04-28T08:52:40Z</time>
      </trkpt>
      <trkpt lat="43.35399" lon="-0.55541">
        <ele>124.63</ele>
        <time>2017-04-28T08:52:41Z</time>
      </trkpt>
      <trkpt lat="43.35402" lon="-0.55544">
        <ele>124.63</ele>
        <time>2017-04-28T08:52:42Z</time>
      </trkpt>
      <trkpt lat="43.35406" lon="-0.55548">
        <ele>124.63</ele>
        <time>2017-04-28T08:52:43Z</time>
      </trkpt>
      <trkpt lat="43.35409" lon="-0.55553">
        <ele>124.63</ele>
        <time>2017-04-28T08:52:44Z</time>
      </trkpt>
      <trkpt lat="43.35413" lon="-0.55558">
        <ele>124.63</ele>
        <time>2017-04-28T08:52:45Z</time>
      </trkpt>
      <trkpt lat="43.35416" lon="-0.55563">
        <ele>124.63</ele>
        <time>2017-04-28T08:52:46Z</time>
      </trkpt>
      <trkpt lat="43.35418" lon="-0.55569">
        <ele>124.63</ele>
        <time>2017-04-28T08:52:47Z</time>
      </trkpt>
      <trkpt lat="43.35421" lon="-0.55575">
        <ele>124.63</ele>
        <time>2017-04-28T08:52:48Z</time>
      </trkpt>
      <trkpt lat="43.35425" lon="-0.55589">
        <ele>124.15</ele>
        <time>2017-04-28T08:52:50Z</time>
      </trkpt>
      <trkpt lat="43.35435" lon="-0.55625">
        <ele>123.19</ele>
        <time>2017-04-28T08:52:55Z</time>
      </trkpt>
      <trkpt lat="43.35437" lon="-0.55632">
        <ele>123.19</ele>
        <time>2017-04-28T08:52:56Z</time>
      </trkpt>
      <trkpt lat="43.35441" lon="-0.55639">
        <ele>123.19</ele>
        <time>2017-04-28T08:52:57Z</time>
      </trkpt>
      <trkpt lat="43.35444" lon="-0.55645">
        <ele>123.67</ele>
        <time>2017-04-28T08:52:58Z</time>
      </trkpt>
      <trkpt lat="43.35448" lon="-0.55651">
        <ele>123.67</ele>
        <time>2017-04-28T08:52:59Z</time>
      </trkpt>
      <trkpt lat="43.35507" lon="-0.55744">
        <ele>123.19</ele>
        <time>2017-04-28T08:53:14Z</time>
      </trkpt>
      <trkpt lat="43.35575" lon="-0.55858">
        <ele>121.26</ele>
        <time>2017-04-28T08:53:29Z</time>
      </trkpt>
      <trkpt lat="43.35581" lon="-0.55874">
        <ele>120.78</ele>
        <time>2017-04-28T08:53:31Z</time>
      </trkpt>
      <trkpt lat="43.35583" lon="-0.55883">
        <ele>120.78</ele>
        <time>2017-04-28T08:53:32Z</time>
      </trkpt>
      <trkpt lat="43.35616" lon="-0.55994">
        <ele>120.78</ele>
        <time>2017-04-28T08:53:46Z</time>
      </trkpt>
      <trkpt lat="43.3562" lon="-0.56">
        <ele>120.78</ele>
        <time>2017-04-28T08:53:47Z</time>
      </trkpt>
      <trkpt lat="43.35625" lon="-0.56006">
        <ele>120.3</ele>
        <time>2017-04-28T08:53:48Z</time>
      </trkpt>
      <trkpt lat="43.3563" lon="-0.56012">
        <ele>120.78</ele>
        <time>2017-04-28T08:53:49Z</time>
      </trkpt>
      <trkpt lat="43.35634" lon="-0.56017">
        <ele>120.78</ele>
        <time>2017-04-28T08:53:50Z</time>
      </trkpt>
      <trkpt lat="43.35639" lon="-0.56021">
        <ele>120.78</ele>
        <time>2017-04-28T08:53:51Z</time>
      </trkpt>
      <trkpt lat="43.35645" lon="-0.56024">
        <ele>120.78</ele>
        <time>2017-04-28T08:53:52Z</time>
      </trkpt>
      <trkpt lat="43.3565" lon="-0.56027">
        <ele>120.78</ele>
        <time>2017-04-28T08:53:53Z</time>
      </trkpt>
      <trkpt lat="43.35656" lon="-0.56028">
        <ele>120.78</ele>
        <time>2017-04-28T08:53:54Z</time>
      </trkpt>
      <trkpt lat="43.35662" lon="-0.56029">
        <ele>120.78</ele>
        <time>2017-04-28T08:53:55Z</time>
      </trkpt>
      <trkpt lat="43.3568" lon="-0.56033">
        <ele>121.26</ele>
        <time>2017-04-28T08:53:58Z</time>
      </trkpt>
      <trkpt lat="43.35686" lon="-0.56037">
        <ele>121.26</ele>
        <time>2017-04-28T08:53:59Z</time>
      </trkpt>
      <trkpt lat="43.35691" lon="-0.5604">
        <ele>121.26</ele>
        <time>2017-04-28T08:54:00Z</time>
      </trkpt>
      <trkpt lat="43.35717" lon="-0.56065">
        <ele>120.78</ele>
        <time>2017-04-28T08:54:05Z</time>
      </trkpt>
      <trkpt lat="43.35723" lon="-0.56068">
        <ele>120.78</ele>
        <time>2017-04-28T08:54:06Z</time>
      </trkpt>
      <trkpt lat="43.35729" lon="-0.56069">
        <ele>120.78</ele>
        <time>2017-04-28T08:54:07Z</time>
      </trkpt>
      <trkpt lat="43.35736" lon="-0.56069">
        <ele>120.78</ele>
        <time>2017-04-28T08:54:08Z</time>
      </trkpt>
      <trkpt lat="43.35742" lon="-0.56067">
        <ele>120.78</ele>
        <time>2017-04-28T08:54:09Z</time>
      </trkpt>
      <trkpt lat="43.35748" lon="-0.56065">
        <ele>120.78</ele>
        <time>2017-04-28T08:54:10Z</time>
      </trkpt>
      <trkpt lat="43.35755" lon="-0.56063">
        <ele>120.78</ele>
        <time>2017-04-28T08:54:11Z</time>
      </trkpt>
      <trkpt lat="43.35761" lon="-0.56061">
        <ele>120.78</ele>
        <time>2017-04-28T08:54:12Z</time>
      </trkpt>
      <trkpt lat="43.35772" lon="-0.56057">
        <ele>120.78</ele>
        <time>2017-04-28T08:54:14Z</time>
      </trkpt>
      <trkpt lat="43.35778" lon="-0.56057">
        <ele>120.78</ele>
        <time>2017-04-28T08:54:15Z</time>
      </trkpt>
      <trkpt lat="43.35784" lon="-0.56057">
        <ele>120.78</ele>
        <time>2017-04-28T08:54:16Z</time>
      </trkpt>
      <trkpt lat="43.35789" lon="-0.5606">
        <ele>120.78</ele>
        <time>2017-04-28T08:54:17Z</time>
      </trkpt>
      <trkpt lat="43.35795" lon="-0.56064">
        <ele>120.78</ele>
        <time>2017-04-28T08:54:18Z</time>
      </trkpt>
      <trkpt lat="43.35799" lon="-0.56068">
        <ele>120.78</ele>
        <time>2017-04-28T08:54:19Z</time>
      </trkpt>
      <trkpt lat="43.35804" lon="-0.56073">
        <ele>120.78</ele>
        <time>2017-04-28T08:54:20Z</time>
      </trkpt>
      <trkpt lat="43.35824" lon="-0.561">
        <ele>120.3</ele>
        <time>2017-04-28T08:54:28Z</time>
      </trkpt>
      <trkpt lat="43.35826" lon="-0.56102">
        <ele>120.3</ele>
        <time>2017-04-28T08:54:29Z</time>
      </trkpt>
      <trkpt lat="43.35827" lon="-0.56107">
        <ele>120.3</ele>
        <time>2017-04-28T08:54:30Z</time>
      </trkpt>
      <trkpt lat="43.35828" lon="-0.56112">
        <ele>120.3</ele>
        <time>2017-04-28T08:54:31Z</time>
      </trkpt>
      <trkpt lat="43.35829" lon="-0.56117">
        <ele>119.82</ele>
        <time>2017-04-28T08:54:32Z</time>
      </trkpt>
      <trkpt lat="43.35855" lon="-0.56225">
        <ele>119.34</ele>
        <time>2017-04-28T08:54:47Z</time>
      </trkpt>
      <trkpt lat="43.35862" lon="-0.56242">
        <ele>119.34</ele>
        <time>2017-04-28T08:54:49Z</time>
      </trkpt>
      <trkpt lat="43.35864" lon="-0.56245">
        <ele>119.34</ele>
        <time>2017-04-28T08:54:50Z</time>
      </trkpt>
      <trkpt lat="43.35869" lon="-0.5625">
        <ele>119.34</ele>
        <time>2017-04-28T08:54:51Z</time>
      </trkpt>
      <trkpt lat="43.35875" lon="-0.56255">
        <ele>119.34</ele>
        <time>2017-04-28T08:54:52Z</time>
      </trkpt>
      <trkpt lat="43.35879" lon="-0.56259">
        <ele>119.82</ele>
        <time>2017-04-28T08:54:53Z</time>
      </trkpt>
      <trkpt lat="43.35886" lon="-0.56263">
        <ele>119.82</ele>
        <time>2017-04-28T08:54:54Z</time>
      </trkpt>
      <trkpt lat="43.35891" lon="-0.56266">
        <ele>119.82</ele>
        <time>2017-04-28T08:54:55Z</time>
      </trkpt>
      <trkpt lat="43.35897" lon="-0.56269">
        <ele>119.82</ele>
        <time>2017-04-28T08:54:56Z</time>
      </trkpt>
      <trkpt lat="43.35926" lon="-0.56288">
        <ele>119.34</ele>
        <time>2017-04-28T08:55:01Z</time>
      </trkpt>
      <trkpt lat="43.3593" lon="-0.56293">
        <ele>119.34</ele>
        <time>2017-04-28T08:55:02Z</time>
      </trkpt>
      <trkpt lat="43.35934" lon="-0.563">
        <ele>119.34</ele>
        <time>2017-04-28T08:55:03Z</time>
      </trkpt>
      <trkpt lat="43.35938" lon="-0.56308">
        <ele>119.34</ele>
        <time>2017-04-28T08:55:04Z</time>
      </trkpt>
      <trkpt lat="43.3594" lon="-0.56315">
        <ele>119.82</ele>
        <time>2017-04-28T08:55:05Z</time>
      </trkpt>
      <trkpt lat="43.3595" lon="-0.56337">
        <ele>119.82</ele>
        <time>2017-04-28T08:55:08Z</time>
      </trkpt>
      <trkpt lat="43.35954" lon="-0.56344">
        <ele>119.82</ele>
        <time>2017-04-28T08:55:09Z</time>
      </trkpt>
      <trkpt lat="43.35964" lon="-0.56365">
        <ele>120.3</ele>
        <time>2017-04-28T08:55:12Z</time>
      </trkpt>
      <trkpt lat="43.35967" lon="-0.56373">
        <ele>120.78</ele>
        <time>2017-04-28T08:55:13Z</time>
      </trkpt>
      <trkpt lat="43.36005" lon="-0.56515">
        <ele>120.3</ele>
        <time>2017-04-28T08:55:31Z</time>
      </trkpt>
      <trkpt lat="43.36063" lon="-0.56604">
        <ele>119.34</ele>
        <time>2017-04-28T08:55:45Z</time>
      </trkpt>
      <trkpt lat="43.36141" lon="-0.56668">
        <ele>119.82</ele>
        <time>2017-04-28T08:56:00Z</time>
      </trkpt>
      <trkpt lat="43.36146" lon="-0.56672">
        <ele>119.34</ele>
        <time>2017-04-28T08:56:01Z</time>
      </trkpt>
      <trkpt lat="43.36151" lon="-0.56676">
        <ele>119.34</ele>
        <time>2017-04-28T08:56:02Z</time>
      </trkpt>
      <trkpt lat="43.36156" lon="-0.56676">
        <ele>119.34</ele>
        <time>2017-04-28T08:56:03Z</time>
      </trkpt>
      <trkpt lat="43.36161" lon="-0.56674">
        <ele>118.86</ele>
        <time>2017-04-28T08:56:04Z</time>
      </trkpt>
      <trkpt lat="43.36164" lon="-0.56671">
        <ele>118.86</ele>
        <time>2017-04-28T08:56:05Z</time>
      </trkpt>
      <trkpt lat="43.36167" lon="-0.56667">
        <ele>118.86</ele>
        <time>2017-04-28T08:56:06Z</time>
      </trkpt>
      <trkpt lat="43.36194" lon="-0.56655">
        <ele>118.86</ele>
        <time>2017-04-28T08:56:16Z</time>
      </trkpt>
      <trkpt lat="43.36196" lon="-0.5666">
        <ele>118.86</ele>
        <time>2017-04-28T08:56:17Z</time>
      </trkpt>
      <trkpt lat="43.36197" lon="-0.56667">
        <ele>118.86</ele>
        <time>2017-04-28T08:56:18Z</time>
      </trkpt>
      <trkpt lat="43.36197" lon="-0.56674">
        <ele>118.38</ele>
        <time>2017-04-28T08:56:19Z</time>
      </trkpt>
      <trkpt lat="43.36197" lon="-0.56681">
        <ele>118.38</ele>
        <time>2017-04-28T08:56:20Z</time>
      </trkpt>
      <trkpt lat="43.36197" lon="-0.56744">
        <ele>117.9</ele>
        <time>2017-04-28T08:56:28Z</time>
      </trkpt>
      <trkpt lat="43.36199" lon="-0.56755">
        <ele>117.9</ele>
        <time>2017-04-28T08:56:29Z</time>
      </trkpt>
      <trkpt lat="43.36202" lon="-0.5676">
        <ele>117.9</ele>
        <time>2017-04-28T08:56:30Z</time>
      </trkpt>
      <trkpt lat="43.36263" lon="-0.56858">
        <ele>116.94</ele>
        <time>2017-04-28T08:56:45Z</time>
      </trkpt>
      <trkpt lat="43.36275" lon="-0.56879">
        <ele>116.94</ele>
        <time>2017-04-28T08:56:48Z</time>
      </trkpt>
      <trkpt lat="43.3628" lon="-0.56886">
        <ele>116.94</ele>
        <time>2017-04-28T08:56:49Z</time>
      </trkpt>
      <trkpt lat="43.36285" lon="-0.56891">
        <ele>116.94</ele>
        <time>2017-04-28T08:56:50Z</time>
      </trkpt>
      <trkpt lat="43.36306" lon="-0.56927">
        <ele>117.42</ele>
        <time>2017-04-28T08:56:55Z</time>
      </trkpt>
      <trkpt lat="43.36355" lon="-0.57071">
        <ele>116.46</ele>
        <time>2017-04-28T08:57:12Z</time>
      </trkpt>
      <trkpt lat="43.36399" lon="-0.57221">
        <ele>114.53</ele>
        <time>2017-04-28T08:57:29Z</time>
      </trkpt>
      <trkpt lat="43.36425" lon="-0.57416">
        <ele>113.57</ele>
        <time>2017-04-28T08:57:50Z</time>
      </trkpt>
      <trkpt lat="43.36436" lon="-0.57559">
        <ele>114.05</ele>
        <time>2017-04-28T08:58:05Z</time>
      </trkpt>
      <trkpt lat="43.36437" lon="-0.57568">
        <ele>114.05</ele>
        <time>2017-04-28T08:58:06Z</time>
      </trkpt>
      <trkpt lat="43.3644" lon="-0.57577">
        <ele>114.05</ele>
        <time>2017-04-28T08:58:07Z</time>
      </trkpt>
      <trkpt lat="43.36443" lon="-0.57585">
        <ele>114.53</ele>
        <time>2017-04-28T08:58:08Z</time>
      </trkpt>
      <trkpt lat="43.36447" lon="-0.57592">
        <ele>114.05</ele>
        <time>2017-04-28T08:58:09Z</time>
      </trkpt>
      <trkpt lat="43.36452" lon="-0.57599">
        <ele>114.05</ele>
        <time>2017-04-28T08:58:10Z</time>
      </trkpt>
      <trkpt lat="43.36456" lon="-0.57605">
        <ele>114.05</ele>
        <time>2017-04-28T08:58:11Z</time>
      </trkpt>
      <trkpt lat="43.36481" lon="-0.57647">
        <ele>113.57</ele>
        <time>2017-04-28T08:58:17Z</time>
      </trkpt>
      <trkpt lat="43.36485" lon="-0.57655">
        <ele>113.57</ele>
        <time>2017-04-28T08:58:18Z</time>
      </trkpt>
      <trkpt lat="43.3649" lon="-0.57669">
        <ele>114.05</ele>
        <time>2017-04-28T08:58:20Z</time>
      </trkpt>
      <trkpt lat="43.36494" lon="-0.57675">
        <ele>114.05</ele>
        <time>2017-04-28T08:58:21Z</time>
      </trkpt>
      <trkpt lat="43.36499" lon="-0.57679">
        <ele>114.05</ele>
        <time>2017-04-28T08:58:22Z</time>
      </trkpt>
      <trkpt lat="43.36504" lon="-0.5768">
        <ele>114.05</ele>
        <time>2017-04-28T08:58:23Z</time>
      </trkpt>
      <trkpt lat="43.3651" lon="-0.57677">
        <ele>114.05</ele>
        <time>2017-04-28T08:58:24Z</time>
      </trkpt>
      <trkpt lat="43.36515" lon="-0.57673">
        <ele>114.05</ele>
        <time>2017-04-28T08:58:25Z</time>
      </trkpt>
      <trkpt lat="43.3652" lon="-0.57669">
        <ele>114.05</ele>
        <time>2017-04-28T08:58:26Z</time>
      </trkpt>
      <trkpt lat="43.36524" lon="-0.57663">
        <ele>114.05</ele>
        <time>2017-04-28T08:58:27Z</time>
      </trkpt>
      <trkpt lat="43.36618" lon="-0.57569">
        <ele>115.01</ele>
        <time>2017-04-28T08:58:44Z</time>
      </trkpt>
      <trkpt lat="43.3673" lon="-0.57481">
        <ele>115.5</ele>
        <time>2017-04-28T08:59:02Z</time>
      </trkpt>
      <trkpt lat="43.3686" lon="-0.57399">
        <ele>114.05</ele>
        <time>2017-04-28T08:59:20Z</time>
      </trkpt>
      <trkpt lat="43.36969" lon="-0.57262">
        <ele>114.53</ele>
        <time>2017-04-28T08:59:38Z</time>
      </trkpt>
      <trkpt lat="43.37067" lon="-0.57143">
        <ele>115.01</ele>
        <time>2017-04-28T08:59:56Z</time>
      </trkpt>
      <trkpt lat="43.37127" lon="-0.57078">
        <ele>114.05</ele>
        <time>2017-04-28T09:00:07Z</time>
      </trkpt>
      <trkpt lat="43.37132" lon="-0.57075">
        <ele>114.05</ele>
        <time>2017-04-28T09:00:08Z</time>
      </trkpt>
      <trkpt lat="43.37139" lon="-0.57072">
        <ele>114.05</ele>
        <time>2017-04-28T09:00:09Z</time>
      </trkpt>
      <trkpt lat="43.37145" lon="-0.57071">
        <ele>114.05</ele>
        <time>2017-04-28T09:00:10Z</time>
      </trkpt>
      <trkpt lat="43.37152" lon="-0.5707">
        <ele>114.05</ele>
        <time>2017-04-28T09:00:11Z</time>
      </trkpt>
      <trkpt lat="43.37202" lon="-0.57058">
        <ele>114.05</ele>
        <time>2017-04-28T09:00:19Z</time>
      </trkpt>
      <trkpt lat="43.37278" lon="-0.57005">
        <ele>113.09</ele>
        <time>2017-04-28T09:00:32Z</time>
      </trkpt>
      <trkpt lat="43.37282" lon="-0.57">
        <ele>113.09</ele>
        <time>2017-04-28T09:00:33Z</time>
      </trkpt>
      <trkpt lat="43.37286" lon="-0.56993">
        <ele>113.09</ele>
        <time>2017-04-28T09:00:34Z</time>
      </trkpt>
      <trkpt lat="43.3729" lon="-0.56989">
        <ele>113.09</ele>
        <time>2017-04-28T09:00:35Z</time>
      </trkpt>
      <trkpt lat="43.37295" lon="-0.56986">
        <ele>113.09</ele>
        <time>2017-04-28T09:00:36Z</time>
      </trkpt>
      <trkpt lat="43.373" lon="-0.56987">
        <ele>113.09</ele>
        <time>2017-04-28T09:00:37Z</time>
      </trkpt>
      <trkpt lat="43.37304" lon="-0.56991">
        <ele>112.61</ele>
        <time>2017-04-28T09:00:38Z</time>
      </trkpt>
      <trkpt lat="43.37306" lon="-0.56997">
        <ele>112.61</ele>
        <time>2017-04-28T09:00:39Z</time>
      </trkpt>
      <trkpt lat="43.37308" lon="-0.57004">
        <ele>112.61</ele>
        <time>2017-04-28T09:00:40Z</time>
      </trkpt>
      <trkpt lat="43.3731" lon="-0.57014">
        <ele>112.13</ele>
        <time>2017-04-28T09:00:41Z</time>
      </trkpt>
      <trkpt lat="43.37344" lon="-0.57098">
        <ele>110.21</ele>
        <time>2017-04-28T09:00:52Z</time>
      </trkpt>
      <trkpt lat="43.3736" lon="-0.57117">
        <ele>110.21</ele>
        <time>2017-04-28T09:00:55Z</time>
      </trkpt>
      <trkpt lat="43.37365" lon="-0.57122">
        <ele>110.21</ele>
        <time>2017-04-28T09:00:56Z</time>
      </trkpt>
      <trkpt lat="43.37371" lon="-0.57127">
        <ele>110.21</ele>
        <time>2017-04-28T09:00:57Z</time>
      </trkpt>
      <trkpt lat="43.37465" lon="-0.57229">
        <ele>110.21</ele>
        <time>2017-04-28T09:01:14Z</time>
      </trkpt>
      <trkpt lat="43.37538" lon="-0.57342">
        <ele>110.21</ele>
        <time>2017-04-28T09:01:30Z</time>
      </trkpt>
      <trkpt lat="43.37609" lon="-0.57459">
        <ele>111.65</ele>
        <time>2017-04-28T09:01:47Z</time>
      </trkpt>
      <trkpt lat="43.37637" lon="-0.57506">
        <ele>112.13</ele>
        <time>2017-04-28T09:01:54Z</time>
      </trkpt>
      <trkpt lat="43.37706" lon="-0.57619">
        <ele>112.61</ele>
        <time>2017-04-28T09:02:11Z</time>
      </trkpt>
      <trkpt lat="43.37765" lon="-0.57738">
        <ele>113.57</ele>
        <time>2017-04-28T09:02:27Z</time>
      </trkpt>
      <trkpt lat="43.37816" lon="-0.57894">
        <ele>112.61</ele>
        <time>2017-04-28T09:02:45Z</time>
      </trkpt>
      <trkpt lat="43.37855" lon="-0.58009">
        <ele>112.61</ele>
        <time>2017-04-28T09:03:01Z</time>
      </trkpt>
      <trkpt lat="43.37907" lon="-0.58162">
        <ele>112.61</ele>
        <time>2017-04-28T09:03:19Z</time>
      </trkpt>
      <trkpt lat="43.37961" lon="-0.58305">
        <ele>111.65</ele>
        <time>2017-04-28T09:03:35Z</time>
      </trkpt>
      <trkpt lat="43.37967" lon="-0.58313">
        <ele>111.65</ele>
        <time>2017-04-28T09:03:36Z</time>
      </trkpt>
      <trkpt lat="43.37972" lon="-0.58319">
        <ele>111.65</ele>
        <time>2017-04-28T09:03:37Z</time>
      </trkpt>
      <trkpt lat="43.37979" lon="-0.58325">
        <ele>111.65</ele>
        <time>2017-04-28T09:03:38Z</time>
      </trkpt>
      <trkpt lat="43.37985" lon="-0.5833">
        <ele>111.17</ele>
        <time>2017-04-28T09:03:39Z</time>
      </trkpt>
      <trkpt lat="43.37992" lon="-0.58334">
        <ele>111.17</ele>
        <time>2017-04-28T09:03:40Z</time>
      </trkpt>
      <trkpt lat="43.37999" lon="-0.58337">
        <ele>111.17</ele>
        <time>2017-04-28T09:03:41Z</time>
      </trkpt>
      <trkpt lat="43.38077" lon="-0.58376">
        <ele>110.21</ele>
        <time>2017-04-28T09:03:52Z</time>
      </trkpt>
      <trkpt lat="43.38149" lon="-0.58461">
        <ele>109.25</ele>
        <time>2017-04-28T09:04:07Z</time>
      </trkpt>
      <trkpt lat="43.38221" lon="-0.58544">
        <ele>109.73</ele>
        <time>2017-04-28T09:04:22Z</time>
      </trkpt>
      <trkpt lat="43.38298" lon="-0.58653">
        <ele>110.21</ele>
        <time>2017-04-28T09:04:38Z</time>
      </trkpt>
      <trkpt lat="43.38369" lon="-0.58755">
        <ele>111.65</ele>
        <time>2017-04-28T09:04:53Z</time>
      </trkpt>
      <trkpt lat="43.38392" lon="-0.58775">
        <ele>111.17</ele>
        <time>2017-04-28T09:04:57Z</time>
      </trkpt>
      <trkpt lat="43.38399" lon="-0.58778">
        <ele>111.65</ele>
        <time>2017-04-28T09:04:58Z</time>
      </trkpt>
      <trkpt lat="43.38405" lon="-0.5878">
        <ele>111.65</ele>
        <time>2017-04-28T09:04:59Z</time>
      </trkpt>
      <trkpt lat="43.38411" lon="-0.58782">
        <ele>111.65</ele>
        <time>2017-04-28T09:05:00Z</time>
      </trkpt>
      <trkpt lat="43.38419" lon="-0.58782">
        <ele>111.65</ele>
        <time>2017-04-28T09:05:01Z</time>
      </trkpt>
      <trkpt lat="43.38425" lon="-0.58782">
        <ele>111.65</ele>
        <time>2017-04-28T09:05:02Z</time>
      </trkpt>
      <trkpt lat="43.38432" lon="-0.58782">
        <ele>111.65</ele>
        <time>2017-04-28T09:05:03Z</time>
      </trkpt>
      <trkpt lat="43.38439" lon="-0.5878">
        <ele>111.65</ele>
        <time>2017-04-28T09:05:04Z</time>
      </trkpt>
      <trkpt lat="43.38445" lon="-0.58777">
        <ele>111.65</ele>
        <time>2017-04-28T09:05:05Z</time>
      </trkpt>
      <trkpt lat="43.38451" lon="-0.58773">
        <ele>111.65</ele>
        <time>2017-04-28T09:05:06Z</time>
      </trkpt>
      <trkpt lat="43.38458" lon="-0.58769">
        <ele>111.65</ele>
        <time>2017-04-28T09:05:07Z</time>
      </trkpt>
      <trkpt lat="43.38463" lon="-0.58764">
        <ele>111.65</ele>
        <time>2017-04-28T09:05:08Z</time>
      </trkpt>
      <trkpt lat="43.38469" lon="-0.58758">
        <ele>111.65</ele>
        <time>2017-04-28T09:05:09Z</time>
      </trkpt>
      <trkpt lat="43.38473" lon="-0.58752">
        <ele>111.65</ele>
        <time>2017-04-28T09:05:10Z</time>
      </trkpt>
      <trkpt lat="43.38478" lon="-0.58745">
        <ele>111.65</ele>
        <time>2017-04-28T09:05:11Z</time>
      </trkpt>
      <trkpt lat="43.38497" lon="-0.58722">
        <ele>111.17</ele>
        <time>2017-04-28T09:05:15Z</time>
      </trkpt>
      <trkpt lat="43.38502" lon="-0.5872">
        <ele>111.17</ele>
        <time>2017-04-28T09:05:16Z</time>
      </trkpt>
      <trkpt lat="43.38508" lon="-0.58718">
        <ele>111.17</ele>
        <time>2017-04-28T09:05:17Z</time>
      </trkpt>
      <trkpt lat="43.38514" lon="-0.58717">
        <ele>111.17</ele>
        <time>2017-04-28T09:05:18Z</time>
      </trkpt>
      <trkpt lat="43.38518" lon="-0.58712">
        <ele>111.17</ele>
        <time>2017-04-28T09:05:19Z</time>
      </trkpt>
      <trkpt lat="43.38522" lon="-0.58705">
        <ele>111.65</ele>
        <time>2017-04-28T09:05:20Z</time>
      </trkpt>
      <trkpt lat="43.38523" lon="-0.587">
        <ele>111.65</ele>
        <time>2017-04-28T09:05:21Z</time>
      </trkpt>
      <trkpt lat="43.38525" lon="-0.58693">
        <ele>111.65</ele>
        <time>2017-04-28T09:05:22Z</time>
      </trkpt>
      <trkpt lat="43.3857" lon="-0.58565">
        <ele>112.61</ele>
        <time>2017-04-28T09:05:39Z</time>
      </trkpt>
      <trkpt lat="43.38621" lon="-0.58442">
        <ele>110.21</ele>
        <time>2017-04-28T09:05:55Z</time>
      </trkpt>
      <trkpt lat="43.38707" lon="-0.58337">
        <ele>108.29</ele>
        <time>2017-04-28T09:06:11Z</time>
      </trkpt>
      <trkpt lat="43.38777" lon="-0.58262">
        <ele>108.77</ele>
        <time>2017-04-28T09:06:26Z</time>
      </trkpt>
      <trkpt lat="43.38861" lon="-0.5817">
        <ele>108.77</ele>
        <time>2017-04-28T09:06:44Z</time>
      </trkpt>
      <trkpt lat="43.38946" lon="-0.58079">
        <ele>109.25</ele>
        <time>2017-04-28T09:07:02Z</time>
      </trkpt>
      <trkpt lat="43.39025" lon="-0.57989">
        <ele>108.77</ele>
        <time>2017-04-28T09:07:20Z</time>
      </trkpt>
      <trkpt lat="43.39058" lon="-0.57961">
        <ele>108.77</ele>
        <time>2017-04-28T09:07:27Z</time>
      </trkpt>
      <trkpt lat="43.39064" lon="-0.57958">
        <ele>108.77</ele>
        <time>2017-04-28T09:07:28Z</time>
      </trkpt>
      <trkpt lat="43.39105" lon="-0.57945">
        <ele>109.73</ele>
        <time>2017-04-28T09:07:36Z</time>
      </trkpt>
      <trkpt lat="43.3911" lon="-0.57944">
        <ele>109.73</ele>
        <time>2017-04-28T09:07:37Z</time>
      </trkpt>
      <trkpt lat="43.39166" lon="-0.57932">
        <ele>113.09</ele>
        <time>2017-04-28T09:07:49Z</time>
      </trkpt>
      <trkpt lat="43.39176" lon="-0.5793">
        <ele>112.61</ele>
        <time>2017-04-28T09:07:51Z</time>
      </trkpt>
      <trkpt lat="43.39266" lon="-0.57895">
        <ele>110.69</ele>
        <time>2017-04-28T09:08:07Z</time>
      </trkpt>
      <trkpt lat="43.39332" lon="-0.5784">
        <ele>109.25</ele>
        <time>2017-04-28T09:08:20Z</time>
      </trkpt>
      <trkpt lat="43.39423" lon="-0.57754">
        <ele>109.25</ele>
        <time>2017-04-28T09:08:38Z</time>
      </trkpt>
      <trkpt lat="43.3949" lon="-0.57693">
        <ele>109.73</ele>
        <time>2017-04-28T09:08:52Z</time>
      </trkpt>
      <trkpt lat="43.39555" lon="-0.57634">
        <ele>112.61</ele>
        <time>2017-04-28T09:09:07Z</time>
      </trkpt>
      <trkpt lat="43.39621" lon="-0.57576">
        <ele>113.57</ele>
        <time>2017-04-28T09:09:22Z</time>
      </trkpt>
      <trkpt lat="43.39625" lon="-0.57572">
        <ele>113.09</ele>
        <time>2017-04-28T09:09:23Z</time>
      </trkpt>
      <trkpt lat="43.39629" lon="-0.57567">
        <ele>113.57</ele>
        <time>2017-04-28T09:09:24Z</time>
      </trkpt>
      <trkpt lat="43.39633" lon="-0.57561">
        <ele>113.57</ele>
        <time>2017-04-28T09:09:25Z</time>
      </trkpt>
      <trkpt lat="43.39637" lon="-0.57556">
        <ele>113.57</ele>
        <time>2017-04-28T09:09:26Z</time>
      </trkpt>
      <trkpt lat="43.3964" lon="-0.57551">
        <ele>113.57</ele>
        <time>2017-04-28T09:09:27Z</time>
      </trkpt>
      <trkpt lat="43.39645" lon="-0.57547">
        <ele>113.57</ele>
        <time>2017-04-28T09:09:28Z</time>
      </trkpt>
      <trkpt lat="43.3965" lon="-0.57544">
        <ele>113.09</ele>
        <time>2017-04-28T09:09:29Z</time>
      </trkpt>
      <trkpt lat="43.39656" lon="-0.57544">
        <ele>113.09</ele>
        <time>2017-04-28T09:09:30Z</time>
      </trkpt>
      <trkpt lat="43.39662" lon="-0.57547">
        <ele>113.09</ele>
        <time>2017-04-28T09:09:31Z</time>
      </trkpt>
      <trkpt lat="43.39667" lon="-0.57552">
        <ele>112.61</ele>
        <time>2017-04-28T09:09:32Z</time>
      </trkpt>
      <trkpt lat="43.39671" lon="-0.57559">
        <ele>112.61</ele>
        <time>2017-04-28T09:09:33Z</time>
      </trkpt>
      <trkpt lat="43.39674" lon="-0.57568">
        <ele>112.13</ele>
        <time>2017-04-28T09:09:34Z</time>
      </trkpt>
      <trkpt lat="43.39676" lon="-0.57576">
        <ele>112.13</ele>
        <time>2017-04-28T09:09:35Z</time>
      </trkpt>
      <trkpt lat="43.39677" lon="-0.57585">
        <ele>111.65</ele>
        <time>2017-04-28T09:09:36Z</time>
      </trkpt>
      <trkpt lat="43.39682" lon="-0.57604">
        <ele>111.17</ele>
        <time>2017-04-28T09:09:38Z</time>
      </trkpt>
      <trkpt lat="43.39686" lon="-0.57613">
        <ele>110.69</ele>
        <time>2017-04-28T09:09:39Z</time>
      </trkpt>
      <trkpt lat="43.39692" lon="-0.57621">
        <ele>110.21</ele>
        <time>2017-04-28T09:09:40Z</time>
      </trkpt>
      <trkpt lat="43.39785" lon="-0.57744">
        <ele>109.25</ele>
        <time>2017-04-28T09:09:58Z</time>
      </trkpt>
      <trkpt lat="43.39813" lon="-0.5778">
        <ele>109.73</ele>
        <time>2017-04-28T09:10:04Z</time>
      </trkpt>
      <trkpt lat="43.39819" lon="-0.57784">
        <ele>109.73</ele>
        <time>2017-04-28T09:10:05Z</time>
      </trkpt>
      <trkpt lat="43.39825" lon="-0.57785">
        <ele>110.21</ele>
        <time>2017-04-28T09:10:06Z</time>
      </trkpt>
      <trkpt lat="43.39831" lon="-0.57784">
        <ele>110.21</ele>
        <time>2017-04-28T09:10:07Z</time>
      </trkpt>
      <trkpt lat="43.39836" lon="-0.5778">
        <ele>110.21</ele>
        <time>2017-04-28T09:10:08Z</time>
      </trkpt>
      <trkpt lat="43.39842" lon="-0.57776">
        <ele>110.69</ele>
        <time>2017-04-28T09:10:09Z</time>
      </trkpt>
      <trkpt lat="43.39848" lon="-0.57774">
        <ele>110.69</ele>
        <time>2017-04-28T09:10:10Z</time>
      </trkpt>
      <trkpt lat="43.39854" lon="-0.57773">
        <ele>110.69</ele>
        <time>2017-04-28T09:10:11Z</time>
      </trkpt>
      <trkpt lat="43.3986" lon="-0.57776">
        <ele>110.69</ele>
        <time>2017-04-28T09:10:12Z</time>
      </trkpt>
      <trkpt lat="43.39866" lon="-0.57781">
        <ele>110.69</ele>
        <time>2017-04-28T09:10:13Z</time>
      </trkpt>
      <trkpt lat="43.39872" lon="-0.57789">
        <ele>110.69</ele>
        <time>2017-04-28T09:10:14Z</time>
      </trkpt>
      <trkpt lat="43.39875" lon="-0.57795">
        <ele>110.69</ele>
        <time>2017-04-28T09:10:15Z</time>
      </trkpt>
      <trkpt lat="43.39879" lon="-0.57803">
        <ele>110.69</ele>
        <time>2017-04-28T09:10:16Z</time>
      </trkpt>
      <trkpt lat="43.39913" lon="-0.57894">
        <ele>110.21</ele>
        <time>2017-04-28T09:10:27Z</time>
      </trkpt>
      <trkpt lat="43.39917" lon="-0.5791">
        <ele>110.69</ele>
        <time>2017-04-28T09:10:29Z</time>
      </trkpt>
      <trkpt lat="43.39966" lon="-0.58042">
        <ele>110.21</ele>
        <time>2017-04-28T09:10:46Z</time>
      </trkpt>
      <trkpt lat="43.4" lon="-0.58134">
        <ele>109.25</ele>
        <time>2017-04-28T09:10:59Z</time>
      </trkpt>
      <trkpt lat="43.40004" lon="-0.58136">
        <ele>109.25</ele>
        <time>2017-04-28T09:11:00Z</time>
      </trkpt>
      <trkpt lat="43.40008" lon="-0.58135">
        <ele>108.77</ele>
        <time>2017-04-28T09:11:01Z</time>
      </trkpt>
      <trkpt lat="43.4001" lon="-0.58134">
        <ele>108.77</ele>
        <time>2017-04-28T09:11:02Z</time>
      </trkpt>
      <trkpt lat="43.40014" lon="-0.58132">
        <ele>108.77</ele>
        <time>2017-04-28T09:11:03Z</time>
      </trkpt>
      <trkpt lat="43.40021" lon="-0.58126">
        <ele>108.77</ele>
        <time>2017-04-28T09:11:05Z</time>
      </trkpt>
      <trkpt lat="43.40085" lon="-0.58089">
        <ele>109.73</ele>
        <time>2017-04-28T09:11:22Z</time>
      </trkpt>
      <trkpt lat="43.40086" lon="-0.58085">
        <ele>110.21</ele>
        <time>2017-04-28T09:11:23Z</time>
      </trkpt>
      <trkpt lat="43.40087" lon="-0.58081">
        <ele>109.73</ele>
        <time>2017-04-28T09:11:24Z</time>
      </trkpt>
      <trkpt lat="43.40087" lon="-0.58076">
        <ele>109.73</ele>
        <time>2017-04-28T09:11:25Z</time>
      </trkpt>
      <trkpt lat="43.40086" lon="-0.58072">
        <ele>110.21</ele>
        <time>2017-04-28T09:11:26Z</time>
      </trkpt>
      <trkpt lat="43.40085" lon="-0.58068">
        <ele>110.21</ele>
        <time>2017-04-28T09:11:27Z</time>
      </trkpt>
      <trkpt lat="43.40084" lon="-0.58065">
        <ele>110.21</ele>
        <time>2017-04-28T09:11:28Z</time>
      </trkpt>
      <trkpt lat="43.40077" lon="-0.58015">
        <ele>111.65</ele>
        <time>2017-04-28T09:11:41Z</time>
      </trkpt>
      <trkpt lat="43.40089" lon="-0.58001">
        <ele>112.13</ele>
        <time>2017-04-28T09:11:51Z</time>
      </trkpt>
      <trkpt lat="43.40089" lon="-0.58001">
        <ele>112.13</ele>
        <time>2017-04-28T09:11:53Z</time>
      </trkpt>
    </trkseg>
  </trk>
</gpx>